| time (UTC) | temp C | wind direction | speed KPH | gust KPH | rain 1hr cm | rain 24hr cm | rain mn cm | humidity % | barometer mb |
| 20260906224604 | 36 | 179 | 11.3 | 19.3 | 0.00 | 0.00 | 0.00 | 41 | 1011.4 |
| 20260906224502 | 36 | 141 | 11.3 | 19.3 | 0.00 | 0.00 | 0.00 | 41 | 1011.5 |
| 20260906224403 | 36 | 94 | 9.7 | 22.5 | 0.00 | 0.00 | 0.00 | 41 | 1011.4 |
| 20260906224346 | 36 | 196 | 9.7 | 22.5 | 0.00 | 0.00 | 0.00 | 41 | 1011.4 |
| 20260906224302 | 36 | 142 | 9.7 | 22.5 | 0.00 | 0.00 | 0.00 | 41 | 1011.4 |
| 20260906224204 | 36 | 82 | 8.0 | 22.5 | 0.00 | 0.00 | 0.00 | 41 | 1011.4 |
| 20260906224104 | 36 | 128 | 6.4 | 22.5 | 0.00 | 0.00 | 0.00 | 43 | 1011.5 |
| 20260906224003 | 36 | 149 | 9.7 | 22.5 | 0.00 | 0.00 | 0.00 | 41 | 1011.4 |
| 20260906223902 | 36 | 157 | 9.7 | 22.5 | 0.00 | 0.00 | 0.00 | 42 | 1011.4 |
| 20260906223843 | 36 | 116 | 11.3 | 22.5 | 0.00 | 0.00 | 0.00 | 42 | 1011.4 |
| 20260906223804 | 36 | 152 | 9.7 | 22.5 | 0.00 | 0.00 | 0.00 | 42 | 1011.5 |
| 20260906223702 | 36 | 138 | 9.7 | 22.5 | 0.00 | 0.00 | 0.00 | 42 | 1011.5 |
| 20260906223603 | 36 | 133 | 11.3 | 22.5 | 0.00 | 0.00 | 0.00 | 41 | 1011.5 |
| 20260906223504 | 37 | 100 | 12.9 | 22.5 | 0.00 | 0.00 | 0.00 | 42 | 1011.5 |
| 20260906223403 | 37 | 93 | 9.7 | 16.1 | 0.00 | 0.00 | 0.00 | 41 | 1011.5 |
| 20260906223342 | 37 | 131 | 8.0 | 14.5 | 0.00 | 0.00 | 0.00 | 41 | 1011.5 |
| 20260906223303 | 37 | 147 | 8.0 | 14.5 | 0.00 | 0.00 | 0.00 | 42 | 1011.5 |
| 20260906223204 | 37 | 217 | 6.4 | 14.5 | 0.00 | 0.00 | 0.00 | 41 | 1011.4 |
| 20260906223102 | 37 | 145 | 8.0 | 14.5 | 0.00 | 0.00 | 0.00 | 42 | 1011.4 |
| 20260906223005 | 37 | 154 | 8.0 | 14.5 | 0.00 | 0.00 | 0.00 | 41 | 1011.3 |
| 20260906222902 | 37 | 131 | 8.0 | 14.5 | 0.00 | 0.00 | 0.00 | 41 | 1011.4 |
| 20260906222841 | 37 | 154 | 8.0 | 14.5 | 0.00 | 0.00 | 0.00 | 41 | 1011.4 |
| 20260906222803 | 37 | 171 | 6.4 | 14.5 | 0.00 | 0.00 | 0.00 | 41 | 1011.4 |
| 20260906222658 | 37 | 123 | 4.8 | 14.5 | 0.00 | 0.00 | 0.00 | 42 | 1011.5 |
| 20260906222553 | 37 | 78 | 6.4 | 14.5 | 0.00 | 0.00 | 0.00 | 42 | 1011.5 |
| 20260906222451 | 37 | 140 | 8.0 | 14.5 | 0.00 | 0.00 | 0.00 | 42 | 1011.5 |
| 20260906222351 | 37 | 131 | 8.0 | 14.5 | 0.00 | 0.00 | 0.00 | 42 | 1011.6 |
| 20260906222340 | 37 | 128 | 8.0 | 14.5 | 0.00 | 0.00 | 0.00 | 42 | 1011.6 |
| 20260906222259 | 37 | 147 | 8.0 | 14.5 | 0.00 | 0.00 | 0.00 | 41 | 1011.5 |
| 20260906222253 | 37 | 147 | 8.0 | 14.5 | 0.00 | 0.00 | 0.00 | 42 | 1011.6 |
| 20260906222223 | 37 | 104 | 8.0 | 14.5 | 0.00 | 0.00 | 0.00 | 42 | 1011.5 |
| 20260906222152 | 37 | 161 | 9.7 | 14.5 | 0.00 | 0.00 | 0.00 | 42 | 1011.5 |
| 20260906222120 | 37 | 141 | 9.7 | 14.5 | 0.00 | 0.00 | 0.00 | 41 | 1011.5 |
| 20260906222050 | 37 | 147 | 8.0 | 14.5 | 0.00 | 0.00 | 0.00 | 41 | 1011.5 |
| 20260906221740 | 37 | 135 | 8.0 | 14.5 | 0.00 | 0.00 | 0.00 | 42 | 1011.5 |
| 20260906221641 | 37 | 140 | 9.7 | 14.5 | 0.00 | 0.00 | 0.00 | 42 | 1011.5 |
| 20260906221539 | 37 | 135 | 8.0 | 17.7 | 0.00 | 0.00 | 0.00 | 42 | 1011.6 |
| 20260906221440 | 37 | 127 | 6.4 | 19.3 | 0.00 | 0.00 | 0.00 | 43 | 1011.5 |
| 20260906221340 | 37 | 125 | 6.4 | 19.3 | 0.00 | 0.00 | 0.00 | 42 | 1011.5 |
| 20260906221233 | 37 | 175 | 8.0 | 19.3 | 0.00 | 0.00 | 0.00 | 42 | 1011.4 |
| 20260906221132 | 37 | 124 | 6.4 | 19.3 | 0.00 | 0.00 | 0.00 | 43 | 1011.5 |
| 20260906221031 | 37 | 171 | 6.4 | 19.3 | 0.00 | 0.00 | 0.00 | 43 | 1011.5 |
| 20260906220933 | 36 | 142 | 6.4 | 19.3 | 0.00 | 0.00 | 0.00 | 43 | 1011.5 |
| 20260906220840 | 36 | 118 | 8.0 | 19.3 | 0.00 | 0.00 | 0.00 | 43 | 1011.5 |
| 20260906220832 | 36 | 145 | 8.0 | 19.3 | 0.00 | 0.00 | 0.00 | 43 | 1011.4 |
| 20260906220732 | 36 | 93 | 11.3 | 19.3 | 0.00 | 0.00 | 0.00 | 43 | 1011.5 |
| 20260906220632 | 36 | 102 | 12.9 | 19.3 | 0.00 | 0.00 | 0.00 | 43 | 1011.5 |
| 20260906220533 | 36 | 131 | 12.9 | 19.3 | 0.00 | 0.00 | 0.00 | 43 | 1011.4 |
| 20260906220433 | 37 | 130 | 14.5 | 17.7 | 0.00 | 0.00 | 0.00 | 42 | 1011.4 |
| 20260906220340 | 37 | 144 | 12.9 | 17.7 | 0.00 | 0.00 | 0.00 | 42 | 1011.4 |
| 20260906220331 | 37 | 135 | 12.9 | 17.7 | 0.00 | 0.00 | 0.00 | 42 | 1011.4 |
| 20260906220231 | 37 | 135 | 9.7 | 17.7 | 0.00 | 0.00 | 0.00 | 42 | 1011.4 |
| 20260906220131 | 37 | 137 | 8.0 | 16.1 | 0.00 | 0.00 | 0.00 | 42 | 1011.4 |
| 20260906220032 | 37 | 125 | 8.0 | 14.5 | 0.00 | 0.00 | 0.00 | 43 | 1011.4 |
| 20260906215932 | 37 | 145 | 6.4 | 14.5 | 0.00 | 0.00 | 0.00 | 42 | 1011.4 |
| 20260906215839 | 37 | 137 | 6.4 | 14.5 | 0.00 | 0.00 | 0.00 | 42 | 1011.4 |
| 20260906215830 | 37 | 147 | 6.4 | 14.5 | 0.00 | 0.00 | 0.00 | 42 | 1011.4 |
| 20260906215751 | 36 | 185 | 8.0 | 14.5 | 0.00 | 0.00 | 0.00 | 43 | 1011.4 |
| 20260906215739 | 37 | 142 | 8.0 | 14.5 | 0.00 | 0.00 | 0.00 | 42 | 1011.4 |
| 20260906215708 | 37 | 166 | 8.0 | 14.5 | 0.00 | 0.00 | 0.00 | 42 | 1011.4 |
| 20260906215638 | 36 | 152 | 9.7 | 14.5 | 0.00 | 0.00 | 0.00 | 44 | 1011.5 |
| 20260906215609 | 36 | 168 | 9.7 | 14.5 | 0.00 | 0.00 | 0.00 | 43 | 1011.4 |
| 20260906215325 | 36 | 140 | 6.4 | 14.5 | 0.00 | 0.00 | 0.00 | 43 | 1011.4 |
| 20260906215222 | 36 | 189 | 6.4 | 14.5 | 0.00 | 0.00 | 0.00 | 43 | 1011.4 |
| 20260906215122 | 36 | 202 | 6.4 | 14.5 | 0.00 | 0.00 | 0.00 | 42 | 1011.4 |
| 20260906215019 | 36 | 113 | 3.2 | 14.5 | 0.00 | 0.00 | 0.00 | 44 | 1011.4 |
| 20260906214908 | 36 | 202 | 4.8 | 14.5 | 0.00 | 0.00 | 0.00 | 42 | 1011.5 |
| 20260906214838 | 36 | 200 | 6.4 | 14.5 | 0.00 | 0.00 | 0.00 | 43 | 1011.5 |
| 20260906214806 | 37 | 180 | 6.4 | 16.1 | 0.00 | 0.00 | 0.00 | 43 | 1011.5 |
| 20260906214705 | 37 | 197 | 6.4 | 16.1 | 0.00 | 0.00 | 0.00 | 43 | 1011.5 |
| 20260906214606 | 37 | 127 | 8.0 | 16.1 | 0.00 | 0.00 | 0.00 | 41 | 1011.5 |
| 20260906214501 | 37 | 158 | 8.0 | 16.1 | 0.00 | 0.00 | 0.00 | 43 | 1011.5 |
| 20260906214400 | 37 | 168 | 6.4 | 17.7 | 0.00 | 0.00 | 0.00 | 43 | 1011.5 |
| 20260906214330 | 37 | 149 | 6.4 | 17.7 | 0.00 | 0.00 | 0.00 | 41 | 1011.5 |
| 20260906214300 | 37 | 147 | 6.4 | 17.7 | 0.00 | 0.00 | 0.00 | 41 | 1011.5 |
| 20260906214157 | 37 | 192 | 6.4 | 17.7 | 0.00 | 0.00 | 0.00 | 42 | 1011.5 |
| 20260906214144 | 37 | 178 | 6.4 | 17.7 | 0.00 | 0.00 | 0.00 | 42 | 1011.5 |
| 20260906214121 | 37 | 141 | 6.4 | 17.7 | 0.00 | 0.00 | 0.00 | 43 | 1011.5 |
| 20260906214053 | 37 | 123 | 8.0 | 17.7 | 0.00 | 0.00 | 0.00 | 42 | 1011.5 |
| 20260906214021 | 37 | 90 | 8.0 | 17.7 | 0.00 | 0.00 | 0.00 | 42 | 1011.5 |
| 20260906214011 | 37 | 102 | 8.0 | 17.7 | 0.00 | 0.00 | 0.00 | 43 | 1011.5 |
| 20260906213951 | 37 | 137 | 6.4 | 17.7 | 0.00 | 0.00 | 0.00 | 43 | 1011.5 |
| 20260906213712 | 37 | 104 | 8.0 | 17.7 | 0.00 | 0.00 | 0.00 | 44 | 1011.5 |
| 20260906213642 | 36 | 151 | 9.7 | 17.7 | 0.00 | 0.00 | 0.00 | 43 | 1011.5 |
| 20260906213614 | 36 | 180 | 8.0 | 17.7 | 0.00 | 0.00 | 0.00 | 42 | 1011.5 |
| 20260906213544 | 37 | 166 | 6.4 | 16.1 | 0.00 | 0.00 | 0.00 | 42 | 1011.5 |
| 20260906213241 | 37 | 159 | 6.4 | 19.3 | 0.00 | 0.00 | 0.00 | 44 | 1011.5 |
| 20260906213140 | 36 | 145 | 6.4 | 19.3 | 0.00 | 0.00 | 0.00 | 43 | 1011.5 |
| 20260906213040 | 36 | 140 | 6.4 | 19.3 | 0.00 | 0.00 | 0.00 | 43 | 1011.6 |
| 20260906212936 | 36 | 134 | 8.0 | 22.5 | 0.00 | 0.00 | 0.00 | 43 | 1011.6 |
| 20260906212838 | 36 | 140 | 9.7 | 22.5 | 0.00 | 0.00 | 0.00 | 42 | 1011.6 |
| 20260906212831 | 36 | 140 | 9.7 | 22.5 | 0.00 | 0.00 | 0.00 | 42 | 1011.6 |
| 20260906212734 | 37 | 158 | 9.7 | 22.5 | 0.00 | 0.00 | 0.00 | 42 | 1011.6 |
| 20260906212632 | 36 | 124 | 9.7 | 22.5 | 0.00 | 0.00 | 0.00 | 42 | 1011.7 |
| 20260906212533 | 37 | 149 | 11.3 | 22.5 | 0.00 | 0.00 | 0.00 | 43 | 1011.7 |
| 20260906212433 | 37 | 130 | 11.3 | 22.5 | 0.00 | 0.00 | 0.00 | 42 | 1011.8 |
| 20260906212334 | 37 | 157 | 9.7 | 22.5 | 0.00 | 0.00 | 0.00 | 42 | 1011.8 |
| 20260906212234 | 37 | 123 | 8.0 | 22.5 | 0.00 | 0.00 | 0.00 | 42 | 1011.8 |
| 20260906212132 | 37 | 141 | 11.3 | 22.5 | 0.00 | 0.00 | 0.00 | 43 | 1011.9 |
| 20260906212033 | 37 | 135 | 11.3 | 22.5 | 0.00 | 0.00 | 0.00 | 42 | 1011.9 |
| 20260906211934 | 37 | 116 | 6.4 | 16.1 | 0.00 | 0.00 | 0.00 | 43 | 1011.8 |
| 20260906211832 | 37 | 168 | 4.8 | 14.5 | 0.00 | 0.00 | 0.00 | 42 | 1011.8 |
| 20260906211748 | 37 | 131 | 8.0 | 14.5 | 0.00 | 0.00 | 0.00 | 43 | 1011.9 |
| 20260906211738 | 37 | 140 | 4.8 | 14.5 | 0.00 | 0.00 | 0.00 | 42 | 1011.9 |
| 20260906211709 | 37 | 103 | 4.8 | 14.5 | 0.00 | 0.00 | 0.00 | 42 | 1011.9 |
| 20260906211642 | 37 | 158 | 6.4 | 14.5 | 0.00 | 0.00 | 0.00 | 42 | 1011.9 |
| 20260906211613 | 37 | 137 | 8.0 | 14.5 | 0.00 | 0.00 | 0.00 | 44 | 1011.9 |
| 20260906211542 | 37 | 131 | 8.0 | 14.5 | 0.00 | 0.00 | 0.00 | 43 | 1011.9 |
| 20260906211242 | 37 | 169 | 3.2 | 20.9 | 0.00 | 0.00 | 0.00 | 44 | 1012.0 |
| 20260906211234 | 37 | 134 | 8.0 | 19.3 | 0.00 | 0.00 | 0.00 | 43 | 1011.9 |
| 20260906211205 | 37 | 135 | 8.0 | 19.3 | 0.00 | 0.00 | 0.00 | 42 | 1011.9 |
| 20260906211135 | 37 | 179 | 8.0 | 19.3 | 0.00 | 0.00 | 0.00 | 42 | 1012.0 |
| 20260906211106 | 37 | 141 | 6.4 | 20.9 | 0.00 | 0.00 | 0.00 | 42 | 1012.0 |
| 20260906210829 | 37 | 183 | 3.2 | 20.9 | 0.00 | 0.00 | 0.00 | 44 | 1012.0 |
| 20260906210725 | 36 | 130 | 6.4 | 20.9 | 0.00 | 0.00 | 0.00 | 43 | 1012.0 |
| 20260906210624 | 36 | 97 | 9.7 | 20.9 | 0.00 | 0.00 | 0.00 | 42 | 1012.0 |
| 20260906210522 | 37 | 99 | 9.7 | 20.9 | 0.00 | 0.00 | 0.00 | 43 | 1012.1 |
| 20260906210415 | 36 | 172 | 9.7 | 20.9 | 0.00 | 0.00 | 0.00 | 43 | 1012.0 |
| 20260906210331 | 36 | 128 | 9.7 | 20.9 | 0.00 | 0.00 | 0.00 | 43 | 1012.1 |
| 20260906210312 | 36 | 166 | 11.3 | 20.9 | 0.00 | 0.00 | 0.00 | 44 | 1012.1 |
| 20260906210211 | 36 | 144 | 11.3 | 20.9 | 0.00 | 0.00 | 0.00 | 43 | 1012.1 |
| 20260906210111 | 36 | 159 | 12.9 | 20.9 | 0.00 | 0.00 | 0.00 | 43 | 1012.1 |
| 20260906210010 | 36 | 161 | 12.9 | 20.9 | 0.00 | 0.00 | 0.00 | 43 | 1012.1 |
| 20260906205907 | 37 | 164 | 9.7 | 20.9 | 0.00 | 0.00 | 0.00 | 42 | 1012.1 |
| 20260906205832 | 37 | 159 | 9.7 | 20.9 | 0.00 | 0.00 | 0.00 | 43 | 1012.1 |
| 20260906205805 | 37 | 162 | 9.7 | 20.9 | 0.00 | 0.00 | 0.00 | 43 | 1012.1 |
| 20260906205705 | 37 | 141 | 11.3 | 20.9 | 0.00 | 0.00 | 0.00 | 42 | 1012.1 |
| 20260906205605 | 37 | 130 | 11.3 | 20.9 | 0.00 | 0.00 | 0.00 | 42 | 1012.2 |
| 20260906205504 | 37 | 145 | 11.3 | 20.9 | 0.00 | 0.00 | 0.00 | 43 | 1012.1 |
| 20260906205404 | 37 | 168 | 9.7 | 16.1 | 0.00 | 0.00 | 0.00 | 42 | 1012.2 |
| 20260906205332 | 37 | 123 | 9.7 | 19.3 | 0.00 | 0.00 | 0.00 | 44 | 1012.2 |
| 20260906205306 | 37 | 165 | 8.0 | 19.3 | 0.00 | 0.00 | 0.00 | 44 | 1012.2 |
| 20260906205205 | 37 | 157 | 6.4 | 19.3 | 0.00 | 0.00 | 0.00 | 42 | 1012.1 |
| 20260906205105 | 37 | 93 | 6.4 | 19.3 | 0.00 | 0.00 | 0.00 | 42 | 1012.2 |
| 20260906205006 | 37 | 147 | 6.4 | 19.3 | 0.00 | 0.00 | 0.00 | 42 | 1012.2 |
| 20260906204903 | 37 | 142 | 8.0 | 19.3 | 0.00 | 0.00 | 0.00 | 42 | 1012.3 |
| 20260906204832 | 37 | 157 | 6.4 | 19.3 | 0.00 | 0.00 | 0.00 | 42 | 1012.4 |
| 20260906204803 | 37 | 137 | 8.0 | 19.3 | 0.00 | 0.00 | 0.00 | 43 | 1012.4 |
| 20260906204702 | 37 | 155 | 8.0 | 19.3 | 0.00 | 0.00 | 0.00 | 42 | 1012.3 |
| 20260906204604 | 37 | 127 | 11.3 | 19.3 | 0.00 | 0.00 | 0.00 | 42 | 1012.3 |
| 20260906204504 | 37 | 142 | 11.3 | 19.3 | 0.00 | 0.00 | 0.00 | 43 | 1012.3 |
| 20260906204403 | 37 | 117 | 11.3 | 19.3 | 0.00 | 0.00 | 0.00 | 43 | 1012.3 |
| 20260906204329 | 37 | 155 | 11.3 | 19.3 | 0.00 | 0.00 | 0.00 | 44 | 1012.3 |
| 20260906204303 | 36 | 151 | 12.9 | 19.3 | 0.00 | 0.00 | 0.00 | 44 | 1012.3 |
| 20260906204202 | 36 | 128 | 11.3 | 20.9 | 0.00 | 0.00 | 0.00 | 43 | 1012.4 |
| 20260906204102 | 36 | 159 | 8.0 | 20.9 | 0.00 | 0.00 | 0.00 | 44 | 1012.4 |
| 20260906204002 | 36 | 190 | 8.0 | 20.9 | 0.00 | 0.00 | 0.00 | 43 | 1012.4 |
| 20260906203903 | 37 | 183 | 8.0 | 20.9 | 0.00 | 0.00 | 0.00 | 42 | 1012.4 |
| 20260906203829 | 37 | 185 | 8.0 | 20.9 | 0.00 | 0.00 | 0.00 | 43 | 1012.4 |
| 20260906203805 | 37 | 161 | 9.7 | 20.9 | 0.00 | 0.00 | 0.00 | 43 | 1012.4 |
| 20260906203703 | 37 | 159 | 12.9 | 20.9 | 0.00 | 0.00 | 0.00 | 42 | 1012.4 |
| 20260906203602 | 37 | 118 | 12.9 | 20.9 | 0.00 | 0.00 | 0.00 | 42 | 1012.4 |
| 20260906203503 | 37 | 127 | 14.5 | 20.9 | 0.00 | 0.00 | 0.00 | 42 | 1012.4 |
| 20260906203402 | 37 | 178 | 11.3 | 20.9 | 0.00 | 0.00 | 0.00 | 42 | 1012.4 |
| 20260906203327 | 37 | 106 | 9.7 | 20.9 | 0.00 | 0.00 | 0.00 | 42 | 1012.5 |
| 20260906203303 | 37 | 121 | 8.0 | 20.9 | 0.00 | 0.00 | 0.00 | 42 | 1012.5 |
| 20260906203203 | 37 | 151 | 4.8 | 16.1 | 0.00 | 0.00 | 0.00 | 42 | 1012.4 |
| 20260906203103 | 37 | 144 | 4.8 | 19.3 | 0.00 | 0.00 | 0.00 | 43 | 1012.4 |
| 20260906203002 | 37 | 141 | 6.4 | 19.3 | 0.00 | 0.00 | 0.00 | 43 | 1012.5 |
| 20260906202903 | 37 | 134 | 6.4 | 19.3 | 0.00 | 0.00 | 0.00 | 43 | 1012.5 |
| 20260906202822 | 37 | 179 | 6.4 | 19.3 | 0.00 | 0.00 | 0.00 | 42 | 1012.5 |
| 20260906202803 | 37 | 199 | 6.4 | 19.3 | 0.00 | 0.00 | 0.00 | 42 | 1012.5 |
| 20260906202704 | 37 | 199 | 6.4 | 19.3 | 0.00 | 0.00 | 0.00 | 42 | 1012.5 |
| 20260906202602 | 37 | 179 | 8.0 | 19.3 | 0.00 | 0.00 | 0.00 | 41 | 1012.5 |
| 20260906202503 | 37 | 144 | 11.3 | 19.3 | 0.00 | 0.00 | 0.00 | 42 | 1012.5 |
| 20260906202404 | 37 | 151 | 11.3 | 19.3 | 0.00 | 0.00 | 0.00 | 42 | 1012.6 |
| 20260906202306 | 37 | 123 | 12.9 | 19.3 | 0.00 | 0.00 | 0.00 | 42 | 1012.5 |
| 20260906202203 | 37 | 137 | 12.9 | 19.3 | 0.00 | 0.00 | 0.00 | 42 | 1012.6 |
| 20260906202100 | 37 | 124 | 9.7 | 19.3 | 0.00 | 0.00 | 0.00 | 42 | 1012.6 |
| 20260906202001 | 37 | 114 | 11.3 | 19.3 | 0.00 | 0.00 | 0.00 | 43 | 1012.6 |
| 20260906201858 | 37 | 140 | 9.7 | 19.3 | 0.00 | 0.00 | 0.00 | 43 | 1012.6 |
| 20260906201806 | 37 | 127 | 6.4 | 19.3 | 0.00 | 0.00 | 0.00 | 43 | 1012.6 |
| 20260906201750 | 37 | 94 | 6.4 | 19.3 | 0.00 | 0.00 | 0.00 | 43 | 1012.6 |
| 20260906201649 | 37 | 121 | 4.8 | 19.3 | 0.00 | 0.00 | 0.00 | 44 | 1012.6 |
| 20260906201550 | 36 | 130 | 3.2 | 19.3 | 0.00 | 0.00 | 0.00 | 44 | 1012.6 |
| 20260906201446 | 36 | 130 | 6.4 | 19.3 | 0.00 | 0.00 | 0.00 | 45 | 1012.6 |
| 20260906201419 | 37 | 145 | 8.0 | 19.3 | 0.00 | 0.00 | 0.00 | 44 | 1012.9 |
| 20260906201410 | 36 | 140 | 12.9 | 19.3 | 0.00 | 0.00 | 0.00 | 45 | 1012.8 |
| 20260906201403 | 36 | 130 | 8.0 | 17.7 | 0.00 | 0.00 | 0.00 | 46 | 1012.7 |
| 20260906201351 | 36 | 93 | 9.7 | 20.9 | 0.00 | 0.00 | 0.00 | 44 | 1012.6 |
| 20260906201330 | 36 | 149 | 11.3 | 20.9 | 0.00 | 0.00 | 0.00 | 44 | 1012.6 |
| 20260906201315 | 36 | 176 | 11.3 | 20.9 | 0.00 | 0.00 | 0.00 | 43 | 1012.6 |
| 20260906201246 | 36 | 138 | 9.7 | 20.9 | 0.00 | 0.00 | 0.00 | 45 | 1012.7 |
| 20260906201217 | 36 | 180 | 8.0 | 20.9 | 0.00 | 0.00 | 0.00 | 46 | 1012.7 |
| 20260906200942 | 36 | 35 | 8.0 | 20.9 | 0.00 | 0.00 | 0.00 | 44 | 1012.7 |
| 20260906200914 | 37 | 141 | 8.0 | 20.9 | 0.00 | 0.00 | 0.00 | 44 | 1012.8 |
| 20260906200857 | 37 | 123 | 9.7 | 20.9 | 0.00 | 0.00 | 0.00 | 44 | 1012.7 |
| 20260906200842 | 37 | 120 | 9.7 | 20.9 | 0.00 | 0.00 | 0.00 | 43 | 1012.7 |
| 20260906200817 | 37 | 130 | 11.3 | 20.9 | 0.00 | 0.00 | 0.00 | 45 | 1012.7 |
| 20260906200742 | 37 | 128 | 11.3 | 20.9 | 0.00 | 0.00 | 0.00 | 44 | 1012.7 |
| 20260906200710 | 37 | 154 | 11.3 | 20.9 | 0.00 | 0.00 | 0.00 | 44 | 1012.7 |
| 20260906200641 | 36 | 152 | 9.7 | 16.1 | 0.00 | 0.00 | 0.00 | 46 | 1012.7 |
| 20260906200403 | 36 | 164 | 6.4 | 17.7 | 0.00 | 0.00 | 0.00 | 46 | 1012.7 |
| 20260906200339 | 36 | 138 | 6.4 | 19.3 | 0.00 | 0.00 | 0.00 | 46 | 1012.7 |
| 20260906200309 | 36 | 117 | 6.4 | 19.3 | 0.00 | 0.00 | 0.00 | 45 | 1012.8 |
| 20260906200244 | 36 | 158 | 6.4 | 19.3 | 0.00 | 0.00 | 0.00 | 45 | 1012.8 |
| 20260906200212 | 36 | 134 | 8.0 | 19.3 | 0.00 | 0.00 | 0.00 | 45 | 1012.9 |
| 20260906195936 | 37 | 172 | 8.0 | 19.3 | 0.00 | 0.00 | 0.00 | 46 | 1012.9 |
| 20260906195658 | 36 | 127 | 8.0 | 19.3 | 0.00 | 0.00 | 0.00 | 45 | 1012.9 |
| 20260906195628 | 36 | 121 | 9.7 | 19.3 | 0.00 | 0.00 | 0.00 | 45 | 1012.9 |
| 20260906195600 | 36 | 127 | 9.7 | 19.3 | 0.00 | 0.00 | 0.00 | 46 | 1012.9 |
| 20260906195528 | 36 | 118 | 12.9 | 19.3 | 0.00 | 0.00 | 0.00 | 45 | 1012.9 |
| 20260906195237 | 36 | 125 | 14.5 | 19.3 | 0.00 | 0.00 | 0.00 | 45 | 1012.8 |
| 20260906195138 | 36 | 133 | 11.3 | 19.3 | 0.00 | 0.00 | 0.00 | 46 | 1012.8 |
| 20260906195036 | 36 | 110 | 9.7 | 20.9 | 0.00 | 0.00 | 0.00 | 46 | 1012.9 |
| 20260906194938 | 36 | 169 | 9.7 | 20.9 | 0.00 | 0.00 | 0.00 | 46 | 1012.9 |
| 20260906194836 | 36 | 134 | 8.0 | 20.9 | 0.00 | 0.00 | 0.00 | 47 | 1013.0 |
| 20260906194807 | 36 | 106 | 4.8 | 20.9 | 0.00 | 0.00 | 0.00 | 48 | 1013.0 |
| 20260906194737 | 36 | 107 | 3.2 | 20.9 | 0.00 | 0.00 | 0.00 | 48 | 1013.0 |
| 20260906194712 | 36 | 130 | 11.3 | 20.9 | 0.00 | 0.00 | 0.00 | 46 | 1013.0 |
| 20260906194653 | 36 | 104 | 1.6 | 20.9 | 0.00 | 0.00 | 0.00 | 48 | 1012.9 |
| 20260906194622 | 35 | 111 | 4.8 | 20.9 | 0.00 | 0.00 | 0.00 | 47 | 1013.0 |
| 20260906194554 | 36 | 73 | 8.0 | 20.9 | 0.00 | 0.00 | 0.00 | 47 | 1013.0 |
| 20260906194525 | 36 | 151 | 9.7 | 20.9 | 0.00 | 0.00 | 0.00 | 46 | 1013.0 |
| 20260906194232 | 36 | 121 | 12.9 | 20.9 | 0.00 | 0.00 | 0.00 | 46 | 1013.1 |
| 20260906194207 | 36 | 135 | 6.4 | 16.1 | 0.00 | 0.00 | 0.00 | 47 | 1013.0 |
| 20260906194146 | 36 | 140 | 12.9 | 20.9 | 0.00 | 0.00 | 0.00 | 46 | 1012.9 |
| 20260906194116 | 36 | 144 | 9.7 | 17.7 | 0.00 | 0.00 | 0.00 | 46 | 1013.0 |
| 20260906194047 | 36 | 123 | 8.0 | 16.1 | 0.00 | 0.00 | 0.00 | 46 | 1013.0 |
| 20260906194018 | 36 | 125 | 6.4 | 16.1 | 0.00 | 0.00 | 0.00 | 46 | 1013.0 |
| 20260906193715 | 36 | 121 | 6.4 | 16.1 | 0.00 | 0.00 | 0.00 | 47 | 1013.0 |
| 20260906193614 | 36 | 171 | 8.0 | 16.1 | 0.00 | 0.00 | 0.00 | 46 | 1013.0 |
| 20260906193512 | 36 | 180 | 8.0 | 16.1 | 0.00 | 0.00 | 0.00 | 46 | 1013.0 |
| 20260906193409 | 36 | 154 | 6.4 | 11.3 | 0.00 | 0.00 | 0.00 | 46 | 1013.0 |
| 20260906193310 | 36 | 192 | 4.8 | 11.3 | 0.00 | 0.00 | 0.00 | 47 | 1013.1 |
| 20260906193303 | 36 | 151 | 4.8 | 11.3 | 0.00 | 0.00 | 0.00 | 46 | 1013.1 |
| 20260906193206 | 36 | 125 | 6.4 | 16.1 | 0.00 | 0.00 | 0.00 | 47 | 1013.3 |
| 20260906193129 | 36 | 152 | 9.7 | 16.1 | 0.00 | 0.00 | 0.00 | 47 | 1013.3 |
| 20260906193117 | 36 | 125 | 6.4 | 16.1 | 0.00 | 0.00 | 0.00 | 47 | 1013.1 |
| 20260906193047 | 36 | 145 | 8.0 | 16.1 | 0.00 | 0.00 | 0.00 | 47 | 1013.1 |
| 20260906193017 | 36 | 138 | 6.4 | 16.1 | 0.00 | 0.00 | 0.00 | 48 | 1013.1 |
| 20260906192949 | 36 | 192 | 4.8 | 16.1 | 0.00 | 0.00 | 0.00 | 47 | 1013.1 |
| 20260906192942 | 36 | 189 | 4.8 | 16.1 | 0.00 | 0.00 | 0.00 | 47 | 1013.1 |
| 20260906192704 | 36 | 158 | 3.2 | 16.1 | 0.00 | 0.00 | 0.00 | 47 | 1013.1 |
| 20260906192634 | 36 | 120 | 6.4 | 16.1 | 0.00 | 0.00 | 0.00 | 48 | 1013.1 |
| 20260906192605 | 36 | 137 | 8.0 | 16.1 | 0.00 | 0.00 | 0.00 | 47 | 1013.1 |
| 20260906192534 | 36 | 114 | 9.7 | 16.1 | 0.00 | 0.00 | 0.00 | 47 | 1013.3 |
| 20260906192251 | 36 | 141 | 9.7 | 16.1 | 0.00 | 0.00 | 0.00 | 48 | 1013.3 |
| 20260906192148 | 36 | 142 | 9.7 | 16.1 | 0.00 | 0.00 | 0.00 | 48 | 1013.3 |
| 20260906192047 | 35 | 89 | 9.7 | 16.1 | 0.00 | 0.00 | 0.00 | 48 | 1013.4 |
| 20260906192021 | 36 | 171 | 6.4 | 19.3 | 0.00 | 0.00 | 0.00 | 47 | 1013.7 |
| 20260906192014 | 36 | 196 | 6.4 | 20.9 | 0.00 | 0.00 | 0.00 | 47 | 1013.5 |
| 20260906192000 | 35 | 117 | 8.0 | 14.5 | 0.00 | 0.00 | 0.00 | 49 | 1013.4 |
| 20260906191930 | 35 | 141 | 6.4 | 14.5 | 0.00 | 0.00 | 0.00 | 48 | 1013.4 |
| 20260906191910 | 35 | 166 | 6.4 | 14.5 | 0.00 | 0.00 | 0.00 | 49 | 1013.3 |
| 20260906191858 | 35 | 165 | 6.4 | 14.5 | 0.00 | 0.00 | 0.00 | 49 | 1013.3 |
| 20260906191830 | 35 | 142 | 8.0 | 16.1 | 0.00 | 0.00 | 0.00 | 49 | 1013.4 |
| 20260906191758 | 35 | 164 | 6.4 | 20.9 | 0.00 | 0.00 | 0.00 | 48 | 1013.3 |
| 20260906191727 | 35 | 124 | 6.4 | 20.9 | 0.00 | 0.00 | 0.00 | 48 | 1013.5 |
| 20260906191656 | 35 | 188 | 6.4 | 20.9 | 0.00 | 0.00 | 0.00 | 48 | 1013.4 |
| 20260906191421 | 36 | 179 | 6.4 | 20.9 | 0.00 | 0.00 | 0.00 | 47 | 1013.5 |
| 20260906191143 | 36 | 135 | 6.4 | 20.9 | 0.00 | 0.00 | 0.00 | 47 | 1013.5 |
| 20260906191113 | 36 | 131 | 6.4 | 20.9 | 0.00 | 0.00 | 0.00 | 47 | 1013.5 |
| 20260906191043 | 36 | 133 | 8.0 | 20.9 | 0.00 | 0.00 | 0.00 | 46 | 1013.6 |
| 20260906191014 | 36 | 38 | 11.3 | 20.9 | 0.00 | 0.00 | 0.00 | 47 | 1013.5 |
| 20260906190947 | 36 | 120 | 11.3 | 20.9 | 0.00 | 0.00 | 0.00 | 47 | 1013.5 |
| 20260906190937 | 36 | 133 | 11.3 | 20.9 | 0.00 | 0.00 | 0.00 | 47 | 1013.6 |
| 20260906190658 | 36 | 131 | 9.7 | 20.9 | 0.00 | 0.00 | 0.00 | 47 | 1013.5 |
| 20260906190629 | 36 | 130 | 8.0 | 14.5 | 0.00 | 0.00 | 0.00 | 47 | 1013.5 |
| 20260906190546 | 36 | 147 | 6.4 | 14.5 | 0.00 | 0.00 | 0.00 | 48 | 1013.6 |
| 20260906190517 | 36 | 144 | 6.4 | 19.3 | 0.00 | 0.00 | 0.00 | 47 | 1013.7 |
| 20260906190234 | 36 | 183 | 6.4 | 19.3 | 0.00 | 0.00 | 0.00 | 47 | 1013.5 |
| 20260906190133 | 36 | 142 | 8.0 | 24.1 | 0.00 | 0.00 | 0.00 | 48 | 1013.5 |
| 20260906190033 | 36 | 141 | 6.4 | 24.1 | 0.00 | 0.00 | 0.00 | 45 | 1013.5 |
| 20260906185932 | 36 | 135 | 3.2 | 24.1 | 0.00 | 0.00 | 0.00 | 47 | 1013.6 |
| 20260906185834 | 36 | 124 | 4.8 | 24.1 | 0.00 | 0.00 | 0.00 | 47 | 1013.6 |
| 20260906185748 | 36 | 149 | 6.4 | 24.1 | 0.00 | 0.00 | 0.00 | 46 | 1013.6 |
| 20260906185733 | 36 | 72 | 6.4 | 24.1 | 0.00 | 0.00 | 0.00 | 46 | 1013.6 |
| 20260906185633 | 36 | 137 | 8.0 | 24.1 | 0.00 | 0.00 | 0.00 | 48 | 1013.7 |
| 20260906185533 | 36 | 130 | 11.3 | 24.1 | 0.00 | 0.00 | 0.00 | 48 | 1013.7 |
| 20260906185434 | 36 | 131 | 12.9 | 24.1 | 0.00 | 0.00 | 0.00 | 47 | 1013.6 |
| 20260906185332 | 36 | 157 | 14.5 | 24.1 | 0.00 | 0.00 | 0.00 | 47 | 1013.6 |
| 20260906185247 | 36 | 179 | 14.5 | 24.1 | 0.00 | 0.00 | 0.00 | 48 | 1013.6 |
| 20260906185233 | 36 | 144 | 12.9 | 24.1 | 0.00 | 0.00 | 0.00 | 48 | 1013.5 |
| 20260906185134 | 36 | 155 | 11.3 | 20.9 | 0.00 | 0.00 | 0.00 | 48 | 1013.6 |
| 20260906185032 | 36 | 164 | 11.3 | 20.9 | 0.00 | 0.00 | 0.00 | 48 | 1013.6 |
| 20260906184933 | 36 | 137 | 9.7 | 20.9 | 0.00 | 0.00 | 0.00 | 48 | 1013.7 |
| 20260906184833 | 36 | 178 | 8.0 | 20.9 | 0.00 | 0.00 | 0.00 | 50 | 1013.6 |
| 20260906184747 | 36 | 196 | 8.0 | 20.9 | 0.00 | 0.00 | 0.00 | 49 | 1013.6 |
| 20260906184733 | 36 | 197 | 9.7 | 20.9 | 0.00 | 0.00 | 0.00 | 49 | 1013.7 |
| 20260906184641 | 36 | 162 | 12.9 | 20.9 | 0.00 | 0.00 | 0.00 | 47 | 1013.7 |
| 20260906184635 | 36 | 182 | 9.7 | 20.9 | 0.00 | 0.00 | 0.00 | 48 | 1013.8 |
| 20260906184607 | 36 | 168 | 9.7 | 20.9 | 0.00 | 0.00 | 0.00 | 49 | 1013.7 |
| 20260906184538 | 36 | 144 | 11.3 | 20.9 | 0.00 | 0.00 | 0.00 | 48 | 1013.7 |
| 20260906184511 | 36 | 168 | 12.9 | 20.9 | 0.00 | 0.00 | 0.00 | 47 | 1013.7 |
| 20260906184232 | 36 | 183 | 11.3 | 20.9 | 0.00 | 0.00 | 0.00 | 48 | 1013.8 |
| 20260906184145 | 36 | 188 | 8.0 | 17.7 | 0.00 | 0.00 | 0.00 | 47 | 1013.7 |
| 20260906184137 | 36 | 165 | 9.7 | 17.7 | 0.00 | 0.00 | 0.00 | 48 | 1013.7 |
| 20260906184108 | 36 | 131 | 9.7 | 17.7 | 0.00 | 0.00 | 0.00 | 47 | 1013.8 |
| 20260906184037 | 36 | 133 | 8.0 | 17.7 | 0.00 | 0.00 | 0.00 | 47 | 1013.7 |
| 20260906184007 | 36 | 137 | 8.0 | 17.7 | 0.00 | 0.00 | 0.00 | 47 | 1013.7 |
| 20260906183718 | 36 | 144 | 8.0 | 17.7 | 0.00 | 0.00 | 0.00 | 48 | 1013.8 |
| 20260906183615 | 36 | 157 | 9.7 | 17.7 | 0.00 | 0.00 | 0.00 | 48 | 1013.8 |
| 20260906183516 | 36 | 114 | 11.3 | 17.7 | 0.00 | 0.00 | 0.00 | 47 | 1013.8 |
| 20260906183414 | 36 | 118 | 9.7 | 20.9 | 0.00 | 0.00 | 0.00 | 49 | 1013.8 |
| 20260906183314 | 36 | 155 | 8.0 | 20.9 | 0.00 | 0.00 | 0.00 | 48 | 1013.8 |
| 20260906183239 | 36 | 145 | 8.0 | 20.9 | 0.00 | 0.00 | 0.00 | 48 | 1013.8 |
| 20260906183210 | 36 | 135 | 8.0 | 20.9 | 0.00 | 0.00 | 0.00 | 48 | 1013.8 |
| 20260906183110 | 36 | 135 | 8.0 | 20.9 | 0.00 | 0.00 | 0.00 | 47 | 1013.8 |
| 20260906183009 | 36 | 90 | 6.4 | 20.9 | 0.00 | 0.00 | 0.00 | 47 | 1013.9 |
| 20260906182906 | 36 | 103 | 3.2 | 24.1 | 0.00 | 0.00 | 0.00 | 48 | 1013.9 |
| 20260906182808 | 36 | 90 | 4.8 | 24.1 | 0.00 | 0.00 | 0.00 | 49 | 1013.9 |
| 20260906182740 | 36 | 172 | 6.4 | 24.1 | 0.00 | 0.00 | 0.00 | 49 | 1013.9 |
| 20260906182706 | 36 | 159 | 9.7 | 24.1 | 0.00 | 0.00 | 0.00 | 48 | 1013.9 |
| 20260906182606 | 36 | 111 | 9.7 | 24.1 | 0.00 | 0.00 | 0.00 | 48 | 1014.0 |
| 20260906182506 | 36 | 149 | 6.4 | 24.1 | 0.00 | 0.00 | 0.00 | 49 | 1014.0 |
| 20260906182407 | 36 | 141 | 4.8 | 24.1 | 0.00 | 0.00 | 0.00 | 48 | 1014.0 |
| 20260906182306 | 36 | 148 | 6.4 | 24.1 | 0.00 | 0.00 | 0.00 | 48 | 1014.0 |
| 20260906182239 | 36 | 135 | 6.4 | 24.1 | 0.00 | 0.00 | 0.00 | 48 | 1014.0 |
| 20260906182207 | 36 | 127 | 8.0 | 24.1 | 0.00 | 0.00 | 0.00 | 48 | 1014.0 |
| 20260906182106 | 36 | 116 | 9.7 | 24.1 | 0.00 | 0.00 | 0.00 | 49 | 1014.1 |
| 20260906182005 | 36 | 127 | 9.7 | 24.1 | 0.00 | 0.00 | 0.00 | 49 | 1014.0 |
| 20260906181932 | 36 | 142 | 8.0 | 19.3 | 0.00 | 0.00 | 0.00 | 48 | 1014.0 |
| 20260906181802 | 36 | 155 | 8.0 | 19.3 | 0.00 | 0.00 | 0.00 | 49 | 1014.0 |
| 20260906181739 | 36 | 104 | 9.7 | 19.3 | 0.00 | 0.00 | 0.00 | 49 | 1014.0 |
| 20260906181700 | 36 | 107 | 8.0 | 19.3 | 0.00 | 0.00 | 0.00 | 49 | 1014.0 |
| 20260906181558 | 35 | 149 | 6.4 | 19.3 | 0.00 | 0.00 | 0.00 | 49 | 1014.0 |
| 20260906181456 | 35 | 134 | 4.8 | 16.1 | 0.00 | 0.00 | 0.00 | 49 | 1014.0 |
| 20260906181355 | 35 | 107 | 6.4 | 16.1 | 0.00 | 0.00 | 0.00 | 50 | 1014.1 |
| 20260906181254 | 35 | 125 | 8.0 | 16.1 | 0.00 | 0.00 | 0.00 | 49 | 1014.2 |
| 20260906181238 | 35 | 140 | 8.0 | 16.1 | 0.00 | 0.00 | 0.00 | 49 | 1014.2 |
| 20260906181152 | 35 | 73 | 9.7 | 19.3 | 0.00 | 0.00 | 0.00 | 49 | 1014.1 |
| 20260906181050 | 35 | 147 | 8.0 | 19.3 | 0.00 | 0.00 | 0.00 | 50 | 1014.2 |
| 20260906180947 | 35 | 78 | 6.4 | 19.3 | 0.00 | 0.00 | 0.00 | 50 | 1014.2 |
| 20260906180846 | 35 | 4 | 6.4 | 19.3 | 0.00 | 0.00 | 0.00 | 50 | 1014.1 |
| 20260906180745 | 35 | 120 | 8.0 | 19.3 | 0.00 | 0.00 | 0.00 | 50 | 1014.2 |
| 20260906180736 | 35 | 111 | 8.0 | 19.3 | 0.00 | 0.00 | 0.00 | 50 | 1014.2 |
| 20260906180643 | 35 | 85 | 11.3 | 19.3 | 0.00 | 0.00 | 0.00 | 49 | 1014.1 |
| 20260906180541 | 35 | 209 | 9.7 | 19.3 | 0.00 | 0.00 | 0.00 | 49 | 1014.1 |
| 20260906180437 | 35 | 140 | 9.7 | 19.3 | 0.00 | 0.00 | 0.00 | 49 | 1014.3 |
| 20260906180337 | 35 | 151 | 9.7 | 19.3 | 0.00 | 0.00 | 0.00 | 50 | 1014.2 |
| 20260906180237 | 35 | 131 | 6.4 | 19.3 | 0.00 | 0.00 | 0.00 | 50 | 1014.3 |
| 20260906180138 | 35 | 116 | 6.4 | 17.7 | 0.00 | 0.00 | 0.00 | 50 | 1014.2 |
| 20260906180035 | 35 | 135 | 8.0 | 17.7 | 0.00 | 0.00 | 0.00 | 51 | 1014.3 |
| 20260906175936 | 35 | 111 | 6.4 | 17.7 | 0.00 | 0.00 | 0.00 | 51 | 1014.3 |
| 20260906175834 | 35 | 141 | 6.4 | 17.7 | 0.00 | 0.00 | 0.00 | 50 | 1014.3 |
| 20260906175739 | 35 | 134 | 8.0 | 17.7 | 0.00 | 0.00 | 0.00 | 51 | 1014.3 |
| 20260906175735 | 35 | 134 | 8.0 | 17.7 | 0.00 | 0.00 | 0.00 | 51 | 1014.4 |
| 20260906175634 | 35 | 197 | 11.3 | 17.7 | 0.00 | 0.00 | 0.00 | 50 | 1014.5 |
| 20260906175533 | 35 | 141 | 9.7 | 17.7 | 0.00 | 0.00 | 0.00 | 50 | 1014.3 |
| 20260906175434 | 35 | 137 | 4.8 | 16.1 | 0.00 | 0.00 | 0.00 | 51 | 1014.4 |
| 20260906175334 | 35 | 117 | 4.8 | 17.7 | 0.00 | 0.00 | 0.00 | 51 | 1014.4 |
| 20260906175234 | 35 | 326 | 4.8 | 17.7 | 0.00 | 0.00 | 0.00 | 51 | 1014.4 |
| 20260906175135 | 35 | 39 | 3.2 | 17.7 | 0.00 | 0.00 | 0.00 | 51 | 1014.4 |
| 20260906175034 | 35 | 137 | 4.8 | 17.7 | 0.00 | 0.00 | 0.00 | 51 | 1014.5 |
| 20260906174933 | 35 | 0 | 4.8 | 17.7 | 0.00 | 0.00 | 0.00 | 51 | 1014.5 |
| 20260906174833 | 35 | 137 | 4.8 | 17.7 | 0.00 | 0.00 | 0.00 | 52 | 1014.5 |
| 20260906174738 | 35 | 135 | 8.0 | 17.7 | 0.00 | 0.00 | 0.00 | 50 | 1014.5 |
| 20260906174732 | 35 | 135 | 8.0 | 17.7 | 0.00 | 0.00 | 0.00 | 50 | 1014.4 |
| 20260906174632 | 35 | 168 | 9.7 | 17.7 | 0.00 | 0.00 | 0.00 | 51 | 1014.5 |
| 20260906174531 | 35 | 144 | 11.3 | 17.7 | 0.00 | 0.00 | 0.00 | 50 | 1014.5 |
| 20260906174432 | 35 | 131 | 9.7 | 17.7 | 0.00 | 0.00 | 0.00 | 50 | 1014.6 |
| 20260906174331 | 35 | 133 | 8.0 | 17.7 | 0.00 | 0.00 | 0.00 | 51 | 1014.6 |
| 20260906174236 | 35 | 97 | 6.4 | 17.7 | 0.00 | 0.00 | 0.00 | 51 | 1014.6 |
| 20260906174231 | 35 | 97 | 6.4 | 17.7 | 0.00 | 0.00 | 0.00 | 51 | 1014.5 |
| 20260906174131 | 35 | 121 | 6.4 | 17.7 | 0.00 | 0.00 | 0.00 | 51 | 1014.6 |
| 20260906174031 | 35 | 114 | 8.0 | 17.7 | 0.00 | 0.00 | 0.00 | 50 | 1014.7 |
| 20260906173933 | 35 | 154 | 11.3 | 17.7 | 0.00 | 0.00 | 0.00 | 50 | 1014.6 |
| 20260906173831 | 35 | 135 | 11.3 | 17.7 | 0.00 | 0.00 | 0.00 | 51 | 1014.6 |
| 20260906173738 | 35 | 138 | 9.7 | 16.1 | 0.00 | 0.00 | 0.00 | 51 | 1014.6 |
| 20260906173731 | 35 | 127 | 9.7 | 16.1 | 0.00 | 0.00 | 0.00 | 51 | 1014.7 |
| 20260906173631 | 35 | 190 | 8.0 | 16.1 | 0.00 | 0.00 | 0.00 | 51 | 1014.7 |
| 20260906173528 | 35 | 125 | 6.4 | 16.1 | 0.00 | 0.00 | 0.00 | 52 | 1014.7 |
| 20260906173428 | 35 | 137 | 6.4 | 16.1 | 0.00 | 0.00 | 0.00 | 51 | 1014.7 |
| 20260906173325 | 35 | 158 | 8.0 | 16.1 | 0.00 | 0.00 | 0.00 | 51 | 1014.8 |
| 20260906173235 | 35 | 94 | 9.7 | 16.1 | 0.00 | 0.00 | 0.00 | 52 | 1014.8 |
| 20260906173224 | 35 | 144 | 9.7 | 16.1 | 0.00 | 0.00 | 0.00 | 52 | 1014.8 |
| 20260906173120 | 35 | 133 | 8.0 | 16.1 | 0.00 | 0.00 | 0.00 | 52 | 1014.7 |
| 20260906173019 | 35 | 154 | 8.0 | 19.3 | 0.00 | 0.00 | 0.00 | 51 | 1014.8 |
| 20260906172918 | 35 | 89 | 8.0 | 19.3 | 0.00 | 0.00 | 0.00 | 51 | 1014.8 |
| 20260906172815 | 35 | 147 | 8.0 | 19.3 | 0.00 | 0.00 | 0.00 | 52 | 1014.9 |
| 20260906172735 | 35 | 142 | 8.0 | 19.3 | 0.00 | 0.00 | 0.00 | 53 | 1014.9 |
| 20260906172715 | 35 | 133 | 8.0 | 19.3 | 0.00 | 0.00 | 0.00 | 52 | 1014.8 |
| 20260906172609 | 35 | 151 | 9.7 | 19.3 | 0.00 | 0.00 | 0.00 | 52 | 1014.9 |
| 20260906172510 | 35 | 151 | 9.7 | 19.3 | 0.00 | 0.00 | 0.00 | 51 | 1014.9 |
| 20260906172406 | 35 | 133 | 6.4 | 19.3 | 0.00 | 0.00 | 0.00 | 51 | 1014.8 |
| 20260906172306 | 35 | 169 | 8.0 | 19.3 | 0.00 | 0.00 | 0.00 | 52 | 1014.8 |
| 20260906172233 | 35 | 212 | 9.7 | 19.3 | 0.00 | 0.00 | 0.00 | 52 | 1014.8 |
| 20260906172204 | 35 | 94 | 11.3 | 19.3 | 0.00 | 0.00 | 0.00 | 51 | 1014.9 |
| 20260906172104 | 35 | 141 | 11.3 | 19.3 | 0.00 | 0.00 | 0.00 | 51 | 1014.9 |
| 20260906172006 | 35 | 171 | 6.4 | 17.7 | 0.00 | 0.00 | 0.00 | 53 | 1014.8 |
| 20260906171905 | 35 | 145 | 8.0 | 17.7 | 0.00 | 0.00 | 0.00 | 52 | 1014.9 |
| 20260906171802 | 34 | 93 | 9.7 | 17.7 | 0.00 | 0.00 | 0.00 | 51 | 1014.8 |
| 20260906171732 | 34 | 120 | 8.0 | 17.7 | 0.00 | 0.00 | 0.00 | 52 | 1014.8 |
| 20260906171701 | 34 | 52 | 9.7 | 17.7 | 0.00 | 0.00 | 0.00 | 52 | 1014.9 |
| 20260906171559 | 34 | 133 | 9.7 | 17.7 | 0.00 | 0.00 | 0.00 | 52 | 1014.8 |
| 20260906171458 | 34 | 138 | 8.0 | 17.7 | 0.00 | 0.00 | 0.00 | 53 | 1014.9 |
| 20260906171356 | 34 | 144 | 9.7 | 17.7 | 0.00 | 0.00 | 0.00 | 52 | 1014.9 |
| 20260906171254 | 34 | 133 | 8.0 | 17.7 | 0.00 | 0.00 | 0.00 | 52 | 1014.9 |
| 20260906171234 | 34 | 186 | 8.0 | 17.7 | 0.00 | 0.00 | 0.00 | 52 | 1014.9 |
| 20260906171153 | 34 | 61 | 8.0 | 17.7 | 0.00 | 0.00 | 0.00 | 52 | 1014.8 |
| 20260906171051 | 34 | 114 | 9.7 | 17.7 | 0.00 | 0.00 | 0.00 | 52 | 1014.9 |
| 20260906170950 | 34 | 152 | 11.3 | 17.7 | 0.00 | 0.00 | 0.00 | 52 | 1014.9 |
| 20260906170848 | 34 | 155 | 11.3 | 17.7 | 0.00 | 0.00 | 0.00 | 53 | 1015.0 |
| 20260906170746 | 34 | 137 | 11.3 | 17.7 | 0.00 | 0.00 | 0.00 | 53 | 1015.0 |
| 20260906170735 | 34 | 151 | 11.3 | 17.7 | 0.00 | 0.00 | 0.00 | 52 | 1015.0 |
| 20260906170645 | 34 | 166 | 9.7 | 16.1 | 0.00 | 0.00 | 0.00 | 53 | 1015.0 |
| 20260906170541 | 34 | 173 | 4.8 | 16.1 | 0.00 | 0.00 | 0.00 | 53 | 1015.0 |
| 20260906170440 | 34 | 131 | 3.2 | 16.1 | 0.00 | 0.00 | 0.00 | 55 | 1015.0 |
| 20260906170338 | 34 | 31 | 6.4 | 16.1 | 0.00 | 0.00 | 0.00 | 53 | 1015.0 |
| 20260906170240 | 34 | 94 | 8.0 | 16.1 | 0.00 | 0.00 | 0.00 | 54 | 1015.0 |
| 20260906170233 | 34 | 111 | 8.0 | 16.1 | 0.00 | 0.00 | 0.00 | 54 | 1015.0 |
| 20260906170137 | 34 | 78 | 11.3 | 16.1 | 0.00 | 0.00 | 0.00 | 53 | 1015.0 |
| 20260906170035 | 34 | 145 | 9.7 | 16.1 | 0.00 | 0.00 | 0.00 | 53 | 1015.0 |
| 20260906165935 | 34 | 128 | 8.0 | 16.1 | 0.00 | 0.00 | 0.00 | 54 | 1015.0 |
| 20260906165834 | 34 | 113 | 8.0 | 16.1 | 0.00 | 0.00 | 0.00 | 53 | 1015.0 |
| 20260906165734 | 34 | 152 | 8.0 | 16.1 | 0.00 | 0.00 | 0.00 | 54 | 1015.1 |
| 20260906165635 | 34 | 157 | 6.4 | 16.1 | 0.00 | 0.00 | 0.00 | 54 | 1015.0 |
| 20260906165533 | 34 | 168 | 8.0 | 16.1 | 0.00 | 0.00 | 0.00 | 54 | 1015.1 |
| 20260906165433 | 34 | 151 | 6.4 | 16.1 | 0.00 | 0.00 | 0.00 | 55 | 1015.1 |
| 20260906165334 | 34 | 179 | 6.4 | 16.1 | 0.00 | 0.00 | 0.00 | 53 | 1015.1 |
| 20260906165235 | 34 | 164 | 9.7 | 16.1 | 0.00 | 0.00 | 0.00 | 54 | 1015.1 |
| 20260906165132 | 34 | 141 | 9.7 | 16.1 | 0.00 | 0.00 | 0.00 | 54 | 1015.1 |
| 20260906165031 | 34 | 148 | 9.7 | 19.3 | 0.00 | 0.00 | 0.00 | 55 | 1015.1 |
| 20260906164931 | 33 | 140 | 6.4 | 19.3 | 0.00 | 0.00 | 0.00 | 55 | 1015.1 |
| 20260906164829 | 33 | 159 | 4.8 | 19.3 | 0.00 | 0.00 | 0.00 | 55 | 1015.1 |
| 20260906164736 | 33 | 110 | 8.0 | 19.3 | 0.00 | 0.00 | 0.00 | 54 | 1015.1 |
| 20260906164729 | 33 | 151 | 8.0 | 19.3 | 0.00 | 0.00 | 0.00 | 54 | 1015.1 |
| 20260906164626 | 33 | 133 | 9.7 | 19.3 | 0.00 | 0.00 | 0.00 | 54 | 1015.0 |
| 20260906164524 | 33 | 114 | 9.7 | 19.3 | 0.00 | 0.00 | 0.00 | 53 | 1015.0 |
| 20260906164425 | 33 | 166 | 9.7 | 19.3 | 0.00 | 0.00 | 0.00 | 54 | 1015.1 |
| 20260906164323 | 33 | 127 | 9.7 | 19.3 | 0.00 | 0.00 | 0.00 | 53 | 1015.1 |
| 20260906164233 | 34 | 193 | 9.7 | 19.3 | 0.00 | 0.00 | 0.00 | 54 | 1015.1 |
| 20260906164220 | 34 | 200 | 9.7 | 19.3 | 0.00 | 0.00 | 0.00 | 54 | 1015.1 |
| 20260906164119 | 34 | 152 | 9.7 | 19.3 | 0.00 | 0.00 | 0.00 | 54 | 1015.1 |
| 20260906164018 | 34 | 114 | 8.0 | 17.7 | 0.00 | 0.00 | 0.00 | 56 | 1015.1 |
| 20260906163914 | 34 | 202 | 8.0 | 17.7 | 0.00 | 0.00 | 0.00 | 56 | 1015.1 |
| 20260906163814 | 33 | 140 | 8.0 | 17.7 | 0.00 | 0.00 | 0.00 | 55 | 1015.1 |
| 20260906163735 | 34 | 123 | 9.7 | 17.7 | 0.00 | 0.00 | 0.00 | 55 | 1015.1 |
| 20260906163710 | 34 | 130 | 9.7 | 17.7 | 0.00 | 0.00 | 0.00 | 55 | 1015.1 |
| 20260906163610 | 34 | 169 | 11.3 | 17.7 | 0.00 | 0.00 | 0.00 | 54 | 1015.0 |
| 20260906163508 | 34 | 144 | 8.0 | 17.7 | 0.00 | 0.00 | 0.00 | 54 | 1015.1 |
| 20260906163405 | 33 | 338 | 6.4 | 17.7 | 0.00 | 0.00 | 0.00 | 55 | 1015.0 |
| 20260906163304 | 33 | 106 | 6.4 | 17.7 | 0.00 | 0.00 | 0.00 | 54 | 1015.0 |
| 20260906163234 | 33 | 106 | 6.4 | 17.7 | 0.00 | 0.00 | 0.00 | 54 | 1015.0 |
| 20260906163206 | 33 | 106 | 6.4 | 17.7 | 0.00 | 0.00 | 0.00 | 54 | 1015.1 |
| 20260906163039 | 33 | 118 | 6.4 | 17.7 | 0.00 | 0.00 | 0.00 | 55 | 1015.0 |
| 20260906162937 | 33 | 113 | 9.7 | 17.7 | 0.00 | 0.00 | 0.00 | 54 | 1015.1 |
| 20260906162836 | 33 | 138 | 9.7 | 17.7 | 0.00 | 0.00 | 0.00 | 53 | 1015.0 |
| 20260906162734 | 33 | 157 | 6.4 | 17.7 | 0.00 | 0.00 | 0.00 | 54 | 1014.9 |
| 20260906162714 | 33 | 138 | 6.4 | 17.7 | 0.00 | 0.00 | 0.00 | 54 | 1015.0 |
| 20260906162633 | 33 | 141 | 6.4 | 17.7 | 0.00 | 0.00 | 0.00 | 54 | 1015.0 |
| 20260906162532 | 33 | 135 | 6.4 | 17.7 | 0.00 | 0.00 | 0.00 | 54 | 1014.9 |
| 20260906162433 | 33 | 114 | 8.0 | 17.7 | 0.00 | 0.00 | 0.00 | 54 | 1015.0 |
| 20260906162332 | 33 | 82 | 6.4 | 17.7 | 0.00 | 0.00 | 0.00 | 54 | 1014.8 |
| 20260906162232 | 33 | 176 | 8.0 | 17.7 | 0.00 | 0.00 | 0.00 | 55 | 1014.8 |
| 20260906162216 | 33 | 165 | 8.0 | 17.7 | 0.00 | 0.00 | 0.00 | 54 | 1014.9 |
| 20260906162131 | 33 | 113 | 8.0 | 17.7 | 0.00 | 0.00 | 0.00 | 55 | 1014.9 |
| 20260906162034 | 33 | 154 | 6.4 | 14.5 | 0.00 | 0.00 | 0.00 | 55 | 1014.9 |
| 20260906161931 | 33 | 107 | 3.2 | 14.5 | 0.00 | 0.00 | 0.00 | 55 | 1014.8 |
| 20260906161830 | 33 | 166 | 3.2 | 14.5 | 0.00 | 0.00 | 0.00 | 55 | 1014.8 |
| 20260906161731 | 33 | 149 | 6.4 | 14.5 | 0.00 | 0.00 | 0.00 | 56 | 1014.8 |
| 20260906161714 | 33 | 173 | 8.0 | 14.5 | 0.00 | 0.00 | 0.00 | 56 | 1014.8 |
| 20260906161633 | 33 | 89 | 9.7 | 14.5 | 0.00 | 0.00 | 0.00 | 56 | 1014.8 |
| 20260906161540 | 33 | 128 | 9.7 | 14.5 | 0.00 | 0.00 | 0.00 | 56 | 1014.9 |
| 20260906161431 | 33 | 190 | 6.4 | 14.5 | 0.00 | 0.00 | 0.00 | 55 | 1014.8 |
| 20260906161326 | 33 | 114 | 8.0 | 16.1 | 0.00 | 0.00 | 0.00 | 55 | 1014.9 |
| 20260906161223 | 33 | 109 | 8.0 | 16.1 | 0.00 | 0.00 | 0.00 | 55 | 1014.9 |
| 20260906161207 | 33 | 124 | 8.0 | 16.1 | 0.00 | 0.00 | 0.00 | 55 | 1014.9 |
| 20260906161122 | 33 | 140 | 8.0 | 16.1 | 0.00 | 0.00 | 0.00 | 55 | 1014.9 |
| 20260906161022 | 33 | 145 | 6.4 | 16.1 | 0.00 | 0.00 | 0.00 | 53 | 1014.8 |
| 20260906160916 | 33 | 149 | 4.8 | 16.1 | 0.00 | 0.00 | 0.00 | 54 | 1014.8 |
| 20260906160814 | 33 | 147 | 6.4 | 16.1 | 0.00 | 0.00 | 0.00 | 54 | 1014.8 |
| 20260906160712 | 33 | 152 | 6.4 | 16.1 | 0.00 | 0.00 | 0.00 | 54 | 1014.8 |
| 20260906160704 | 33 | 169 | 6.4 | 16.1 | 0.00 | 0.00 | 0.00 | 55 | 1014.8 |
| 20260906160612 | 33 | 138 | 8.0 | 16.1 | 0.00 | 0.00 | 0.00 | 54 | 1014.8 |
| 20260906160509 | 33 | 131 | 8.0 | 16.1 | 0.00 | 0.00 | 0.00 | 54 | 1014.8 |
| 20260906160406 | 33 | 141 | 6.4 | 16.1 | 0.00 | 0.00 | 0.00 | 55 | 1014.8 |
| 20260906160306 | 33 | 35 | 6.4 | 16.1 | 0.00 | 0.00 | 0.00 | 55 | 1014.7 |
| 20260906160205 | 33 | 121 | 6.4 | 16.1 | 0.00 | 0.00 | 0.00 | 55 | 1014.8 |
| 20260906160106 | 33 | 116 | 8.0 | 16.1 | 0.00 | 0.00 | 0.00 | 56 | 1014.7 |
| 20260906160005 | 33 | 123 | 9.7 | 16.1 | 0.00 | 0.00 | 0.00 | 55 | 1014.8 |
| 20260906155906 | 33 | 147 | 11.3 | 16.1 | 0.00 | 0.00 | 0.00 | 55 | 1014.7 |
| 20260906155805 | 33 | 138 | 9.7 | 17.7 | 0.00 | 0.00 | 0.00 | 55 | 1014.8 |
| 20260906155705 | 33 | 131 | 6.4 | 17.7 | 0.00 | 0.00 | 0.00 | 56 | 1014.9 |
| 20260906155659 | 33 | 164 | 6.4 | 17.7 | 0.00 | 0.00 | 0.00 | 56 | 1014.9 |
| 20260906155613 | 33 | 27 | 6.4 | 17.7 | 0.00 | 0.00 | 0.00 | 56 | 1014.8 |
| 20260906155603 | 33 | 166 | 6.4 | 17.7 | 0.00 | 0.00 | 0.00 | 56 | 1014.8 |
| 20260906155532 | 33 | 148 | 4.8 | 17.7 | 0.00 | 0.00 | 0.00 | 56 | 1014.7 |
| 20260906155501 | 33 | 124 | 6.4 | 17.7 | 0.00 | 0.00 | 0.00 | 56 | 1014.8 |
| 20260906155430 | 33 | 120 | 6.4 | 17.7 | 0.00 | 0.00 | 0.00 | 56 | 1014.8 |
| 20260906155148 | 33 | 59 | 6.4 | 17.7 | 0.00 | 0.00 | 0.00 | 56 | 1014.8 |
| 20260906155047 | 33 | 65 | 8.0 | 17.7 | 0.00 | 0.00 | 0.00 | 56 | 1014.8 |
| 20260906154946 | 33 | 124 | 9.7 | 17.7 | 0.00 | 0.00 | 0.00 | 57 | 1014.7 |
| 20260906154843 | 33 | 130 | 8.0 | 17.7 | 0.00 | 0.00 | 0.00 | 57 | 1014.8 |
| 20260906154742 | 33 | 47 | 4.8 | 11.3 | 0.00 | 0.00 | 0.00 | 58 | 1014.8 |
| 20260906154703 | 33 | 114 | 3.2 | 9.7 | 0.00 | 0.00 | 0.00 | 58 | 1014.7 |
| 20260906154640 | 33 | 137 | 3.2 | 9.7 | 0.00 | 0.00 | 0.00 | 58 | 1014.7 |
| 20260906154540 | 33 | 107 | 4.8 | 9.7 | 0.00 | 0.00 | 0.00 | 57 | 1014.7 |
| 20260906154437 | 33 | 138 | 6.4 | 9.7 | 0.00 | 0.00 | 0.00 | 57 | 1014.8 |
| 20260906154336 | 33 | 147 | 8.0 | 14.5 | 0.00 | 0.00 | 0.00 | 57 | 1014.7 |
| 20260906154236 | 33 | 123 | 6.4 | 14.5 | 0.00 | 0.00 | 0.00 | 57 | 1014.8 |
| 20260906154203 | 33 | 73 | 4.8 | 14.5 | 0.00 | 0.00 | 0.00 | 58 | 1014.7 |
| 20260906154134 | 33 | 210 | 6.4 | 14.5 | 0.00 | 0.00 | 0.00 | 58 | 1014.7 |
| 20260906154035 | 33 | 124 | 4.8 | 14.5 | 0.00 | 0.00 | 0.00 | 57 | 1014.8 |
| 20260906153935 | 33 | 121 | 4.8 | 14.5 | 0.00 | 0.00 | 0.00 | 57 | 1014.8 |
| 20260906153834 | 33 | 100 | 6.4 | 14.5 | 0.00 | 0.00 | 0.00 | 57 | 1014.8 |
| 20260906153735 | 33 | 125 | 6.4 | 14.5 | 0.00 | 0.00 | 0.00 | 57 | 1014.7 |
| 20260906153703 | 33 | 116 | 6.4 | 14.5 | 0.00 | 0.00 | 0.00 | 57 | 1014.8 |
| 20260906153634 | 33 | 125 | 6.4 | 14.5 | 0.00 | 0.00 | 0.00 | 57 | 1014.8 |
| 20260906153535 | 33 | 123 | 8.0 | 14.5 | 0.00 | 0.00 | 0.00 | 57 | 1014.7 |
| 20260906153435 | 33 | 128 | 8.0 | 14.5 | 0.00 | 0.00 | 0.00 | 58 | 1014.8 |
| 20260906153335 | 33 | 27 | 8.0 | 14.5 | 0.00 | 0.00 | 0.00 | 58 | 1014.8 |
| 20260906153235 | 33 | 145 | 6.4 | 14.5 | 0.00 | 0.00 | 0.00 | 59 | 1014.7 |
| 20260906153202 | 33 | 178 | 6.4 | 14.5 | 0.00 | 0.00 | 0.00 | 59 | 1014.7 |
| 20260906153135 | 33 | 145 | 6.4 | 14.5 | 0.00 | 0.00 | 0.00 | 59 | 1014.7 |
| 20260906153034 | 33 | 123 | 8.0 | 14.5 | 0.00 | 0.00 | 0.00 | 59 | 1014.7 |
| 20260906152936 | 33 | 89 | 8.0 | 14.5 | 0.00 | 0.00 | 0.00 | 59 | 1014.7 |
| 20260906152834 | 33 | 147 | 6.4 | 14.5 | 0.00 | 0.00 | 0.00 | 59 | 1014.7 |
| 20260906152735 | 33 | 135 | 4.8 | 9.7 | 0.00 | 0.00 | 0.00 | 58 | 1014.7 |
| 20260906152702 | 33 | 164 | 6.4 | 9.7 | 0.00 | 0.00 | 0.00 | 58 | 1014.8 |
| 20260906152634 | 33 | 127 | 6.4 | 9.7 | 0.00 | 0.00 | 0.00 | 60 | 1014.8 |
| 20260906152535 | 32 | 141 | 4.8 | 9.7 | 0.00 | 0.00 | 0.00 | 60 | 1014.7 |
| 20260906152433 | 32 | 124 | 3.2 | 9.7 | 0.00 | 0.00 | 0.00 | 60 | 1014.8 |
| 20260906152333 | 32 | 93 | 4.8 | 9.7 | 0.00 | 0.00 | 0.00 | 60 | 1014.8 |
| 20260906152234 | 32 | 123 | 4.8 | 9.7 | 0.00 | 0.00 | 0.00 | 60 | 1014.7 |
| 20260906152203 | 32 | 127 | 6.4 | 9.7 | 0.00 | 0.00 | 0.00 | 60 | 1014.6 |
| 20260906152135 | 32 | 134 | 4.8 | 9.7 | 0.00 | 0.00 | 0.00 | 59 | 1014.6 |
| 20260906152035 | 32 | 97 | 6.4 | 9.7 | 0.00 | 0.00 | 0.00 | 59 | 1014.7 |
| 20260906151933 | 32 | 128 | 6.4 | 8.0 | 0.00 | 0.00 | 0.00 | 59 | 1014.7 |
| 20260906151832 | 32 | 130 | 4.8 | 8.0 | 0.00 | 0.00 | 0.00 | 60 | 1014.7 |
| 20260906151731 | 32 | 142 | 3.2 | 8.0 | 0.00 | 0.00 | 0.00 | 58 | 1014.7 |
| 20260906151655 | 32 | 114 | 3.2 | 8.0 | 0.00 | 0.00 | 0.00 | 58 | 1014.7 |
| 20260906151632 | 32 | 111 | 4.8 | 8.0 | 0.00 | 0.00 | 0.00 | 59 | 1014.7 |
| 20260906151532 | 32 | 93 | 4.8 | 8.0 | 0.00 | 0.00 | 0.00 | 60 | 1014.7 |
| 20260906151433 | 32 | 133 | 4.8 | 8.0 | 0.00 | 0.00 | 0.00 | 61 | 1014.6 |
| 20260906151331 | 32 | 124 | 3.2 | 8.0 | 0.00 | 0.00 | 0.00 | 61 | 1014.6 |
| 20260906151232 | 32 | 93 | 3.2 | 8.0 | 0.00 | 0.00 | 0.00 | 62 | 1014.6 |
| 20260906151157 | 32 | 97 | 3.2 | 8.0 | 0.00 | 0.00 | 0.00 | 62 | 1014.6 |
| 20260906151131 | 32 | 135 | 3.2 | 8.0 | 0.00 | 0.00 | 0.00 | 62 | 1014.6 |
| 20260906151030 | 32 | 118 | 4.8 | 8.0 | 0.00 | 0.00 | 0.00 | 64 | 1014.5 |
| 20260906150930 | 32 | 130 | 1.6 | 6.4 | 0.00 | 0.00 | 0.00 | 64 | 1014.6 |
| 20260906150831 | 32 | 61 | 1.6 | 6.4 | 0.00 | 0.00 | 0.00 | 64 | 1014.6 |
| 20260906150730 | 32 | 56 | 3.2 | 6.4 | 0.00 | 0.00 | 0.00 | 64 | 1014.6 |
| 20260906150657 | 32 | 56 | 3.2 | 6.4 | 0.00 | 0.00 | 0.00 | 64 | 1014.6 |
| 20260906150633 | 32 | 80 | 1.6 | 6.4 | 0.00 | 0.00 | 0.00 | 65 | 1014.6 |
| 20260906150529 | 32 | 94 | 1.6 | 6.4 | 0.00 | 0.00 | 0.00 | 65 | 1014.6 |
| 20260906150430 | 32 | 75 | 1.6 | 6.4 | 0.00 | 0.00 | 0.00 | 65 | 1014.5 |
| 20260906150330 | 32 | 75 | 1.6 | 6.4 | 0.00 | 0.00 | 0.00 | 65 | 1014.6 |
| 20260906150231 | 32 | 0 | 3.2 | 6.4 | 0.00 | 0.00 | 0.00 | 65 | 1014.6 |
| 20260906150156 | 32 | 0 | 3.2 | 6.4 | 0.00 | 0.00 | 0.00 | 65 | 1014.6 |
| 20260906150130 | 32 | 0 | 3.2 | 6.4 | 0.00 | 0.00 | 0.00 | 65 | 1014.6 |
| 20260906150030 | 31 | 21 | 3.2 | 6.4 | 0.00 | 0.00 | 0.00 | 65 | 1014.6 |
| 20260906145929 | 31 | 96 | 3.2 | 6.4 | 0.00 | 0.00 | 0.00 | 66 | 1014.6 |
| 20260906145832 | 31 | 145 | 1.6 | 6.4 | 0.00 | 0.00 | 0.00 | 66 | 1014.6 |
| 20260906145731 | 31 | 59 | 0.0 | 6.4 | 0.00 | 0.00 | 0.00 | 67 | 1014.6 |
| 20260906145654 | 31 | 59 | 1.6 | 6.4 | 0.00 | 0.00 | 0.00 | 67 | 1014.6 |
| 20260906145630 | 31 | 59 | 1.6 | 6.4 | 0.00 | 0.00 | 0.00 | 67 | 1014.7 |
| 20260906145528 | 31 | 61 | 1.6 | 6.4 | 0.00 | 0.00 | 0.00 | 66 | 1014.6 |
| 20260906145425 | 31 | 55 | 1.6 | 6.4 | 0.00 | 0.00 | 0.00 | 67 | 1014.6 |
| 20260906145324 | 31 | 125 | 1.6 | 6.4 | 0.00 | 0.00 | 0.00 | 67 | 1014.6 |
| 20260906145224 | 31 | 133 | 1.6 | 6.4 | 0.00 | 0.00 | 0.00 | 66 | 1014.6 |
| 20260906145149 | 31 | 133 | 1.6 | 6.4 | 0.00 | 0.00 | 0.00 | 67 | 1014.6 |
| 20260906145122 | 31 | 134 | 3.2 | 6.4 | 0.00 | 0.00 | 0.00 | 67 | 1014.5 |
| 20260906145024 | 31 | 137 | 3.2 | 6.4 | 0.00 | 0.00 | 0.00 | 67 | 1014.5 |
| 20260906144919 | 31 | 137 | 4.8 | 6.4 | 0.00 | 0.00 | 0.00 | 67 | 1014.6 |
| 20260906144815 | 31 | 120 | 3.2 | 6.4 | 0.00 | 0.00 | 0.00 | 68 | 1014.6 |
| 20260906144714 | 31 | 121 | 1.6 | 6.4 | 0.00 | 0.00 | 0.00 | 68 | 1014.6 |
| 20260906144647 | 31 | 121 | 3.2 | 6.4 | 0.00 | 0.00 | 0.00 | 68 | 1014.6 |
| 20260906144614 | 31 | 102 | 3.2 | 6.4 | 0.00 | 0.00 | 0.00 | 68 | 1014.7 |
| 20260906144545 | 31 | 127 | 3.2 | 6.4 | 0.00 | 0.00 | 0.00 | 69 | 1014.6 |
| 20260906144525 | 31 | 118 | 3.2 | 6.4 | 0.00 | 0.00 | 0.00 | 69 | 1014.6 |
| 20260906144455 | 31 | 142 | 4.8 | 6.4 | 0.00 | 0.00 | 0.00 | 68 | 1014.6 |
| 20260906144424 | 31 | 157 | 4.8 | 6.4 | 0.00 | 0.00 | 0.00 | 69 | 1014.6 |
| 20260906144355 | 31 | 148 | 4.8 | 6.4 | 0.00 | 0.00 | 0.00 | 69 | 1014.6 |
| 20260906144105 | 31 | 125 | 3.2 | 6.4 | 0.00 | 0.00 | 0.00 | 69 | 1014.6 |
| 20260906144004 | 31 | 113 | 3.2 | 6.4 | 0.00 | 0.00 | 0.00 | 70 | 1014.6 |
| 20260906143906 | 31 | 113 | 3.2 | 6.4 | 0.00 | 0.00 | 0.00 | 71 | 1014.7 |
| 20260906143803 | 31 | 121 | 3.2 | 6.4 | 0.00 | 0.00 | 0.00 | 70 | 1014.7 |
| 20260906143706 | 31 | 130 | 3.2 | 6.4 | 0.00 | 0.00 | 0.00 | 70 | 1014.6 |
| 20260906143637 | 31 | 130 | 3.2 | 6.4 | 0.00 | 0.00 | 0.00 | 70 | 1014.6 |
| 20260906143603 | 30 | 130 | 3.2 | 6.4 | 0.00 | 0.00 | 0.00 | 70 | 1014.7 |
| 20260906143505 | 30 | 130 | 4.8 | 6.4 | 0.00 | 0.00 | 0.00 | 70 | 1014.7 |
| 20260906143405 | 30 | 151 | 3.2 | 4.8 | 0.00 | 0.00 | 0.00 | 71 | 1014.6 |
| 20260906143301 | 30 | 125 | 3.2 | 6.4 | 0.00 | 0.00 | 0.00 | 71 | 1014.6 |
| 20260906143138 | 30 | 128 | 3.2 | 6.4 | 0.00 | 0.00 | 0.00 | 72 | 1014.7 |
| 20260906143059 | 30 | 117 | 3.2 | 6.4 | 0.00 | 0.00 | 0.00 | 71 | 1014.6 |
| 20260906143043 | 30 | 76 | 1.6 | 6.4 | 0.00 | 0.00 | 0.00 | 72 | 1014.7 |
| 20260906143020 | 30 | 93 | 3.2 | 6.4 | 0.00 | 0.00 | 0.00 | 71 | 1014.6 |
| 20260906142947 | 30 | 93 | 3.2 | 6.4 | 0.00 | 0.00 | 0.00 | 71 | 1014.6 |
| 20260906142919 | 30 | 56 | 3.2 | 6.4 | 0.00 | 0.00 | 0.00 | 71 | 1014.7 |
| 20260906142847 | 30 | 65 | 3.2 | 6.4 | 0.00 | 0.00 | 0.00 | 72 | 1014.7 |
| 20260906142557 | 30 | 113 | 3.2 | 6.4 | 0.00 | 0.00 | 0.00 | 73 | 1014.7 |
| 20260906142549 | 30 | 80 | 3.2 | 6.4 | 0.00 | 0.00 | 0.00 | 72 | 1014.7 |
| 20260906142517 | 30 | 102 | 3.2 | 6.4 | 0.00 | 0.00 | 0.00 | 72 | 1014.7 |
| 20260906142447 | 30 | 110 | 3.2 | 6.4 | 0.00 | 0.00 | 0.00 | 73 | 1014.8 |
| 20260906142418 | 30 | 114 | 3.2 | 6.4 | 0.00 | 0.00 | 0.00 | 73 | 1014.8 |
| 20260906142343 | 30 | 113 | 3.2 | 6.4 | 0.00 | 0.00 | 0.00 | 73 | 1014.7 |
| 20260906142054 | 30 | 120 | 3.2 | 6.4 | 0.00 | 0.00 | 0.00 | 74 | 1014.7 |
| 20260906142041 | 30 | 130 | 3.2 | 6.4 | 0.00 | 0.00 | 0.00 | 73 | 1014.7 |
| 20260906142012 | 30 | 103 | 1.6 | 6.4 | 0.00 | 0.00 | 0.00 | 74 | 1014.7 |
| 20260906141939 | 30 | 99 | 3.2 | 6.4 | 0.00 | 0.00 | 0.00 | 74 | 1014.7 |
| 20260906141912 | 30 | 104 | 4.8 | 6.4 | 0.00 | 0.00 | 0.00 | 74 | 1014.7 |
| 20260906141633 | 30 | 124 | 3.2 | 6.4 | 0.00 | 0.00 | 0.00 | 74 | 1014.7 |
| 20260906141532 | 29 | 127 | 3.2 | 4.8 | 0.00 | 0.00 | 0.00 | 74 | 1014.7 |
| 20260906141431 | 29 | 127 | 3.2 | 4.8 | 0.00 | 0.00 | 0.00 | 74 | 1014.8 |
| 20260906141332 | 29 | 125 | 3.2 | 4.8 | 0.00 | 0.00 | 0.00 | 74 | 1014.8 |
| 20260906141232 | 29 | 125 | 3.2 | 4.8 | 0.00 | 0.00 | 0.00 | 75 | 1014.8 |
| 20260906141130 | 29 | 83 | 3.2 | 4.8 | 0.00 | 0.00 | 0.00 | 75 | 1014.7 |
| 20260906141031 | 29 | 82 | 3.2 | 4.8 | 0.00 | 0.00 | 0.00 | 75 | 1014.8 |
| 20260906140933 | 29 | 73 | 3.2 | 4.8 | 0.00 | 0.00 | 0.00 | 76 | 1014.7 |
| 20260906140829 | 29 | 114 | 3.2 | 6.4 | 0.00 | 0.00 | 0.00 | 76 | 1014.8 |
| 20260906140730 | 29 | 107 | 3.2 | 6.4 | 0.00 | 0.00 | 0.00 | 76 | 1014.8 |
| 20260906140630 | 29 | 102 | 3.2 | 6.4 | 0.00 | 0.00 | 0.00 | 76 | 1014.8 |
| 20260906140530 | 28 | 103 | 3.2 | 6.4 | 0.00 | 0.00 | 0.00 | 76 | 1014.7 |
| 20260906140430 | 28 | 127 | 3.2 | 6.4 | 0.00 | 0.00 | 0.00 | 77 | 1014.8 |
| 20260906140331 | 28 | 18 | 3.2 | 6.4 | 0.00 | 0.00 | 0.00 | 77 | 1014.7 |
| 20260906140229 | 28 | 18 | 3.2 | 6.4 | 0.00 | 0.00 | 0.00 | 78 | 1014.8 |
| 20260906140128 | 28 | 66 | 1.6 | 6.4 | 0.00 | 0.00 | 0.00 | 78 | 1014.7 |
| 20260906140050 | 28 | 102 | 1.6 | 4.8 | 0.00 | 0.00 | 0.00 | 79 | 1014.6 |
| 20260906140040 | 28 | 41 | 3.2 | 6.4 | 0.00 | 0.00 | 0.00 | 78 | 1014.7 |
| 20260906140007 | 28 | 39 | 3.2 | 6.4 | 0.00 | 0.00 | 0.00 | 78 | 1014.7 |
| 20260906135936 | 28 | 103 | 3.2 | 4.8 | 0.00 | 0.00 | 0.00 | 79 | 1014.7 |
| 20260906135908 | 28 | 99 | 3.2 | 4.8 | 0.00 | 0.00 | 0.00 | 79 | 1014.6 |
| 20260906135628 | 28 | 102 | 1.6 | 4.8 | 0.00 | 0.00 | 0.00 | 79 | 1014.6 |
| 20260906135530 | 28 | 79 | 1.6 | 4.8 | 0.00 | 0.00 | 0.00 | 79 | 1014.6 |
| 20260906135418 | 28 | 79 | 1.6 | 4.8 | 0.00 | 0.00 | 0.00 | 79 | 1014.6 |
| 20260906135315 | 28 | 66 | 1.6 | 4.8 | 0.00 | 0.00 | 0.00 | 80 | 1014.6 |
| 20260906135215 | 28 | 58 | 1.6 | 4.8 | 0.00 | 0.00 | 0.00 | 80 | 1014.6 |
| 20260906135113 | 28 | 90 | 1.6 | 4.8 | 0.00 | 0.00 | 0.00 | 81 | 1014.6 |
| 20260906135011 | 27 | 90 | 1.6 | 4.8 | 0.00 | 0.00 | 0.00 | 81 | 1014.6 |
| 20260906134910 | 27 | 90 | 1.6 | 4.8 | 0.00 | 0.00 | 0.00 | 81 | 1014.6 |
| 20260906134810 | 27 | 59 | 0.0 | 4.8 | 0.00 | 0.00 | 0.00 | 82 | 1014.6 |
| 20260906134707 | 27 | 85 | 0.0 | 4.8 | 0.00 | 0.00 | 0.00 | 82 | 1014.6 |
| 20260906134631 | 27 | 86 | 1.6 | 4.8 | 0.00 | 0.00 | 0.00 | 82 | 1014.6 |
| 20260906134604 | 27 | 86 | 1.6 | 4.8 | 0.00 | 0.00 | 0.00 | 82 | 1014.6 |
| 20260906134549 | 27 | 17 | 1.6 | 4.8 | 0.00 | 0.00 | 0.00 | 84 | 1014.6 |
| 20260906134525 | 27 | 86 | 1.6 | 4.8 | 0.00 | 0.00 | 0.00 | 82 | 1014.5 |
| 20260906134453 | 27 | 96 | 3.2 | 4.8 | 0.00 | 0.00 | 0.00 | 83 | 1014.6 |
| 20260906134424 | 27 | 37 | 1.6 | 4.8 | 0.00 | 0.00 | 0.00 | 83 | 1014.5 |
| 20260906134355 | 27 | 17 | 1.6 | 4.8 | 0.00 | 0.00 | 0.00 | 84 | 1014.6 |
| 20260906134105 | 27 | 102 | 0.0 | 4.8 | 0.00 | 0.00 | 0.00 | 84 | 1014.6 |
| 20260906134004 | 27 | 102 | 1.6 | 4.8 | 0.00 | 0.00 | 0.00 | 84 | 1014.6 |
| 20260906133902 | 27 | 102 | 1.6 | 4.8 | 0.00 | 0.00 | 0.00 | 84 | 1014.6 |
| 20260906133804 | 27 | 104 | 3.2 | 4.8 | 0.00 | 0.00 | 0.00 | 84 | 1014.6 |
| 20260906133704 | 26 | 104 | 3.2 | 4.8 | 0.00 | 0.00 | 0.00 | 85 | 1014.6 |
| 20260906133633 | 26 | 103 | 3.2 | 4.8 | 0.00 | 0.00 | 0.00 | 85 | 1014.6 |
| 20260906133603 | 26 | 103 | 1.6 | 4.8 | 0.00 | 0.00 | 0.00 | 85 | 1014.6 |
| 20260906133502 | 26 | 113 | 0.0 | 4.8 | 0.00 | 0.00 | 0.00 | 86 | 1014.6 |
| 20260906133404 | 26 | 113 | 1.6 | 4.8 | 0.00 | 0.00 | 0.00 | 86 | 1014.6 |
| 20260906133300 | 26 | 113 | 1.6 | 4.8 | 0.00 | 0.00 | 0.00 | 86 | 1014.6 |
| 20260906133202 | 26 | 114 | 1.6 | 4.8 | 0.00 | 0.00 | 0.00 | 86 | 1014.6 |
| 20260906133134 | 26 | 114 | 1.6 | 4.8 | 0.00 | 0.00 | 0.00 | 86 | 1014.6 |
| 20260906133059 | 26 | 116 | 3.2 | 4.8 | 0.00 | 0.00 | 0.00 | 86 | 1014.6 |
| 20260906132949 | 26 | 116 | 3.2 | 4.8 | 0.00 | 0.00 | 0.00 | 86 | 1014.6 |
| 20260906132848 | 26 | 118 | 3.2 | 4.8 | 0.00 | 0.00 | 0.00 | 86 | 1014.7 |
| 20260906132739 | 26 | 123 | 3.2 | 4.8 | 0.00 | 0.00 | 0.00 | 86 | 1014.6 |
| 20260906132642 | 26 | 82 | 3.2 | 4.8 | 0.00 | 0.00 | 0.00 | 87 | 1014.7 |
| 20260906132635 | 26 | 83 | 3.2 | 4.8 | 0.00 | 0.00 | 0.00 | 87 | 1014.7 |
| 20260906132535 | 26 | 82 | 3.2 | 4.8 | 0.00 | 0.00 | 0.00 | 87 | 1014.7 |
| 20260906132436 | 26 | 76 | 1.6 | 4.8 | 0.00 | 0.00 | 0.00 | 87 | 1014.7 |
| 20260906132333 | 26 | 103 | 1.6 | 4.8 | 0.00 | 0.00 | 0.00 | 87 | 1014.7 |
| 20260906132232 | 26 | 102 | 3.2 | 4.8 | 0.00 | 0.00 | 0.00 | 87 | 1014.7 |
| 20260906132133 | 26 | 99 | 3.2 | 4.8 | 0.00 | 0.00 | 0.00 | 87 | 1014.7 |
| 20260906132032 | 25 | 94 | 3.2 | 4.8 | 0.00 | 0.00 | 0.00 | 87 | 1014.8 |
| 20260906131932 | 25 | 87 | 3.2 | 4.8 | 0.00 | 0.00 | 0.00 | 87 | 1014.8 |
| 20260906131833 | 25 | 56 | 3.2 | 4.8 | 0.00 | 0.00 | 0.00 | 87 | 1014.7 |
| 20260906131731 | 25 | 97 | 3.2 | 3.2 | 0.00 | 0.00 | 0.00 | 87 | 1014.7 |
| 20260906131632 | 25 | 110 | 0.0 | 3.2 | 0.00 | 0.00 | 0.00 | 88 | 1014.7 |
| 20260906131532 | 25 | 110 | 0.0 | 3.2 | 0.00 | 0.00 | 0.00 | 88 | 1014.7 |
| 20260906131431 | 25 | 110 | 0.0 | 3.2 | 0.00 | 0.00 | 0.00 | 88 | 1014.7 |
| 20260906131331 | 25 | 110 | 0.0 | 3.2 | 0.00 | 0.00 | 0.00 | 88 | 1014.7 |
| 20260906131230 | 25 | 110 | 0.0 | 3.2 | 0.00 | 0.00 | 0.00 | 88 | 1014.7 |
| 20260906131127 | 25 | 110 | 0.0 | 3.2 | 0.00 | 0.00 | 0.00 | 88 | 1014.7 |
| 20260906131027 | 25 | 110 | 0.0 | 3.2 | 0.00 | 0.00 | 0.00 | 88 | 1014.7 |
| 20260906130928 | 25 | 110 | 1.6 | 3.2 | 0.00 | 0.00 | 0.00 | 88 | 1014.7 |
| 20260906130827 | 25 | 113 | 0.0 | 1.6 | 0.00 | 0.00 | 0.00 | 88 | 1014.7 |
| 20260906130727 | 25 | 113 | 0.0 | 1.6 | 0.00 | 0.00 | 0.00 | 88 | 1014.7 |
| 20260906130628 | 25 | 113 | 0.0 | 1.6 | 0.00 | 0.00 | 0.00 | 88 | 1014.7 |
| 20260906130521 | 25 | 113 | 0.0 | 1.6 | 0.00 | 0.00 | 0.00 | 88 | 1014.7 |
| 20260906130420 | 25 | 113 | 0.0 | 1.6 | 0.00 | 0.00 | 0.00 | 88 | 1014.6 |
| 20260906130318 | 25 | 116 | 0.0 | 1.6 | 0.00 | 0.00 | 0.00 | 88 | 1014.6 |
| 20260906130215 | 25 | 114 | 0.0 | 1.6 | 0.00 | 0.00 | 0.00 | 88 | 1014.6 |
| 20260906130115 | 25 | 114 | 0.0 | 1.6 | 0.00 | 0.00 | 0.00 | 88 | 1014.6 |
| 20260906130014 | 25 | 114 | 0.0 | 1.6 | 0.00 | 0.00 | 0.00 | 88 | 1014.5 |
| 20260906125915 | 25 | 114 | 0.0 | 1.6 | 0.00 | 0.00 | 0.00 | 88 | 1014.5 |
| 20260906125813 | 25 | 114 | 0.0 | 1.6 | 0.00 | 0.00 | 0.00 | 88 | 1014.5 |
| 20260906125711 | 25 | 114 | 0.0 | 1.6 | 0.00 | 0.00 | 0.00 | 88 | 1014.5 |
| 20260906125611 | 25 | 114 | 0.0 | 1.6 | 0.00 | 0.00 | 0.00 | 88 | 1014.5 |
| 20260906125518 | 25 | 114 | 0.0 | 3.2 | 0.00 | 0.00 | 0.00 | 88 | 1014.4 |
| 20260906125510 | 25 | 114 | 0.0 | 1.6 | 0.00 | 0.00 | 0.00 | 88 | 1014.5 |
| 20260906125440 | 25 | 114 | 0.0 | 3.2 | 0.00 | 0.00 | 0.00 | 88 | 1014.4 |
| 20260906125406 | 25 | 114 | 0.0 | 3.2 | 0.00 | 0.00 | 0.00 | 88 | 1014.4 |
| 20260906125337 | 25 | 114 | 0.0 | 3.2 | 0.00 | 0.00 | 0.00 | 88 | 1014.4 |
| 20260906125319 | 25 | 114 | 0.0 | 3.2 | 0.00 | 0.00 | 0.00 | 88 | 1014.4 |
| 20260906125305 | 25 | 114 | 0.0 | 3.2 | 0.00 | 0.00 | 0.00 | 88 | 1014.4 |
| 20260906125021 | 25 | 114 | 0.0 | 3.2 | 0.00 | 0.00 | 0.00 | 88 | 1014.3 |
| 20260906124949 | 25 | 114 | 0.0 | 3.2 | 0.00 | 0.00 | 0.00 | 88 | 1014.3 |
| 20260906124922 | 25 | 114 | 0.0 | 3.2 | 0.00 | 0.00 | 0.00 | 88 | 1014.4 |
| 20260906124849 | 25 | 114 | 0.0 | 3.2 | 0.00 | 0.00 | 0.00 | 88 | 1014.4 |
| 20260906124553 | 25 | 114 | 1.6 | 3.2 | 0.00 | 0.00 | 0.00 | 88 | 1014.4 |
| 20260906124437 | 25 | 114 | 1.6 | 3.2 | 0.00 | 0.00 | 0.00 | 88 | 1014.5 |
| 20260906124335 | 25 | 116 | 0.0 | 1.6 | 0.00 | 0.00 | 0.00 | 88 | 1014.4 |
| 20260906124233 | 25 | 116 | 0.0 | 1.6 | 0.00 | 0.00 | 0.00 | 88 | 1014.4 |
| 20260906124131 | 25 | 116 | 0.0 | 1.6 | 0.00 | 0.00 | 0.00 | 88 | 1014.4 |
| 20260906124033 | 25 | 116 | 0.0 | 1.6 | 0.00 | 0.00 | 0.00 | 88 | 1014.3 |
| 20260906123934 | 25 | 116 | 1.6 | 1.6 | 0.00 | 0.00 | 0.00 | 88 | 1014.3 |
| 20260906123833 | 25 | 114 | 0.0 | 1.6 | 0.00 | 0.00 | 0.00 | 88 | 1014.3 |
| 20260906123733 | 25 | 111 | 0.0 | 1.6 | 0.00 | 0.00 | 0.00 | 88 | 1014.3 |
| 20260906123628 | 25 | 111 | 1.6 | 1.6 | 0.00 | 0.00 | 0.00 | 88 | 1014.3 |
| 20260906123534 | 25 | 111 | 0.0 | 1.6 | 0.00 | 0.00 | 0.00 | 88 | 1014.3 |
| 20260906123433 | 25 | 111 | 0.0 | 1.6 | 0.00 | 0.00 | 0.00 | 88 | 1014.3 |
| 20260906123332 | 25 | 111 | 0.0 | 1.6 | 0.00 | 0.00 | 0.00 | 88 | 1014.3 |
| 20260906123235 | 25 | 111 | 0.0 | 1.6 | 0.00 | 0.00 | 0.00 | 88 | 1014.3 |
| 20260906123128 | 25 | 111 | 0.0 | 1.6 | 0.00 | 0.00 | 0.00 | 88 | 1014.3 |
| 20260906123034 | 25 | 111 | 0.0 | 1.6 | 0.00 | 0.00 | 0.00 | 88 | 1014.3 |
| 20260906122934 | 25 | 111 | 0.0 | 1.6 | 0.00 | 0.00 | 0.00 | 88 | 1014.3 |
| 20260906122833 | 25 | 111 | 0.0 | 1.6 | 0.00 | 0.00 | 0.00 | 88 | 1014.3 |
| 20260906122733 | 25 | 111 | 0.0 | 1.6 | 0.00 | 0.00 | 0.00 | 88 | 1014.2 |
| 20260906122630 | 25 | 111 | 0.0 | 1.6 | 0.00 | 0.00 | 0.00 | 88 | 1014.2 |
| 20260906122533 | 25 | 111 | 0.0 | 1.6 | 0.00 | 0.00 | 0.00 | 88 | 1014.2 |
| 20260906122434 | 25 | 111 | 0.0 | 1.6 | 0.00 | 0.00 | 0.00 | 88 | 1014.2 |
| 20260906122332 | 25 | 111 | 0.0 | 1.6 | 0.00 | 0.00 | 0.00 | 87 | 1014.2 |
| 20260906122233 | 25 | 111 | 0.0 | 3.2 | 0.00 | 0.00 | 0.00 | 87 | 1014.1 |
| 20260906122129 | 25 | 111 | 0.0 | 3.2 | 0.00 | 0.00 | 0.00 | 87 | 1014.1 |
| 20260906122033 | 25 | 111 | 0.0 | 3.2 | 0.00 | 0.00 | 0.00 | 87 | 1014.2 |
| 20260906121934 | 25 | 111 | 0.0 | 3.2 | 0.00 | 0.00 | 0.00 | 87 | 1014.1 |
| 20260906121833 | 25 | 111 | 0.0 | 3.2 | 0.00 | 0.00 | 0.00 | 87 | 1014.2 |
| 20260906121733 | 25 | 111 | 0.0 | 3.2 | 0.00 | 0.00 | 0.00 | 87 | 1014.2 |
| 20260906121630 | 25 | 111 | 0.0 | 3.2 | 0.00 | 0.00 | 0.00 | 88 | 1014.2 |
| 20260906121547 | 25 | 111 | 0.0 | 3.2 | 0.00 | 0.00 | 0.00 | 88 | 1014.1 |
| 20260906121535 | 25 | 111 | 0.0 | 3.2 | 0.00 | 0.00 | 0.00 | 88 | 1014.2 |
| 20260906121503 | 25 | 111 | 0.0 | 3.2 | 0.00 | 0.00 | 0.00 | 88 | 1014.2 |
| 20260906121435 | 25 | 111 | 0.0 | 3.2 | 0.00 | 0.00 | 0.00 | 88 | 1014.1 |
| 20260906121408 | 25 | 111 | 0.0 | 3.2 | 0.00 | 0.00 | 0.00 | 88 | 1014.2 |
| 20260906121338 | 25 | 111 | 0.0 | 3.2 | 0.00 | 0.00 | 0.00 | 88 | 1014.1 |
| 20260906121029 | 25 | 111 | 0.0 | 3.2 | 0.00 | 0.00 | 0.00 | 88 | 1014.1 |
| 20260906120929 | 25 | 111 | 0.0 | 3.2 | 0.00 | 0.00 | 0.00 | 88 | 1014.1 |
| 20260906120809 | 25 | 111 | 0.0 | 3.2 | 0.00 | 0.00 | 0.00 | 88 | 1014.2 |
| 20260906120708 | 25 | 111 | 0.0 | 3.2 | 0.00 | 0.00 | 0.00 | 88 | 1014.2 |
| 20260906120628 | 25 | 113 | 0.0 | 3.2 | 0.00 | 0.00 | 0.00 | 88 | 1014.2 |
| 20260906120605 | 25 | 113 | 1.6 | 3.2 | 0.00 | 0.00 | 0.00 | 88 | 1014.2 |
| 20260906120502 | 25 | 113 | 1.6 | 3.2 | 0.00 | 0.00 | 0.00 | 88 | 1014.1 |
| 20260906120402 | 25 | 121 | 1.6 | 3.2 | 0.00 | 0.00 | 0.00 | 88 | 1014.1 |
| 20260906120303 | 25 | 125 | 0.0 | 3.2 | 0.00 | 0.00 | 0.00 | 88 | 1014.2 |
| 20260906120204 | 25 | 125 | 0.0 | 3.2 | 0.00 | 0.00 | 0.00 | 88 | 1014.0 |
| 20260906120127 | 25 | 125 | 0.0 | 3.2 | 0.00 | 0.00 | 0.00 | 88 | 1014.0 |
| 20260906120005 | 25 | 125 | 0.0 | 3.2 | 0.00 | 0.00 | 0.00 | 87 | 1014.1 |
| 20260906115902 | 25 | 125 | 0.0 | 3.2 | 0.00 | 0.00 | 0.00 | 87 | 1014.1 |
| 20260906115803 | 25 | 125 | 0.0 | 3.2 | 0.00 | 0.00 | 0.00 | 87 | 1014.1 |
| 20260906115702 | 25 | 125 | 1.6 | 3.2 | 0.00 | 0.00 | 0.00 | 87 | 1014.1 |
| 20260906115602 | 25 | 125 | 1.6 | 3.2 | 0.00 | 0.00 | 0.00 | 87 | 1014.1 |
| 20260906115504 | 25 | 125 | 1.6 | 3.2 | 0.00 | 0.00 | 0.00 | 87 | 1014.1 |
| 20260906115402 | 25 | 125 | 1.6 | 3.2 | 0.00 | 0.00 | 0.00 | 87 | 1014.1 |
| 20260906115306 | 25 | 125 | 0.0 | 1.6 | 0.00 | 0.00 | 0.00 | 87 | 1014.1 |
| 20260906115204 | 25 | 125 | 0.0 | 3.2 | 0.00 | 0.00 | 0.00 | 87 | 1014.0 |
| 20260906115127 | 25 | 125 | 0.0 | 3.2 | 0.00 | 0.00 | 0.00 | 87 | 1014.0 |
| 20260906115102 | 25 | 125 | 0.0 | 3.2 | 0.00 | 0.00 | 0.00 | 87 | 1014.1 |
| 20260906115004 | 25 | 125 | 0.0 | 3.2 | 0.00 | 0.00 | 0.00 | 87 | 1014.0 |
| 20260906114903 | 25 | 125 | 0.0 | 3.2 | 0.00 | 0.00 | 0.00 | 87 | 1014.0 |
| 20260906114805 | 25 | 125 | 0.0 | 3.2 | 0.00 | 0.00 | 0.00 | 87 | 1014.0 |
| 20260906114704 | 25 | 125 | 0.0 | 3.2 | 0.00 | 0.00 | 0.00 | 87 | 1014.0 |
| 20260906114629 | 25 | 125 | 0.0 | 3.2 | 0.00 | 0.00 | 0.00 | 87 | 1014.0 |
| 20260906114603 | 25 | 125 | 0.0 | 3.2 | 0.00 | 0.00 | 0.00 | 87 | 1013.9 |
| 20260906114504 | 25 | 125 | 0.0 | 3.2 | 0.00 | 0.00 | 0.00 | 87 | 1013.9 |
| 20260906114404 | 25 | 125 | 0.0 | 4.8 | 0.00 | 0.00 | 0.00 | 87 | 1013.9 |
| 20260906114302 | 25 | 125 | 1.6 | 4.8 | 0.00 | 0.00 | 0.00 | 87 | 1013.9 |
| 20260906114203 | 25 | 125 | 0.0 | 4.8 | 0.00 | 0.00 | 0.00 | 87 | 1013.8 |
| 20260906114129 | 25 | 125 | 0.0 | 4.8 | 0.00 | 0.00 | 0.00 | 87 | 1013.8 |
| 20260906114103 | 25 | 125 | 1.6 | 4.8 | 0.00 | 0.00 | 0.00 | 87 | 1013.9 |
| 20260906113955 | 25 | 125 | 1.6 | 4.8 | 0.00 | 0.00 | 0.00 | 87 | 1013.9 |
| 20260906113854 | 25 | 125 | 1.6 | 4.8 | 0.00 | 0.00 | 0.00 | 87 | 1013.9 |
| 20260906113753 | 25 | 125 | 1.6 | 4.8 | 0.00 | 0.00 | 0.00 | 87 | 1013.9 |
| 20260906113652 | 25 | 125 | 3.2 | 4.8 | 0.00 | 0.00 | 0.00 | 87 | 1013.9 |
| 20260906113628 | 25 | 127 | 3.2 | 4.8 | 0.00 | 0.00 | 0.00 | 87 | 1013.9 |
| 20260906113550 | 25 | 127 | 1.6 | 4.8 | 0.00 | 0.00 | 0.00 | 87 | 1013.9 |
| 20260906113445 | 25 | 131 | 1.6 | 4.8 | 0.00 | 0.00 | 0.00 | 87 | 1013.9 |
| 20260906113345 | 25 | 131 | 3.2 | 6.4 | 0.00 | 0.00 | 0.00 | 87 | 1013.9 |
| 20260906113235 | 25 | 116 | 3.2 | 6.4 | 0.00 | 0.00 | 0.00 | 87 | 1013.9 |
| 20260906113124 | 25 | 107 | 3.2 | 6.4 | 0.00 | 0.00 | 0.00 | 87 | 1013.9 |
| 20260906113045 | 25 | 121 | 3.2 | 6.4 | 0.00 | 0.00 | 0.00 | 86 | 1013.8 |
| 20260906113037 | 25 | 104 | 3.2 | 6.4 | 0.00 | 0.00 | 0.00 | 87 | 1013.9 |
| 20260906113007 | 25 | 104 | 1.6 | 6.4 | 0.00 | 0.00 | 0.00 | 87 | 1013.9 |
| 20260906112938 | 25 | 113 | 1.6 | 6.4 | 0.00 | 0.00 | 0.00 | 87 | 1013.8 |
| 20260906112907 | 25 | 111 | 3.2 | 6.4 | 0.00 | 0.00 | 0.00 | 87 | 1013.9 |
| 20260906112837 | 25 | 121 | 3.2 | 6.4 | 0.00 | 0.00 | 0.00 | 86 | 1013.8 |
| 20260906112531 | 25 | 114 | 3.2 | 6.4 | 0.00 | 0.00 | 0.00 | 86 | 1013.8 |
| 20260906112431 | 25 | 114 | 3.2 | 6.4 | 0.00 | 0.00 | 0.00 | 86 | 1013.8 |
| 20260906112332 | 25 | 121 | 3.2 | 6.4 | 0.00 | 0.00 | 0.00 | 86 | 1013.8 |
| 20260906112231 | 25 | 120 | 4.8 | 6.4 | 0.00 | 0.00 | 0.00 | 86 | 1013.8 |
| 20260906112125 | 25 | 96 | 3.2 | 6.4 | 0.00 | 0.00 | 0.00 | 86 | 1013.8 |
| 20260906112023 | 25 | 134 | 3.2 | 6.4 | 0.00 | 0.00 | 0.00 | 86 | 1013.8 |
| 20260906111922 | 25 | 135 | 3.2 | 6.4 | 0.00 | 0.00 | 0.00 | 86 | 1013.7 |
| 20260906111820 | 25 | 127 | 3.2 | 4.8 | 0.00 | 0.00 | 0.00 | 86 | 1013.7 |
| 20260906111711 | 25 | 125 | 3.2 | 4.8 | 0.00 | 0.00 | 0.00 | 86 | 1013.8 |
| 20260906111624 | 25 | 125 | 3.2 | 4.8 | 0.00 | 0.00 | 0.00 | 86 | 1013.8 |
| 20260906111611 | 25 | 125 | 3.2 | 4.8 | 0.00 | 0.00 | 0.00 | 86 | 1013.7 |
| 20260906111511 | 25 | 125 | 3.2 | 4.8 | 0.00 | 0.00 | 0.00 | 86 | 1013.7 |
| 20260906111409 | 25 | 125 | 3.2 | 4.8 | 0.00 | 0.00 | 0.00 | 86 | 1013.7 |
| 20260906111307 | 25 | 116 | 3.2 | 4.8 | 0.00 | 0.00 | 0.00 | 86 | 1013.7 |
| 20260906111208 | 25 | 116 | 3.2 | 4.8 | 0.00 | 0.00 | 0.00 | 86 | 1013.7 |
| 20260906111108 | 25 | 118 | 1.6 | 4.8 | 0.00 | 0.00 | 0.00 | 86 | 1013.7 |
| 20260906111007 | 25 | 118 | 3.2 | 4.8 | 0.00 | 0.00 | 0.00 | 86 | 1013.6 |
| 20260906110948 | 25 | 118 | 1.6 | 4.8 | 0.00 | 0.00 | 0.00 | 85 | 1013.7 |
| 20260906110925 | 25 | 118 | 3.2 | 4.8 | 0.00 | 0.00 | 0.00 | 86 | 1013.6 |
| 20260906110857 | 25 | 120 | 1.6 | 4.8 | 0.00 | 0.00 | 0.00 | 86 | 1013.7 |
| 20260906110827 | 25 | 120 | 1.6 | 4.8 | 0.00 | 0.00 | 0.00 | 85 | 1013.7 |
| 20260906110806 | 25 | 117 | 0.0 | 4.8 | 0.00 | 0.00 | 0.00 | 85 | 1013.7 |
| 20260906110753 | 25 | 120 | 0.0 | 4.8 | 0.00 | 0.00 | 0.00 | 85 | 1013.7 |
| 20260906110514 | 25 | 120 | 1.6 | 4.8 | 0.00 | 0.00 | 0.00 | 85 | 1013.7 |
| 20260906110446 | 25 | 118 | 3.2 | 4.8 | 0.00 | 0.00 | 0.00 | 85 | 1013.7 |
| 20260906110415 | 25 | 118 | 1.6 | 4.8 | 0.00 | 0.00 | 0.00 | 85 | 1013.7 |
| 20260906110346 | 25 | 118 | 1.6 | 4.8 | 0.00 | 0.00 | 0.00 | 85 | 1013.7 |
| 20260906110106 | 25 | 118 | 3.2 | 4.8 | 0.00 | 0.00 | 0.00 | 85 | 1013.7 |
| 20260906110027 | 25 | 135 | 3.2 | 3.2 | 0.00 | 0.00 | 0.00 | 85 | 1013.6 |
| 20260906110015 | 25 | 137 | 3.2 | 4.8 | 0.00 | 0.00 | 0.00 | 85 | 1013.8 |
| 20260906105945 | 25 | 137 | 1.6 | 3.2 | 0.00 | 0.00 | 0.00 | 85 | 1013.7 |
| 20260906105916 | 25 | 137 | 3.2 | 3.2 | 0.00 | 0.00 | 0.00 | 85 | 1013.7 |
| 20260906105846 | 25 | 135 | 3.2 | 3.2 | 0.00 | 0.00 | 0.00 | 85 | 1013.7 |
| 20260906105606 | 25 | 135 | 1.6 | 3.2 | 0.00 | 0.00 | 0.00 | 85 | 1013.6 |
| 20260906105506 | 25 | 135 | 1.6 | 3.2 | 0.00 | 0.00 | 0.00 | 84 | 1013.6 |
| 20260906105402 | 25 | 135 | 1.6 | 3.2 | 0.00 | 0.00 | 0.00 | 84 | 1013.6 |
| 20260906105301 | 25 | 135 | 1.6 | 3.2 | 0.00 | 0.00 | 0.00 | 84 | 1013.5 |
| 20260906105200 | 25 | 135 | 1.6 | 3.2 | 0.00 | 0.00 | 0.00 | 84 | 1013.5 |
| 20260906105116 | 25 | 135 | 0.0 | 3.2 | 0.00 | 0.00 | 0.00 | 84 | 1013.5 |
| 20260906105058 | 25 | 135 | 0.0 | 3.2 | 0.00 | 0.00 | 0.00 | 84 | 1013.5 |
| 20260906104957 | 25 | 135 | 1.6 | 3.2 | 0.00 | 0.00 | 0.00 | 84 | 1013.4 |
| 20260906104855 | 25 | 135 | 1.6 | 3.2 | 0.00 | 0.00 | 0.00 | 84 | 1013.4 |
| 20260906104755 | 25 | 135 | 0.0 | 1.6 | 0.00 | 0.00 | 0.00 | 84 | 1013.4 |
| 20260906104651 | 25 | 135 | 0.0 | 1.6 | 0.00 | 0.00 | 0.00 | 84 | 1013.5 |
| 20260906104616 | 25 | 135 | 0.0 | 1.6 | 0.00 | 0.00 | 0.00 | 84 | 1013.4 |
| 20260906104551 | 25 | 135 | 0.0 | 1.6 | 0.00 | 0.00 | 0.00 | 84 | 1013.4 |
| 20260906104448 | 25 | 135 | 0.0 | 1.6 | 0.00 | 0.00 | 0.00 | 84 | 1013.4 |
| 20260906104417 | 25 | 135 | 0.0 | 3.2 | 0.00 | 0.00 | 0.00 | 84 | 1013.3 |
| 20260906104401 | 25 | 135 | 0.0 | 1.6 | 0.00 | 0.00 | 0.00 | 84 | 1013.4 |
| 20260906104329 | 25 | 135 | 0.0 | 1.6 | 0.00 | 0.00 | 0.00 | 84 | 1013.4 |
| 20260906104259 | 25 | 135 | 0.0 | 1.6 | 0.00 | 0.00 | 0.00 | 84 | 1013.4 |
| 20260906104243 | 25 | 135 | 0.0 | 3.2 | 0.00 | 0.00 | 0.00 | 84 | 1013.4 |
| 20260906104225 | 25 | 135 | 0.0 | 3.2 | 0.00 | 0.00 | 0.00 | 84 | 1013.4 |
| 20260906103945 | 25 | 135 | 0.0 | 3.2 | 0.00 | 0.00 | 0.00 | 84 | 1013.4 |
| 20260906103913 | 25 | 135 | 1.6 | 3.2 | 0.00 | 0.00 | 0.00 | 84 | 1013.3 |
| 20260906103843 | 25 | 135 | 1.6 | 3.2 | 0.00 | 0.00 | 0.00 | 84 | 1013.4 |
| 20260906103811 | 25 | 135 | 1.6 | 3.2 | 0.00 | 0.00 | 0.00 | 84 | 1013.4 |
| 20260906103800 | 25 | 135 | 0.0 | 3.2 | 0.00 | 0.00 | 0.00 | 84 | 1013.4 |
| 20260906103532 | 25 | 135 | 0.0 | 3.2 | 0.00 | 0.00 | 0.00 | 84 | 1013.4 |
| 20260906103501 | 25 | 135 | 0.0 | 3.2 | 0.00 | 0.00 | 0.00 | 84 | 1013.3 |
| 20260906103432 | 25 | 135 | 1.6 | 3.2 | 0.00 | 0.00 | 0.00 | 84 | 1013.3 |
| 20260906103401 | 25 | 135 | 1.6 | 3.2 | 0.00 | 0.00 | 0.00 | 84 | 1013.4 |
| 20260906103330 | 25 | 135 | 0.0 | 3.2 | 0.00 | 0.00 | 0.00 | 84 | 1013.3 |
| 20260906103027 | 25 | 135 | 0.0 | 3.2 | 0.00 | 0.00 | 0.00 | 83 | 1013.3 |
| 20260906102919 | 25 | 135 | 0.0 | 3.2 | 0.00 | 0.00 | 0.00 | 83 | 1013.4 |
| 20260906102820 | 25 | 135 | 0.0 | 3.2 | 0.00 | 0.00 | 0.00 | 83 | 1013.4 |
| 20260906102719 | 25 | 135 | 1.6 | 3.2 | 0.00 | 0.00 | 0.00 | 83 | 1013.4 |
| 20260906102614 | 25 | 135 | 1.6 | 3.2 | 0.00 | 0.00 | 0.00 | 83 | 1013.4 |
| 20260906102517 | 25 | 135 | 1.6 | 3.2 | 0.00 | 0.00 | 0.00 | 83 | 1013.4 |
| 20260906102412 | 25 | 135 | 3.2 | 3.2 | 0.00 | 0.00 | 0.00 | 83 | 1013.3 |
| 20260906102311 | 25 | 135 | 1.6 | 3.2 | 0.00 | 0.00 | 0.00 | 83 | 1013.4 |
| 20260906102210 | 25 | 135 | 1.6 | 3.2 | 0.00 | 0.00 | 0.00 | 83 | 1013.5 |
| 20260906102106 | 25 | 135 | 1.6 | 3.2 | 0.00 | 0.00 | 0.00 | 83 | 1013.4 |
| 20260906102006 | 25 | 135 | 1.6 | 3.2 | 0.00 | 0.00 | 0.00 | 83 | 1013.4 |
| 20260906101903 | 25 | 135 | 1.6 | 3.2 | 0.00 | 0.00 | 0.00 | 83 | 1013.4 |
| 20260906101805 | 25 | 135 | 0.0 | 3.2 | 0.00 | 0.00 | 0.00 | 83 | 1013.3 |
| 20260906101657 | 25 | 135 | 0.0 | 3.2 | 0.00 | 0.00 | 0.00 | 83 | 1013.5 |
| 20260906101607 | 25 | 135 | 1.6 | 3.2 | 0.00 | 0.00 | 0.00 | 83 | 1013.4 |
| 20260906101557 | 25 | 135 | 1.6 | 3.2 | 0.00 | 0.00 | 0.00 | 83 | 1013.4 |
| 20260906101455 | 25 | 135 | 0.0 | 3.2 | 0.00 | 0.00 | 0.00 | 82 | 1013.4 |
| 20260906101346 | 25 | 135 | 0.0 | 1.6 | 0.00 | 0.00 | 0.00 | 82 | 1013.4 |
| 20260906101244 | 26 | 135 | 0.0 | 0.0 | 0.00 | 0.00 | 0.00 | 83 | 1013.5 |
| 20260906101143 | 26 | 135 | 0.0 | 0.0 | 0.00 | 0.00 | 0.00 | 83 | 1013.3 |
| 20260906101106 | 26 | 135 | 0.0 | 0.0 | 0.00 | 0.00 | 0.00 | 83 | 1013.4 |
| 20260906101043 | 26 | 135 | 0.0 | 0.0 | 0.00 | 0.00 | 0.00 | 83 | 1013.4 |
| 20260906100932 | 26 | 135 | 0.0 | 0.0 | 0.00 | 0.00 | 0.00 | 83 | 1013.4 |
| 20260906100833 | 26 | 135 | 0.0 | 0.0 | 0.00 | 0.00 | 0.00 | 83 | 1013.3 |
| 20260906100734 | 26 | 135 | 0.0 | 0.0 | 0.00 | 0.00 | 0.00 | 82 | 1013.4 |
| 20260906100632 | 26 | 135 | 0.0 | 0.0 | 0.00 | 0.00 | 0.00 | 82 | 1013.4 |
| 20260906100606 | 26 | 135 | 0.0 | 0.0 | 0.00 | 0.00 | 0.00 | 82 | 1013.3 |
| 20260906100532 | 26 | 135 | 0.0 | 0.0 | 0.00 | 0.00 | 0.00 | 82 | 1013.3 |
| 20260906100433 | 26 | 135 | 0.0 | 0.0 | 0.00 | 0.00 | 0.00 | 82 | 1013.4 |
| 20260906100332 | 26 | 135 | 0.0 | 0.0 | 0.00 | 0.00 | 0.00 | 82 | 1013.5 |
| 20260906100232 | 26 | 135 | 0.0 | 0.0 | 0.00 | 0.00 | 0.00 | 82 | 1013.4 |
| 20260906100106 | 26 | 135 | 0.0 | 0.0 | 0.00 | 0.00 | 0.00 | 82 | 1013.4 |
| 20260906100031 | 26 | 135 | 0.0 | 0.0 | 0.00 | 0.00 | 0.00 | 82 | 1013.4 |
| 20260906095928 | 26 | 135 | 0.0 | 0.0 | 0.00 | 0.00 | 0.00 | 82 | 1013.4 |
| 20260906095827 | 26 | 135 | 0.0 | 0.0 | 0.00 | 0.00 | 0.00 | 82 | 1013.3 |
| 20260906095726 | 26 | 135 | 0.0 | 0.0 | 0.00 | 0.00 | 0.00 | 82 | 1013.4 |
| 20260906095605 | 26 | 135 | 0.0 | 0.0 | 0.00 | 0.00 | 0.00 | 82 | 1013.3 |
| 20260906095525 | 26 | 135 | 0.0 | 0.0 | 0.00 | 0.00 | 0.00 | 82 | 1013.3 |
| 20260906095506 | 26 | 135 | 0.0 | 0.0 | 0.00 | 0.00 | 0.00 | 82 | 1013.3 |
| 20260906095446 | 26 | 135 | 0.0 | 0.0 | 0.00 | 0.00 | 0.00 | 82 | 1013.3 |
| 20260906095417 | 26 | 135 | 0.0 | 0.0 | 0.00 | 0.00 | 0.00 | 82 | 1013.4 |
| 20260906095348 | 26 | 135 | 0.0 | 0.0 | 0.00 | 0.00 | 0.00 | 82 | 1013.3 |
| 20260906095319 | 26 | 135 | 0.0 | 0.0 | 0.00 | 0.00 | 0.00 | 82 | 1013.3 |
| 20260906095018 | 26 | 135 | 0.0 | 0.0 | 0.00 | 0.00 | 0.00 | 82 | 1013.3 |
| 20260906094918 | 26 | 135 | 0.0 | 0.0 | 0.00 | 0.00 | 0.00 | 82 | 1013.3 |
| 20260906094815 | 26 | 135 | 0.0 | 0.0 | 0.00 | 0.00 | 0.00 | 82 | 1013.3 |
| 20260906094715 | 26 | 135 | 0.0 | 0.0 | 0.00 | 0.00 | 0.00 | 82 | 1013.3 |
| 20260906094605 | 26 | 135 | 0.0 | 0.0 | 0.00 | 0.00 | 0.00 | 82 | 1013.1 |
| 20260906094512 | 26 | 135 | 0.0 | 0.0 | 0.00 | 0.00 | 0.00 | 81 | 1013.3 |
| 20260906094407 | 26 | 135 | 0.0 | 0.0 | 0.00 | 0.00 | 0.00 | 81 | 1013.3 |
| 20260906094305 | 26 | 135 | 0.0 | 0.0 | 0.00 | 0.00 | 0.00 | 81 | 1013.1 |
| 20260906094206 | 26 | 135 | 0.0 | 0.0 | 0.00 | 0.00 | 0.00 | 81 | 1013.3 |
| 20260906094102 | 26 | 135 | 0.0 | 0.0 | 0.00 | 0.00 | 0.00 | 81 | 1013.1 |
| 20260906094005 | 26 | 135 | 0.0 | 0.0 | 0.00 | 0.00 | 0.00 | 81 | 1013.1 |
| 20260906093905 | 26 | 135 | 0.0 | 0.0 | 0.00 | 0.00 | 0.00 | 81 | 1013.1 |
| 20260906093806 | 26 | 135 | 0.0 | 0.0 | 0.00 | 0.00 | 0.00 | 81 | 1013.1 |
| 20260906093705 | 26 | 135 | 0.0 | 0.0 | 0.00 | 0.00 | 0.00 | 81 | 1013.1 |
| 20260906093549 | 26 | 135 | 0.0 | 0.0 | 0.00 | 0.00 | 0.00 | 81 | 1013.1 |
| 20260906093502 | 26 | 135 | 0.0 | 0.0 | 0.00 | 0.00 | 0.00 | 81 | 1013.1 |
| 20260906093358 | 26 | 135 | 0.0 | 0.0 | 0.00 | 0.00 | 0.00 | 81 | 1013.1 |
| 20260906093258 | 26 | 135 | 0.0 | 0.0 | 0.00 | 0.00 | 0.00 | 81 | 1013.1 |
| 20260906093152 | 26 | 135 | 0.0 | 0.0 | 0.00 | 0.00 | 0.00 | 81 | 1013.0 |
| 20260906093048 | 26 | 135 | 0.0 | 0.0 | 0.00 | 0.00 | 0.00 | 81 | 1013.0 |
| 20260906092944 | 26 | 135 | 0.0 | 0.0 | 0.00 | 0.00 | 0.00 | 81 | 1013.0 |
| 20260906092842 | 26 | 135 | 0.0 | 0.0 | 0.00 | 0.00 | 0.00 | 81 | 1012.9 |
| 20260906092741 | 26 | 135 | 0.0 | 0.0 | 0.00 | 0.00 | 0.00 | 81 | 1012.9 |
| 20260906092639 | 26 | 135 | 0.0 | 0.0 | 0.00 | 0.00 | 0.00 | 81 | 1012.9 |
| 20260906092539 | 26 | 135 | 0.0 | 0.0 | 0.00 | 0.00 | 0.00 | 81 | 1013.0 |
| 20260906092436 | 26 | 135 | 0.0 | 0.0 | 0.00 | 0.00 | 0.00 | 81 | 1012.9 |
| 20260906092404 | 26 | 135 | 0.0 | 0.0 | 0.00 | 0.00 | 0.00 | 81 | 1013.0 |
| 20260906092232 | 26 | 135 | 0.0 | 0.0 | 0.00 | 0.00 | 0.00 | 81 | 1012.9 |
| 20260906092130 | 26 | 135 | 0.0 | 0.0 | 0.00 | 0.00 | 0.00 | 81 | 1012.9 |
| 20260906092032 | 26 | 135 | 0.0 | 0.0 | 0.00 | 0.00 | 0.00 | 81 | 1013.0 |
| 20260906091928 | 26 | 135 | 0.0 | 0.0 | 0.00 | 0.00 | 0.00 | 81 | 1013.0 |
| 20260906091827 | 26 | 135 | 0.0 | 0.0 | 0.00 | 0.00 | 0.00 | 81 | 1012.9 |
| 20260906091726 | 26 | 135 | 0.0 | 0.0 | 0.00 | 0.00 | 0.00 | 81 | 1012.9 |
| 20260906091626 | 26 | 135 | 0.0 | 0.0 | 0.00 | 0.00 | 0.00 | 81 | 1013.0 |
| 20260906091526 | 26 | 135 | 0.0 | 0.0 | 0.00 | 0.00 | 0.00 | 80 | 1012.9 |
| 20260906091426 | 26 | 141 | 0.0 | 0.0 | 0.00 | 0.00 | 0.00 | 80 | 1012.9 |
| 20260906091325 | 26 | 141 | 0.0 | 0.0 | 0.00 | 0.00 | 0.00 | 80 | 1012.9 |
| 20260906091226 | 26 | 141 | 0.0 | 0.0 | 0.00 | 0.00 | 0.00 | 80 | 1013.0 |
| 20260906091125 | 26 | 142 | 0.0 | 0.0 | 0.00 | 0.00 | 0.00 | 80 | 1013.0 |
| 20260906091026 | 26 | 148 | 0.0 | 0.0 | 0.00 | 0.00 | 0.00 | 80 | 1013.0 |
| 20260906090925 | 26 | 148 | 0.0 | 0.0 | 0.00 | 0.00 | 0.00 | 80 | 1012.9 |
| 20260906090820 | 26 | 148 | 0.0 | 0.0 | 0.00 | 0.00 | 0.00 | 80 | 1012.9 |
| 20260906090719 | 26 | 148 | 0.0 | 0.0 | 0.00 | 0.00 | 0.00 | 79 | 1012.9 |
| 20260906090617 | 26 | 148 | 0.0 | 0.0 | 0.00 | 0.00 | 0.00 | 79 | 1012.9 |
| 20260906090541 | 26 | 148 | 0.0 | 0.0 | 0.00 | 0.00 | 0.00 | 80 | 1012.9 |
| 20260906090514 | 26 | 149 | 0.0 | 0.0 | 0.00 | 0.00 | 0.00 | 80 | 1012.9 |
| 20260906090426 | 26 | 151 | 0.0 | 0.0 | 0.00 | 0.00 | 0.00 | 79 | 1012.9 |
| 20260906090416 | 26 | 149 | 0.0 | 0.0 | 0.00 | 0.00 | 0.00 | 79 | 1012.9 |
| 20260906090343 | 26 | 149 | 0.0 | 0.0 | 0.00 | 0.00 | 0.00 | 79 | 1012.9 |
| 20260906090311 | 26 | 149 | 0.0 | 0.0 | 0.00 | 0.00 | 0.00 | 79 | 1012.9 |
| 20260906090242 | 26 | 149 | 0.0 | 0.0 | 0.00 | 0.00 | 0.00 | 79 | 1012.9 |
| 20260906090208 | 26 | 149 | 0.0 | 0.0 | 0.00 | 0.00 | 0.00 | 79 | 1012.9 |
| 20260906085930 | 26 | 151 | 0.0 | 0.0 | 0.00 | 0.00 | 0.00 | 79 | 1012.9 |
| 20260906085901 | 26 | 151 | 0.0 | 0.0 | 0.00 | 0.00 | 0.00 | 79 | 1013.0 |
| 20260906085830 | 26 | 151 | 0.0 | 0.0 | 0.00 | 0.00 | 0.00 | 79 | 1012.9 |
| 20260906085759 | 26 | 151 | 0.0 | 0.0 | 0.00 | 0.00 | 0.00 | 79 | 1012.9 |
| 20260906085502 | 26 | 151 | 0.0 | 0.0 | 0.00 | 0.00 | 0.00 | 79 | 1012.9 |
| 20260906085449 | 26 | 151 | 0.0 | 0.0 | 0.00 | 0.00 | 0.00 | 79 | 1012.8 |
| 20260906085430 | 26 | 151 | 0.0 | 0.0 | 0.00 | 0.00 | 0.00 | 79 | 1013.0 |
| 20260906085356 | 26 | 151 | 0.0 | 0.0 | 0.00 | 0.00 | 0.00 | 79 | 1012.8 |
| 20260906085328 | 26 | 151 | 0.0 | 0.0 | 0.00 | 0.00 | 0.00 | 79 | 1012.9 |
| 20260906085259 | 26 | 151 | 0.0 | 0.0 | 0.00 | 0.00 | 0.00 | 79 | 1012.8 |
| 20260906085004 | 26 | 151 | 0.0 | 0.0 | 0.00 | 0.00 | 0.00 | 79 | 1012.7 |
| 20260906084903 | 26 | 151 | 0.0 | 0.0 | 0.00 | 0.00 | 0.00 | 79 | 1012.8 |
| 20260906084804 | 26 | 151 | 0.0 | 0.0 | 0.00 | 0.00 | 0.00 | 79 | 1012.8 |
| 20260906084703 | 26 | 151 | 0.0 | 0.0 | 0.00 | 0.00 | 0.00 | 79 | 1012.8 |
| 20260906084602 | 26 | 151 | 0.0 | 0.0 | 0.00 | 0.00 | 0.00 | 79 | 1012.9 |
| 20260906084539 | 26 | 151 | 0.0 | 0.0 | 0.00 | 0.00 | 0.00 | 79 | 1012.9 |
| 20260906084503 | 26 | 151 | 0.0 | 1.6 | 0.00 | 0.00 | 0.00 | 79 | 1012.8 |
| 20260906084403 | 26 | 151 | 0.0 | 1.6 | 0.00 | 0.00 | 0.00 | 79 | 1012.9 |
| 20260906084304 | 26 | 151 | 0.0 | 1.6 | 0.00 | 0.00 | 0.00 | 79 | 1012.8 |
| 20260906084201 | 26 | 151 | 0.0 | 1.6 | 0.00 | 0.00 | 0.00 | 79 | 1012.9 |
| 20260906084036 | 26 | 151 | 0.0 | 1.6 | 0.00 | 0.00 | 0.00 | 79 | 1012.7 |
| 20260906083943 | 26 | 151 | 0.0 | 1.6 | 0.00 | 0.00 | 0.00 | 79 | 1012.8 |
| 20260906083839 | 26 | 151 | 0.0 | 1.6 | 0.00 | 0.00 | 0.00 | 79 | 1012.7 |
| 20260906083740 | 26 | 151 | 0.0 | 1.6 | 0.00 | 0.00 | 0.00 | 79 | 1012.6 |
| 20260906083634 | 26 | 151 | 0.0 | 1.6 | 0.00 | 0.00 | 0.00 | 79 | 1012.7 |
| 20260906083533 | 26 | 151 | 0.0 | 1.6 | 0.00 | 0.00 | 0.00 | 78 | 1012.8 |
| 20260906083431 | 26 | 151 | 0.0 | 1.6 | 0.00 | 0.00 | 0.00 | 78 | 1012.7 |
| 20260906083331 | 26 | 151 | 0.0 | 1.6 | 0.00 | 0.00 | 0.00 | 78 | 1012.7 |
| 20260906083233 | 26 | 151 | 0.0 | 1.6 | 0.00 | 0.00 | 0.00 | 78 | 1012.7 |
| 20260906083132 | 26 | 151 | 0.0 | 1.6 | 0.00 | 0.00 | 0.00 | 78 | 1012.8 |
| 20260906083029 | 26 | 151 | 0.0 | 1.6 | 0.00 | 0.00 | 0.00 | 78 | 1012.7 |
| 20260906082943 | 26 | 151 | 0.0 | 4.8 | 0.00 | 0.00 | 0.00 | 78 | 1012.6 |
| 20260906082931 | 26 | 151 | 0.0 | 1.6 | 0.00 | 0.00 | 0.00 | 78 | 1012.7 |
| 20260906082902 | 26 | 151 | 0.0 | 1.6 | 0.00 | 0.00 | 0.00 | 78 | 1012.7 |
| 20260906082833 | 26 | 151 | 0.0 | 1.6 | 0.00 | 0.00 | 0.00 | 78 | 1012.6 |
| 20260906082803 | 26 | 151 | 0.0 | 1.6 | 0.00 | 0.00 | 0.00 | 78 | 1012.7 |
| 20260906082524 | 26 | 151 | 0.0 | 4.8 | 0.00 | 0.00 | 0.00 | 78 | 1012.6 |
| 20260906082422 | 26 | 151 | 0.0 | 4.8 | 0.00 | 0.00 | 0.00 | 78 | 1012.6 |
| 20260906082323 | 27 | 151 | 0.0 | 4.8 | 0.00 | 0.00 | 0.00 | 78 | 1012.6 |
| 20260906082218 | 27 | 151 | 0.0 | 4.8 | 0.00 | 0.00 | 0.00 | 79 | 1012.6 |
| 20260906082115 | 26 | 151 | 0.0 | 4.8 | 0.00 | 0.00 | 0.00 | 78 | 1012.6 |
| 20260906082033 | 26 | 151 | 0.0 | 4.8 | 0.00 | 0.00 | 0.00 | 78 | 1012.6 |
| 20260906082008 | 27 | 151 | 0.0 | 4.8 | 0.00 | 0.00 | 0.00 | 78 | 1012.5 |
| 20260906081906 | 26 | 151 | 0.0 | 4.8 | 0.00 | 0.00 | 0.00 | 78 | 1012.6 |
| 20260906081807 | 26 | 151 | 0.0 | 4.8 | 0.00 | 0.00 | 0.00 | 78 | 1012.6 |
| 20260906081706 | 26 | 151 | 1.6 | 4.8 | 0.00 | 0.00 | 0.00 | 78 | 1012.6 |
| 20260906081607 | 26 | 151 | 1.6 | 4.8 | 0.00 | 0.00 | 0.00 | 78 | 1012.5 |
| 20260906081533 | 26 | 151 | 1.6 | 4.8 | 0.00 | 0.00 | 0.00 | 78 | 1012.5 |
| 20260906081507 | 26 | 157 | 1.6 | 4.8 | 0.00 | 0.00 | 0.00 | 78 | 1012.5 |
| 20260906081406 | 26 | 157 | 1.6 | 4.8 | 0.00 | 0.00 | 0.00 | 78 | 1012.5 |
| 20260906081306 | 26 | 157 | 1.6 | 4.8 | 0.00 | 0.00 | 0.00 | 78 | 1012.5 |
| 20260906081206 | 26 | 157 | 1.6 | 4.8 | 0.00 | 0.00 | 0.00 | 78 | 1012.6 |
| 20260906081106 | 26 | 157 | 1.6 | 4.8 | 0.00 | 0.00 | 0.00 | 78 | 1012.6 |
| 20260906081031 | 26 | 157 | 1.6 | 4.8 | 0.00 | 0.00 | 0.00 | 78 | 1012.6 |
| 20260906081001 | 26 | 157 | 3.2 | 4.8 | 0.00 | 0.00 | 0.00 | 78 | 1012.7 |
| 20260906080859 | 26 | 157 | 3.2 | 4.8 | 0.00 | 0.00 | 0.00 | 78 | 1012.6 |
| 20260906080759 | 26 | 157 | 3.2 | 4.8 | 0.00 | 0.00 | 0.00 | 78 | 1012.6 |
| 20260906080658 | 26 | 158 | 1.6 | 4.8 | 0.00 | 0.00 | 0.00 | 78 | 1012.6 |
| 20260906080535 | 26 | 158 | 1.6 | 4.8 | 0.00 | 0.00 | 0.00 | 78 | 1012.6 |
| 20260906080447 | 26 | 158 | 1.6 | 4.8 | 0.00 | 0.00 | 0.00 | 78 | 1012.7 |
| 20260906080341 | 26 | 158 | 1.6 | 4.8 | 0.00 | 0.00 | 0.00 | 78 | 1012.7 |
| 20260906080241 | 26 | 158 | 1.6 | 4.8 | 0.00 | 0.00 | 0.00 | 77 | 1012.7 |
| 20260906080140 | 26 | 158 | 3.2 | 4.8 | 0.00 | 0.00 | 0.00 | 77 | 1012.7 |
| 20260906080031 | 26 | 158 | 1.6 | 4.8 | 0.00 | 0.00 | 0.00 | 77 | 1012.7 |
| 20260906075936 | 26 | 142 | 1.6 | 4.8 | 0.00 | 0.00 | 0.00 | 77 | 1012.7 |
| 20260906075836 | 26 | 141 | 1.6 | 4.8 | 0.00 | 0.00 | 0.00 | 77 | 1012.7 |
| 20260906075732 | 27 | 141 | 3.2 | 4.8 | 0.00 | 0.00 | 0.00 | 77 | 1012.7 |
| 20260906075625 | 27 | 138 | 3.2 | 4.8 | 0.00 | 0.00 | 0.00 | 77 | 1012.7 |
| 20260906075524 | 27 | 138 | 3.2 | 4.8 | 0.00 | 0.00 | 0.00 | 77 | 1012.8 |
| 20260906075438 | 27 | 138 | 0.0 | 1.6 | 0.00 | 0.00 | 0.00 | 77 | 1012.7 |
| 20260906075425 | 27 | 138 | 1.6 | 3.2 | 0.00 | 0.00 | 0.00 | 76 | 1012.7 |
| 20260906075354 | 27 | 138 | 1.6 | 3.2 | 0.00 | 0.00 | 0.00 | 76 | 1012.7 |
| 20260906075327 | 27 | 138 | 1.6 | 3.2 | 0.00 | 0.00 | 0.00 | 76 | 1012.7 |
| 20260906075259 | 27 | 138 | 0.0 | 1.6 | 0.00 | 0.00 | 0.00 | 76 | 1012.7 |
| 20260906075014 | 27 | 138 | 0.0 | 1.6 | 0.00 | 0.00 | 0.00 | 77 | 1012.7 |
| 20260906074914 | 27 | 138 | 0.0 | 1.6 | 0.00 | 0.00 | 0.00 | 77 | 1012.6 |
| 20260906074809 | 27 | 138 | 0.0 | 1.6 | 0.00 | 0.00 | 0.00 | 76 | 1012.6 |
| 20260906074706 | 27 | 138 | 0.0 | 1.6 | 0.00 | 0.00 | 0.00 | 76 | 1012.6 |
| 20260906074606 | 27 | 138 | 0.0 | 1.6 | 0.00 | 0.00 | 0.00 | 76 | 1012.6 |
| 20260906074504 | 27 | 138 | 0.0 | 1.6 | 0.00 | 0.00 | 0.00 | 76 | 1012.6 |
| 20260906074404 | 27 | 138 | 0.0 | 1.6 | 0.00 | 0.00 | 0.00 | 76 | 1012.6 |
| 20260906074304 | 27 | 138 | 0.0 | 1.6 | 0.00 | 0.00 | 0.00 | 76 | 1012.6 |
| 20260906074205 | 27 | 138 | 0.0 | 1.6 | 0.00 | 0.00 | 0.00 | 76 | 1012.7 |
| 20260906074103 | 27 | 138 | 0.0 | 1.6 | 0.00 | 0.00 | 0.00 | 76 | 1012.7 |
| 20260906074003 | 27 | 138 | 0.0 | 1.6 | 0.00 | 0.00 | 0.00 | 76 | 1012.7 |
| 20260906073903 | 27 | 138 | 0.0 | 1.6 | 0.00 | 0.00 | 0.00 | 75 | 1012.7 |
| 20260906073803 | 27 | 138 | 0.0 | 1.6 | 0.00 | 0.00 | 0.00 | 75 | 1012.7 |
| 20260906073703 | 27 | 138 | 0.0 | 1.6 | 0.00 | 0.00 | 0.00 | 75 | 1012.7 |
| 20260906073603 | 27 | 138 | 0.0 | 1.6 | 0.00 | 0.00 | 0.00 | 75 | 1012.6 |
| 20260906073504 | 27 | 138 | 0.0 | 1.6 | 0.00 | 0.00 | 0.00 | 75 | 1012.7 |
| 20260906073403 | 27 | 138 | 0.0 | 1.6 | 0.00 | 0.00 | 0.00 | 75 | 1012.7 |
| 20260906073303 | 27 | 138 | 0.0 | 3.2 | 0.00 | 0.00 | 0.00 | 75 | 1012.7 |
| 20260906073203 | 27 | 138 | 0.0 | 3.2 | 0.00 | 0.00 | 0.00 | 75 | 1012.7 |
| 20260906073103 | 27 | 138 | 0.0 | 3.2 | 0.00 | 0.00 | 0.00 | 75 | 1012.6 |
| 20260906073004 | 27 | 138 | 0.0 | 3.2 | 0.00 | 0.00 | 0.00 | 75 | 1012.6 |
| 20260906072903 | 27 | 138 | 0.0 | 3.2 | 0.00 | 0.00 | 0.00 | 75 | 1012.7 |
| 20260906072803 | 27 | 138 | 0.0 | 3.2 | 0.00 | 0.00 | 0.00 | 75 | 1012.6 |
| 20260906072704 | 27 | 138 | 0.0 | 3.2 | 0.00 | 0.00 | 0.00 | 75 | 1012.7 |
| 20260906072604 | 27 | 138 | 0.0 | 3.2 | 0.00 | 0.00 | 0.00 | 75 | 1012.7 |
| 20260906072512 | 27 | 138 | 0.0 | 3.2 | 0.00 | 0.00 | 0.00 | 75 | 1012.7 |
| 20260906072504 | 27 | 138 | 1.6 | 3.2 | 0.00 | 0.00 | 0.00 | 75 | 1012.7 |
| 20260906072402 | 27 | 138 | 1.6 | 3.2 | 0.00 | 0.00 | 0.00 | 75 | 1012.8 |
| 20260906072305 | 27 | 138 | 0.0 | 3.2 | 0.00 | 0.00 | 0.00 | 75 | 1012.7 |
| 20260906072204 | 27 | 138 | 1.6 | 3.2 | 0.00 | 0.00 | 0.00 | 75 | 1012.7 |
| 20260906072103 | 27 | 138 | 0.0 | 3.2 | 0.00 | 0.00 | 0.00 | 74 | 1012.8 |
| 20260906072012 | 27 | 138 | 0.0 | 3.2 | 0.00 | 0.00 | 0.00 | 74 | 1012.8 |
| 20260906072001 | 27 | 138 | 0.0 | 3.2 | 0.00 | 0.00 | 0.00 | 74 | 1012.8 |
| 20260906071859 | 27 | 138 | 0.0 | 3.2 | 0.00 | 0.00 | 0.00 | 74 | 1012.8 |
| 20260906071756 | 27 | 138 | 0.0 | 3.2 | 0.00 | 0.00 | 0.00 | 74 | 1012.9 |
| 20260906071656 | 27 | 138 | 1.6 | 3.2 | 0.00 | 0.00 | 0.00 | 74 | 1012.9 |
| 20260906071554 | 27 | 138 | 1.6 | 3.2 | 0.00 | 0.00 | 0.00 | 74 | 1012.9 |
| 20260906071513 | 27 | 138 | 1.6 | 3.2 | 0.00 | 0.00 | 0.00 | 74 | 1012.9 |
| 20260906071453 | 27 | 138 | 1.6 | 3.2 | 0.00 | 0.00 | 0.00 | 74 | 1012.9 |
| 20260906071417 | 27 | 138 | 1.6 | 3.2 | 0.00 | 0.00 | 0.00 | 73 | 1013.1 |
| 20260906071403 | 27 | 138 | 0.0 | 3.2 | 0.00 | 0.00 | 0.00 | 73 | 1013.0 |
| 20260906071332 | 27 | 138 | 0.0 | 3.2 | 0.00 | 0.00 | 0.00 | 73 | 1013.0 |
| 20260906071302 | 27 | 138 | 1.6 | 3.2 | 0.00 | 0.00 | 0.00 | 73 | 1013.0 |
| 20260906071230 | 27 | 138 | 1.6 | 3.2 | 0.00 | 0.00 | 0.00 | 73 | 1013.0 |
| 20260906070942 | 27 | 138 | 1.6 | 3.2 | 0.00 | 0.00 | 0.00 | 73 | 1013.1 |
| 20260906070842 | 27 | 138 | 1.6 | 1.6 | 0.00 | 0.00 | 0.00 | 73 | 1013.0 |
| 20260906070739 | 27 | 138 | 0.0 | 1.6 | 0.00 | 0.00 | 0.00 | 73 | 1013.0 |
| 20260906070638 | 27 | 138 | 0.0 | 1.6 | 0.00 | 0.00 | 0.00 | 73 | 1013.1 |
| 20260906070535 | 27 | 138 | 0.0 | 1.6 | 0.00 | 0.00 | 0.00 | 73 | 1012.9 |
| 20260906070504 | 27 | 138 | 0.0 | 1.6 | 0.00 | 0.00 | 0.00 | 73 | 1013.0 |
| 20260906070435 | 27 | 138 | 0.0 | 3.2 | 0.00 | 0.00 | 0.00 | 73 | 1013.0 |
| 20260906070334 | 27 | 138 | 0.0 | 3.2 | 0.00 | 0.00 | 0.00 | 72 | 1013.0 |
| 20260906070232 | 27 | 138 | 0.0 | 3.2 | 0.00 | 0.00 | 0.00 | 72 | 1013.0 |
| 20260906070131 | 28 | 138 | 0.0 | 3.2 | 0.00 | 0.00 | 0.00 | 72 | 1013.0 |
| 20260906070029 | 28 | 138 | 0.0 | 3.2 | 0.00 | 0.00 | 0.00 | 72 | 1013.0 |
| 20260906070005 | 28 | 138 | 0.0 | 3.2 | 0.00 | 0.00 | 0.00 | 72 | 1013.1 |
| 20260906065926 | 28 | 138 | 0.0 | 3.2 | 0.00 | 0.00 | 0.00 | 72 | 1013.1 |
| 20260906065824 | 28 | 138 | 0.0 | 3.2 | 0.00 | 0.00 | 0.00 | 72 | 1013.1 |
| 20260906065720 | 28 | 138 | 0.0 | 3.2 | 0.00 | 0.00 | 0.00 | 72 | 1013.1 |
| 20260906065620 | 28 | 138 | 1.6 | 3.2 | 0.00 | 0.00 | 0.00 | 72 | 1013.1 |
| 20260906065505 | 28 | 138 | 1.6 | 6.4 | 0.00 | 0.00 | 0.00 | 72 | 1013.1 |
| 20260906065420 | 28 | 138 | 0.0 | 6.4 | 0.00 | 0.00 | 0.00 | 72 | 1013.3 |
| 20260906065318 | 28 | 138 | 0.0 | 6.4 | 0.00 | 0.00 | 0.00 | 72 | 1013.1 |
| 20260906065218 | 28 | 138 | 0.0 | 6.4 | 0.00 | 0.00 | 0.00 | 72 | 1013.1 |
| 20260906065115 | 28 | 138 | 0.0 | 6.4 | 0.00 | 0.00 | 0.00 | 72 | 1013.3 |
| 20260906065005 | 28 | 138 | 0.0 | 6.4 | 0.00 | 0.00 | 0.00 | 72 | 1013.1 |
| 20260906064908 | 28 | 138 | 0.0 | 6.4 | 0.00 | 0.00 | 0.00 | 72 | 1013.1 |
| 20260906064805 | 28 | 138 | 3.2 | 6.4 | 0.00 | 0.00 | 0.00 | 72 | 1013.1 |
| 20260906064706 | 28 | 138 | 3.2 | 6.4 | 0.00 | 0.00 | 0.00 | 72 | 1013.1 |
| 20260906064605 | 28 | 141 | 3.2 | 6.4 | 0.00 | 0.00 | 0.00 | 72 | 1013.3 |
| 20260906064506 | 28 | 155 | 3.2 | 4.8 | 0.00 | 0.00 | 0.00 | 72 | 1013.1 |
| 20260906064347 | 28 | 155 | 3.2 | 4.8 | 0.00 | 0.00 | 0.00 | 72 | 1013.1 |
| 20260906064244 | 28 | 158 | 1.6 | 4.8 | 0.00 | 0.00 | 0.00 | 72 | 1013.1 |
| 20260906064142 | 28 | 158 | 3.2 | 4.8 | 0.00 | 0.00 | 0.00 | 72 | 1013.1 |
| 20260906064041 | 28 | 158 | 3.2 | 4.8 | 0.00 | 0.00 | 0.00 | 72 | 1013.3 |
| 20260906064003 | 28 | 158 | 3.2 | 4.8 | 0.00 | 0.00 | 0.00 | 72 | 1013.1 |
| 20260906063941 | 28 | 158 | 3.2 | 4.8 | 0.00 | 0.00 | 0.00 | 72 | 1013.1 |
| 20260906063834 | 28 | 159 | 3.2 | 6.4 | 0.00 | 0.00 | 0.00 | 72 | 1013.3 |
| 20260906063734 | 28 | 147 | 3.2 | 8.0 | 0.00 | 0.00 | 0.00 | 72 | 1013.1 |
| 20260906063633 | 28 | 168 | 3.2 | 8.0 | 0.00 | 0.00 | 0.00 | 72 | 1013.1 |
| 20260906063532 | 28 | 168 | 3.2 | 8.0 | 0.00 | 0.00 | 0.00 | 72 | 1013.1 |
| 20260906063505 | 28 | 168 | 3.2 | 8.0 | 0.00 | 0.00 | 0.00 | 72 | 1013.3 |
| 20260906063430 | 28 | 162 | 3.2 | 8.0 | 0.00 | 0.00 | 0.00 | 72 | 1013.3 |
| 20260906063329 | 28 | 165 | 3.2 | 8.0 | 0.00 | 0.00 | 0.00 | 72 | 1013.1 |
| 20260906063228 | 28 | 166 | 3.2 | 8.0 | 0.00 | 0.00 | 0.00 | 72 | 1013.3 |
| 20260906063126 | 28 | 171 | 3.2 | 8.0 | 0.00 | 0.00 | 0.00 | 72 | 1013.1 |
| 20260906063024 | 28 | 172 | 3.2 | 8.0 | 0.00 | 0.00 | 0.00 | 72 | 1013.3 |
| 20260906063005 | 28 | 182 | 3.2 | 8.0 | 0.00 | 0.00 | 0.00 | 72 | 1013.1 |
| 20260906062921 | 28 | 171 | 4.8 | 8.0 | 0.00 | 0.00 | 0.00 | 72 | 1013.1 |
| 20260906062820 | 28 | 190 | 3.2 | 9.7 | 0.00 | 0.00 | 0.00 | 73 | 1013.1 |
| 20260906062721 | 28 | 169 | 3.2 | 9.7 | 0.00 | 0.00 | 0.00 | 73 | 1013.1 |
| 20260906062620 | 28 | 172 | 4.8 | 9.7 | 0.00 | 0.00 | 0.00 | 73 | 1013.0 |
| 20260906062521 | 28 | 165 | 3.2 | 9.7 | 0.00 | 0.00 | 0.00 | 73 | 1013.0 |
| 20260906062505 | 28 | 162 | 3.2 | 9.7 | 0.00 | 0.00 | 0.00 | 73 | 1013.0 |
| 20260906062419 | 28 | 164 | 1.6 | 9.7 | 0.00 | 0.00 | 0.00 | 73 | 1013.0 |
| 20260906062320 | 28 | 152 | 1.6 | 9.7 | 0.00 | 0.00 | 0.00 | 73 | 1013.0 |
| 20260906062221 | 28 | 152 | 3.2 | 9.7 | 0.00 | 0.00 | 0.00 | 73 | 1013.0 |
| 20260906062120 | 28 | 152 | 3.2 | 9.7 | 0.00 | 0.00 | 0.00 | 73 | 1012.9 |
| 20260906062021 | 28 | 161 | 4.8 | 9.7 | 0.00 | 0.00 | 0.00 | 73 | 1012.9 |
| 20260906062004 | 28 | 133 | 4.8 | 9.7 | 0.00 | 0.00 | 0.00 | 73 | 1013.0 |
| 20260906061917 | 28 | 133 | 4.8 | 9.7 | 0.00 | 0.00 | 0.00 | 73 | 1013.0 |
| 20260906061906 | 28 | 158 | 1.6 | 6.4 | 0.00 | 0.00 | 0.00 | 73 | 1012.9 |
| 20260906061836 | 28 | 149 | 3.2 | 6.4 | 0.00 | 0.00 | 0.00 | 73 | 1013.0 |
| 20260906061807 | 28 | 157 | 1.6 | 6.4 | 0.00 | 0.00 | 0.00 | 73 | 1012.8 |
| 20260906061739 | 28 | 157 | 1.6 | 6.4 | 0.00 | 0.00 | 0.00 | 73 | 1012.8 |
| 20260906061714 | 28 | 158 | 1.6 | 6.4 | 0.00 | 0.00 | 0.00 | 73 | 1012.9 |
| 20260906061347 | 28 | 159 | 1.6 | 6.4 | 0.00 | 0.00 | 0.00 | 73 | 1012.8 |
| 20260906061246 | 28 | 166 | 1.6 | 6.4 | 0.00 | 0.00 | 0.00 | 73 | 1012.9 |
| 20260906061142 | 28 | 168 | 1.6 | 6.4 | 0.00 | 0.00 | 0.00 | 73 | 1012.8 |
| 20260906061034 | 28 | 168 | 3.2 | 6.4 | 0.00 | 0.00 | 0.00 | 73 | 1012.8 |
| 20260906060933 | 28 | 168 | 3.2 | 6.4 | 0.00 | 0.00 | 0.00 | 73 | 1012.9 |
| 20260906060829 | 28 | 124 | 3.2 | 6.4 | 0.00 | 0.00 | 0.00 | 73 | 1012.9 |
| 20260906060725 | 28 | 171 | 3.2 | 6.4 | 0.00 | 0.00 | 0.00 | 73 | 1012.9 |
| 20260906060623 | 28 | 148 | 3.2 | 6.4 | 0.00 | 0.00 | 0.00 | 73 | 1012.9 |
| 20260906060524 | 28 | 154 | 3.2 | 6.4 | 0.00 | 0.00 | 0.00 | 73 | 1012.9 |
| 20260906060458 | 28 | 142 | 3.2 | 4.8 | 0.00 | 0.00 | 0.00 | 73 | 1012.9 |
| 20260906060423 | 28 | 141 | 3.2 | 4.8 | 0.00 | 0.00 | 0.00 | 73 | 1012.9 |
| 20260906060402 | 28 | 144 | 3.2 | 4.8 | 0.00 | 0.00 | 0.00 | 73 | 1013.0 |
| 20260906060340 | 28 | 142 | 3.2 | 4.8 | 0.00 | 0.00 | 0.00 | 73 | 1012.9 |
| 20260906060310 | 28 | 141 | 3.2 | 4.8 | 0.00 | 0.00 | 0.00 | 73 | 1013.0 |
| 20260906060245 | 28 | 142 | 3.2 | 4.8 | 0.00 | 0.00 | 0.00 | 73 | 1013.0 |
| 20260906060219 | 28 | 144 | 3.2 | 4.8 | 0.00 | 0.00 | 0.00 | 73 | 1013.0 |
| 20260906055920 | 28 | 144 | 3.2 | 4.8 | 0.00 | 0.00 | 0.00 | 72 | 1013.0 |
| 20260906055818 | 28 | 147 | 3.2 | 4.8 | 0.00 | 0.00 | 0.00 | 72 | 1013.0 |
| 20260906055718 | 28 | 157 | 1.6 | 4.8 | 0.00 | 0.00 | 0.00 | 72 | 1013.1 |
| 20260906055621 | 28 | 157 | 3.2 | 4.8 | 0.00 | 0.00 | 0.00 | 72 | 1013.1 |
| 20260906055519 | 28 | 157 | 3.2 | 4.8 | 0.00 | 0.00 | 0.00 | 72 | 1013.0 |
| 20260906055456 | 28 | 157 | 3.2 | 4.8 | 0.00 | 0.00 | 0.00 | 72 | 1013.1 |
| 20260906055421 | 28 | 158 | 3.2 | 4.8 | 0.00 | 0.00 | 0.00 | 72 | 1013.1 |
| 20260906055319 | 28 | 158 | 3.2 | 4.8 | 0.00 | 0.00 | 0.00 | 72 | 1013.1 |
| 20260906055219 | 28 | 158 | 3.2 | 4.8 | 0.00 | 0.00 | 0.00 | 72 | 1013.1 |
| 20260906055117 | 28 | 165 | 3.2 | 4.8 | 0.00 | 0.00 | 0.00 | 72 | 1013.1 |
| 20260906055016 | 28 | 197 | 1.6 | 3.2 | 0.00 | 0.00 | 0.00 | 72 | 1013.1 |
| 20260906054956 | 28 | 207 | 1.6 | 3.2 | 0.00 | 0.00 | 0.00 | 72 | 1013.1 |
| 20260906054915 | 28 | 207 | 1.6 | 3.2 | 0.00 | 0.00 | 0.00 | 72 | 1013.1 |
| 20260906054813 | 28 | 207 | 1.6 | 1.6 | 0.00 | 0.00 | 0.00 | 72 | 1013.1 |
| 20260906054711 | 28 | 207 | 1.6 | 1.6 | 0.00 | 0.00 | 0.00 | 72 | 1013.3 |
| 20260906054606 | 28 | 207 | 1.6 | 1.6 | 0.00 | 0.00 | 0.00 | 72 | 1013.1 |
| 20260906054505 | 28 | 207 | 1.6 | 1.6 | 0.00 | 0.00 | 0.00 | 71 | 1013.1 |
| 20260906054453 | 28 | 207 | 1.6 | 1.6 | 0.00 | 0.00 | 0.00 | 71 | 1013.1 |
| 20260906054405 | 28 | 207 | 1.6 | 1.6 | 0.00 | 0.00 | 0.00 | 71 | 1013.1 |
| 20260906054304 | 28 | 207 | 0.0 | 1.6 | 0.00 | 0.00 | 0.00 | 71 | 1013.1 |
| 20260906054202 | 28 | 207 | 0.0 | 1.6 | 0.00 | 0.00 | 0.00 | 71 | 1013.1 |
| 20260906054103 | 28 | 207 | 0.0 | 1.6 | 0.00 | 0.00 | 0.00 | 71 | 1013.1 |
| 20260906054002 | 28 | 207 | 0.0 | 1.6 | 0.00 | 0.00 | 0.00 | 71 | 1013.1 |
| 20260906053954 | 28 | 207 | 0.0 | 1.6 | 0.00 | 0.00 | 0.00 | 71 | 1013.1 |
| 20260906053904 | 28 | 207 | 0.0 | 1.6 | 0.00 | 0.00 | 0.00 | 71 | 1013.1 |
| 20260906053803 | 28 | 207 | 0.0 | 1.6 | 0.00 | 0.00 | 0.00 | 71 | 1013.0 |
| 20260906053704 | 28 | 207 | 0.0 | 1.6 | 0.00 | 0.00 | 0.00 | 71 | 1013.0 |
| 20260906053602 | 28 | 207 | 0.0 | 1.6 | 0.00 | 0.00 | 0.00 | 71 | 1013.0 |
| 20260906053503 | 28 | 207 | 0.0 | 1.6 | 0.00 | 0.00 | 0.00 | 71 | 1013.0 |
| 20260906053454 | 28 | 207 | 0.0 | 1.6 | 0.00 | 0.00 | 0.00 | 71 | 1013.0 |
| 20260906053414 | 28 | 207 | 0.0 | 6.4 | 0.00 | 0.00 | 0.00 | 71 | 1013.0 |
| 20260906053404 | 28 | 207 | 1.6 | 3.2 | 0.00 | 0.00 | 0.00 | 71 | 1013.0 |
| 20260906053334 | 28 | 207 | 1.6 | 3.2 | 0.00 | 0.00 | 0.00 | 71 | 1012.9 |
| 20260906053305 | 28 | 207 | 0.0 | 4.8 | 0.00 | 0.00 | 0.00 | 71 | 1012.9 |
| 20260906053235 | 28 | 207 | 0.0 | 6.4 | 0.00 | 0.00 | 0.00 | 71 | 1013.0 |
| 20260906053205 | 28 | 207 | 0.0 | 6.4 | 0.00 | 0.00 | 0.00 | 71 | 1013.0 |
| 20260906052903 | 28 | 207 | 0.0 | 6.4 | 0.00 | 0.00 | 0.00 | 71 | 1013.0 |
| 20260906052801 | 28 | 207 | 0.0 | 6.4 | 0.00 | 0.00 | 0.00 | 71 | 1013.0 |
| 20260906052658 | 28 | 207 | 0.0 | 6.4 | 0.00 | 0.00 | 0.00 | 71 | 1013.0 |
| 20260906052555 | 28 | 207 | 0.0 | 6.4 | 0.00 | 0.00 | 0.00 | 71 | 1013.0 |
| 20260906052453 | 28 | 207 | 1.6 | 6.4 | 0.00 | 0.00 | 0.00 | 71 | 1013.0 |
| 20260906052353 | 28 | 207 | 3.2 | 6.4 | 0.00 | 0.00 | 0.00 | 71 | 1013.1 |
| 20260906052246 | 28 | 207 | 3.2 | 6.4 | 0.00 | 0.00 | 0.00 | 71 | 1013.0 |
| 20260906052145 | 28 | 199 | 0.0 | 4.8 | 0.00 | 0.00 | 0.00 | 70 | 1013.0 |
| 20260906052041 | 28 | 171 | 0.0 | 3.2 | 0.00 | 0.00 | 0.00 | 70 | 1013.0 |
| 20260906051939 | 28 | 171 | 0.0 | 3.2 | 0.00 | 0.00 | 0.00 | 71 | 1013.1 |
| 20260906051839 | 28 | 171 | 0.0 | 3.2 | 0.00 | 0.00 | 0.00 | 71 | 1013.1 |
| 20260906051735 | 28 | 171 | 0.0 | 3.2 | 0.00 | 0.00 | 0.00 | 71 | 1013.1 |
| 20260906051637 | 28 | 171 | 0.0 | 3.2 | 0.00 | 0.00 | 0.00 | 71 | 1013.1 |
| 20260906051533 | 28 | 171 | 1.6 | 3.2 | 0.00 | 0.00 | 0.00 | 71 | 1013.1 |
| 20260906051434 | 28 | 171 | 1.6 | 3.2 | 0.00 | 0.00 | 0.00 | 70 | 1013.1 |
| 20260906051333 | 28 | 171 | 3.2 | 3.2 | 0.00 | 0.00 | 0.00 | 70 | 1013.1 |
| 20260906051234 | 28 | 171 | 1.6 | 3.2 | 0.00 | 0.00 | 0.00 | 70 | 1013.1 |
| 20260906051133 | 28 | 172 | 1.6 | 3.2 | 0.00 | 0.00 | 0.00 | 70 | 1013.1 |
| 20260906051033 | 28 | 171 | 1.6 | 3.2 | 0.00 | 0.00 | 0.00 | 70 | 1013.1 |
| 20260906050949 | 28 | 171 | 1.6 | 3.2 | 0.00 | 0.00 | 0.00 | 70 | 1013.1 |
| 20260906050935 | 28 | 140 | 0.0 | 3.2 | 0.00 | 0.00 | 0.00 | 70 | 1013.1 |
| 20260906050834 | 28 | 137 | 1.6 | 3.2 | 0.00 | 0.00 | 0.00 | 70 | 1013.0 |
| 20260906050734 | 28 | 137 | 1.6 | 3.2 | 0.00 | 0.00 | 0.00 | 70 | 1013.0 |
| 20260906050630 | 28 | 137 | 0.0 | 3.2 | 0.00 | 0.00 | 0.00 | 70 | 1013.0 |
| 20260906050530 | 28 | 137 | 1.6 | 3.2 | 0.00 | 0.00 | 0.00 | 70 | 1013.0 |
| 20260906050427 | 28 | 137 | 1.6 | 3.2 | 0.00 | 0.00 | 0.00 | 70 | 1013.0 |
| 20260906050326 | 28 | 137 | 1.6 | 3.2 | 0.00 | 0.00 | 0.00 | 70 | 1013.1 |
| 20260906050225 | 28 | 137 | 0.0 | 1.6 | 0.00 | 0.00 | 0.00 | 70 | 1013.1 |
| 20260906050121 | 28 | 137 | 0.0 | 1.6 | 0.00 | 0.00 | 0.00 | 70 | 1013.0 |
| 20260906050022 | 28 | 137 | 0.0 | 1.6 | 0.00 | 0.00 | 0.00 | 70 | 1013.1 |
| 20260906045923 | 28 | 137 | 0.0 | 1.6 | 0.00 | 0.00 | 0.00 | 70 | 1013.1 |
| 20260906045820 | 28 | 137 | 0.0 | 1.6 | 0.00 | 0.00 | 0.00 | 70 | 1013.0 |
| 20260906045718 | 28 | 137 | 0.0 | 3.2 | 0.00 | 0.00 | 0.00 | 70 | 1013.1 |
| 20260906045619 | 28 | 137 | 0.0 | 3.2 | 0.00 | 0.00 | 0.00 | 70 | 1013.1 |
| 20260906045518 | 28 | 137 | 0.0 | 4.8 | 0.00 | 0.00 | 0.00 | 70 | 1013.1 |
| 20260906045451 | 29 | 137 | 0.0 | 4.8 | 0.00 | 0.00 | 0.00 | 70 | 1013.1 |
| 20260906045416 | 28 | 137 | 0.0 | 4.8 | 0.00 | 0.00 | 0.00 | 70 | 1013.1 |
| 20260906045352 | 29 | 137 | 0.0 | 6.4 | 0.00 | 0.00 | 0.00 | 70 | 1013.1 |
| 20260906045335 | 29 | 137 | 0.0 | 4.8 | 0.00 | 0.00 | 0.00 | 70 | 1013.1 |
| 20260906045306 | 29 | 137 | 0.0 | 4.8 | 0.00 | 0.00 | 0.00 | 70 | 1013.1 |
| 20260906045233 | 29 | 137 | 0.0 | 4.8 | 0.00 | 0.00 | 0.00 | 70 | 1013.1 |
| 20260906045203 | 29 | 137 | 0.0 | 6.4 | 0.00 | 0.00 | 0.00 | 70 | 1013.1 |
| 20260906044917 | 29 | 137 | 0.0 | 6.4 | 0.00 | 0.00 | 0.00 | 70 | 1013.1 |
| 20260906044817 | 29 | 137 | 1.6 | 6.4 | 0.00 | 0.00 | 0.00 | 70 | 1013.1 |
| 20260906044716 | 29 | 137 | 3.2 | 6.4 | 0.00 | 0.00 | 0.00 | 70 | 1013.1 |
| 20260906044616 | 29 | 137 | 3.2 | 6.4 | 0.00 | 0.00 | 0.00 | 70 | 1013.1 |
| 20260906044512 | 29 | 138 | 3.2 | 6.4 | 0.00 | 0.00 | 0.00 | 69 | 1013.1 |
| 20260906044439 | 29 | 140 | 3.2 | 6.4 | 0.00 | 0.00 | 0.00 | 69 | 1013.1 |
| 20260906044409 | 29 | 140 | 3.2 | 6.4 | 0.00 | 0.00 | 0.00 | 69 | 1013.0 |
| 20260906044308 | 29 | 144 | 3.2 | 6.4 | 0.00 | 0.00 | 0.00 | 69 | 1013.1 |
| 20260906044208 | 29 | 148 | 4.8 | 6.4 | 0.00 | 0.00 | 0.00 | 69 | 1013.1 |
| 20260906044106 | 29 | 141 | 3.2 | 6.4 | 0.00 | 0.00 | 0.00 | 69 | 1013.1 |
| 20260906044007 | 29 | 155 | 3.2 | 6.4 | 0.00 | 0.00 | 0.00 | 69 | 1013.1 |
| 20260906043938 | 29 | 168 | 3.2 | 6.4 | 0.00 | 0.00 | 0.00 | 69 | 1013.1 |
| 20260906043906 | 29 | 161 | 3.2 | 6.4 | 0.00 | 0.00 | 0.00 | 69 | 1013.0 |
| 20260906043808 | 29 | 138 | 3.2 | 6.4 | 0.00 | 0.00 | 0.00 | 69 | 1013.1 |
| 20260906043707 | 29 | 178 | 3.2 | 6.4 | 0.00 | 0.00 | 0.00 | 69 | 1013.1 |
| 20260906043607 | 29 | 141 | 3.2 | 6.4 | 0.00 | 0.00 | 0.00 | 69 | 1013.1 |
| 20260906043455 | 29 | 152 | 3.2 | 6.4 | 0.00 | 0.00 | 0.00 | 69 | 1013.1 |
| 20260906043435 | 29 | 154 | 3.2 | 6.4 | 0.00 | 0.00 | 0.00 | 69 | 1013.1 |
| 20260906043352 | 29 | 158 | 3.2 | 6.4 | 0.00 | 0.00 | 0.00 | 69 | 1013.1 |
| 20260906043340 | 29 | 149 | 3.2 | 6.4 | 0.00 | 0.00 | 0.00 | 69 | 1013.1 |
| 20260906043316 | 29 | 166 | 3.2 | 6.4 | 0.00 | 0.00 | 0.00 | 69 | 1013.0 |
| 20260906043244 | 29 | 144 | 4.8 | 6.4 | 0.00 | 0.00 | 0.00 | 69 | 1013.1 |
| 20260906043214 | 29 | 145 | 3.2 | 6.4 | 0.00 | 0.00 | 0.00 | 69 | 1013.1 |
| 20260906043146 | 29 | 149 | 3.2 | 6.4 | 0.00 | 0.00 | 0.00 | 69 | 1013.1 |
| 20260906042836 | 29 | 166 | 4.8 | 6.4 | 0.00 | 0.00 | 0.00 | 69 | 1013.1 |
| 20260906042734 | 29 | 168 | 3.2 | 6.4 | 0.00 | 0.00 | 0.00 | 69 | 1013.1 |
| 20260906042634 | 29 | 165 | 3.2 | 6.4 | 0.00 | 0.00 | 0.00 | 69 | 1013.0 |
| 20260906042534 | 29 | 169 | 3.2 | 6.4 | 0.00 | 0.00 | 0.00 | 69 | 1013.0 |
| 20260906042439 | 29 | 169 | 3.2 | 6.4 | 0.00 | 0.00 | 0.00 | 69 | 1013.0 |
| 20260906042433 | 29 | 166 | 3.2 | 6.4 | 0.00 | 0.00 | 0.00 | 69 | 1013.0 |
| 20260906042332 | 29 | 168 | 1.6 | 6.4 | 0.00 | 0.00 | 0.00 | 69 | 1013.0 |
| 20260906042233 | 29 | 171 | 1.6 | 6.4 | 0.00 | 0.00 | 0.00 | 69 | 1013.0 |
| 20260906042132 | 29 | 171 | 3.2 | 6.4 | 0.00 | 0.00 | 0.00 | 69 | 1012.9 |
| 20260906042034 | 29 | 173 | 3.2 | 6.4 | 0.00 | 0.00 | 0.00 | 69 | 1012.9 |
| 20260906041938 | 29 | 168 | 3.2 | 6.4 | 0.00 | 0.00 | 0.00 | 69 | 1012.9 |
| 20260906041933 | 29 | 157 | 3.2 | 6.4 | 0.00 | 0.00 | 0.00 | 69 | 1012.9 |
| 20260906041831 | 29 | 154 | 3.2 | 8.0 | 0.00 | 0.00 | 0.00 | 69 | 1012.9 |
| 20260906041729 | 29 | 147 | 3.2 | 8.0 | 0.00 | 0.00 | 0.00 | 69 | 1012.9 |
| 20260906041626 | 29 | 168 | 3.2 | 8.0 | 0.00 | 0.00 | 0.00 | 69 | 1012.9 |
| 20260906041526 | 29 | 166 | 3.2 | 8.0 | 0.00 | 0.00 | 0.00 | 69 | 1012.9 |
| 20260906041431 | 29 | 147 | 3.2 | 8.0 | 0.00 | 0.00 | 0.00 | 69 | 1012.9 |
| 20260906041421 | 29 | 144 | 3.2 | 8.0 | 0.00 | 0.00 | 0.00 | 69 | 1012.9 |
| 20260906041321 | 29 | 144 | 3.2 | 8.0 | 0.00 | 0.00 | 0.00 | 69 | 1012.9 |
| 20260906041217 | 29 | 166 | 3.2 | 8.0 | 0.00 | 0.00 | 0.00 | 69 | 1012.9 |
| 20260906041117 | 29 | 169 | 3.2 | 8.0 | 0.00 | 0.00 | 0.00 | 68 | 1012.9 |
| 20260906041017 | 29 | 161 | 3.2 | 8.0 | 0.00 | 0.00 | 0.00 | 68 | 1012.9 |
| 20260906040932 | 29 | 159 | 3.2 | 8.0 | 0.00 | 0.00 | 0.00 | 68 | 1012.9 |
| 20260906040915 | 29 | 135 | 3.2 | 8.0 | 0.00 | 0.00 | 0.00 | 68 | 1012.9 |
| 20260906040816 | 29 | 175 | 3.2 | 6.4 | 0.00 | 0.00 | 0.00 | 68 | 1012.9 |
| 20260906040715 | 29 | 159 | 3.2 | 6.4 | 0.00 | 0.00 | 0.00 | 68 | 1013.0 |
| 20260906040614 | 29 | 158 | 3.2 | 6.4 | 0.00 | 0.00 | 0.00 | 68 | 1013.0 |
| 20260906040515 | 29 | 158 | 3.2 | 6.4 | 0.00 | 0.00 | 0.00 | 68 | 1013.0 |
| 20260906040432 | 29 | 162 | 3.2 | 6.4 | 0.00 | 0.00 | 0.00 | 68 | 1013.0 |
| 20260906040415 | 29 | 169 | 4.8 | 6.4 | 0.00 | 0.00 | 0.00 | 68 | 1013.0 |
| 20260906040316 | 29 | 124 | 4.8 | 6.4 | 0.00 | 0.00 | 0.00 | 68 | 1013.0 |
| 20260906040215 | 29 | 123 | 3.2 | 6.4 | 0.00 | 0.00 | 0.00 | 68 | 1013.0 |
| 20260906040117 | 29 | 161 | 3.2 | 6.4 | 0.00 | 0.00 | 0.00 | 68 | 1013.0 |
| 20260906040015 | 29 | 155 | 4.8 | 6.4 | 0.00 | 0.00 | 0.00 | 68 | 1012.9 |
| 20260906035932 | 29 | 155 | 4.8 | 6.4 | 0.00 | 0.00 | 0.00 | 68 | 1012.9 |
| 20260906035915 | 29 | 157 | 4.8 | 6.4 | 0.00 | 0.00 | 0.00 | 68 | 1012.9 |
| 20260906035815 | 29 | 140 | 3.2 | 6.4 | 0.00 | 0.00 | 0.00 | 68 | 1013.0 |
| 20260906035715 | 29 | 125 | 4.8 | 6.4 | 0.00 | 0.00 | 0.00 | 68 | 1013.0 |
| 20260906035616 | 29 | 131 | 4.8 | 6.4 | 0.00 | 0.00 | 0.00 | 68 | 1013.0 |
| 20260906035515 | 30 | 142 | 3.2 | 6.4 | 0.00 | 0.00 | 0.00 | 68 | 1013.0 |
| 20260906035413 | 30 | 142 | 3.2 | 6.4 | 0.00 | 0.00 | 0.00 | 68 | 1013.0 |
| 20260906035313 | 30 | 157 | 3.2 | 6.4 | 0.00 | 0.00 | 0.00 | 67 | 1013.0 |
| 20260906035210 | 30 | 130 | 3.2 | 6.4 | 0.00 | 0.00 | 0.00 | 67 | 1013.0 |
| 20260906035111 | 30 | 145 | 4.8 | 6.4 | 0.00 | 0.00 | 0.00 | 67 | 1013.0 |
| 20260906035010 | 30 | 142 | 4.8 | 6.4 | 0.00 | 0.00 | 0.00 | 67 | 1013.0 |
| 20260906034931 | 30 | 140 | 4.8 | 6.4 | 0.00 | 0.00 | 0.00 | 67 | 1013.0 |
| 20260906034909 | 30 | 169 | 4.8 | 6.4 | 0.00 | 0.00 | 0.00 | 67 | 1013.0 |
| 20260906034807 | 30 | 151 | 4.8 | 6.4 | 0.00 | 0.00 | 0.00 | 67 | 1013.1 |
| 20260906034706 | 30 | 165 | 4.8 | 6.4 | 0.00 | 0.00 | 0.00 | 67 | 1013.1 |
| 20260906034607 | 30 | 137 | 4.8 | 6.4 | 0.00 | 0.00 | 0.00 | 67 | 1013.1 |
| 20260906034506 | 30 | 141 | 3.2 | 6.4 | 0.00 | 0.00 | 0.00 | 67 | 1013.0 |
| 20260906034431 | 30 | 128 | 3.2 | 6.4 | 0.00 | 0.00 | 0.00 | 67 | 1013.0 |
| 20260906034406 | 30 | 152 | 3.2 | 6.4 | 0.00 | 0.00 | 0.00 | 67 | 1013.0 |
| 20260906034307 | 30 | 166 | 4.8 | 8.0 | 0.00 | 0.00 | 0.00 | 66 | 1013.0 |
| 20260906034158 | 30 | 164 | 3.2 | 8.0 | 0.00 | 0.00 | 0.00 | 66 | 1012.9 |
| 20260906034055 | 30 | 161 | 3.2 | 8.0 | 0.00 | 0.00 | 0.00 | 66 | 1013.0 |
| 20260906033953 | 30 | 188 | 3.2 | 8.0 | 0.00 | 0.00 | 0.00 | 66 | 1013.0 |
| 20260906033932 | 30 | 179 | 3.2 | 8.0 | 0.00 | 0.00 | 0.00 | 66 | 1013.0 |
| 20260906033854 | 30 | 179 | 3.2 | 9.7 | 0.00 | 0.00 | 0.00 | 66 | 1012.9 |
| 20260906033752 | 30 | 159 | 3.2 | 9.7 | 0.00 | 0.00 | 0.00 | 66 | 1012.9 |
| 20260906033642 | 30 | 161 | 3.2 | 9.7 | 0.00 | 0.00 | 0.00 | 66 | 1013.0 |
| 20260906033541 | 30 | 148 | 3.2 | 9.7 | 0.00 | 0.00 | 0.00 | 66 | 1013.0 |
| 20260906033433 | 30 | 147 | 4.8 | 9.7 | 0.00 | 0.00 | 0.00 | 66 | 1013.0 |
| 20260906033336 | 30 | 141 | 4.8 | 9.7 | 0.00 | 0.00 | 0.00 | 66 | 1013.0 |
| 20260906033232 | 30 | 148 | 4.8 | 9.7 | 0.00 | 0.00 | 0.00 | 66 | 1013.0 |
| 20260906033133 | 30 | 151 | 4.8 | 9.7 | 0.00 | 0.00 | 0.00 | 66 | 1013.0 |
| 20260906033032 | 30 | 131 | 4.8 | 11.3 | 0.00 | 0.00 | 0.00 | 66 | 1013.0 |
| 20260906032933 | 30 | 151 | 4.8 | 11.3 | 0.00 | 0.00 | 0.00 | 66 | 1012.9 |
| 20260906032834 | 30 | 178 | 4.8 | 11.3 | 0.00 | 0.00 | 0.00 | 65 | 1013.0 |
| 20260906032733 | 30 | 161 | 6.4 | 11.3 | 0.00 | 0.00 | 0.00 | 65 | 1013.0 |
| 20260906032633 | 30 | 151 | 6.4 | 11.3 | 0.00 | 0.00 | 0.00 | 65 | 1013.0 |
| 20260906032534 | 30 | 158 | 6.4 | 11.3 | 0.00 | 0.00 | 0.00 | 65 | 1013.0 |
| 20260906032432 | 30 | 158 | 6.4 | 11.3 | 0.00 | 0.00 | 0.00 | 65 | 1013.0 |
| 20260906032332 | 30 | 141 | 8.0 | 11.3 | 0.00 | 0.00 | 0.00 | 65 | 1013.0 |
| 20260906032234 | 30 | 130 | 8.0 | 11.3 | 0.00 | 0.00 | 0.00 | 65 | 1013.1 |
| 20260906032132 | 30 | 133 | 6.4 | 11.3 | 0.00 | 0.00 | 0.00 | 65 | 1013.0 |
| 20260906032034 | 30 | 165 | 4.8 | 14.5 | 0.00 | 0.00 | 0.00 | 65 | 1013.0 |
| 20260906031935 | 30 | 157 | 6.4 | 16.1 | 0.00 | 0.00 | 0.00 | 65 | 1013.0 |
| 20260906031834 | 30 | 197 | 4.8 | 16.1 | 0.00 | 0.00 | 0.00 | 65 | 1013.0 |
| 20260906031732 | 30 | 145 | 4.8 | 16.1 | 0.00 | 0.00 | 0.00 | 65 | 1013.0 |
| 20260906031633 | 30 | 171 | 6.4 | 16.1 | 0.00 | 0.00 | 0.00 | 65 | 1013.1 |
| 20260906031532 | 30 | 164 | 6.4 | 16.1 | 0.00 | 0.00 | 0.00 | 65 | 1013.1 |
| 20260906031432 | 30 | 148 | 6.4 | 16.1 | 0.00 | 0.00 | 0.00 | 65 | 1013.1 |
| 20260906031332 | 30 | 189 | 6.4 | 16.1 | 0.00 | 0.00 | 0.00 | 65 | 1013.1 |
| 20260906031233 | 30 | 171 | 8.0 | 16.1 | 0.00 | 0.00 | 0.00 | 65 | 1013.1 |
| 20260906031133 | 30 | 142 | 9.7 | 16.1 | 0.00 | 0.00 | 0.00 | 65 | 1013.3 |
| 20260906031034 | 30 | 157 | 8.0 | 16.1 | 0.00 | 0.00 | 0.00 | 65 | 1013.0 |
| 20260906030936 | 30 | 144 | 6.4 | 14.5 | 0.00 | 0.00 | 0.00 | 65 | 1013.0 |
| 20260906030931 | 30 | 166 | 6.4 | 14.5 | 0.00 | 0.00 | 0.00 | 65 | 1013.0 |
| 20260906030833 | 30 | 169 | 4.8 | 9.7 | 0.00 | 0.00 | 0.00 | 64 | 1013.1 |
| 20260906030733 | 30 | 166 | 4.8 | 9.7 | 0.00 | 0.00 | 0.00 | 64 | 1013.1 |
| 20260906030633 | 30 | 152 | 6.4 | 9.7 | 0.00 | 0.00 | 0.00 | 64 | 1013.0 |
| 20260906030532 | 30 | 148 | 6.4 | 9.7 | 0.00 | 0.00 | 0.00 | 64 | 1013.0 |
| 20260906030433 | 30 | 140 | 4.8 | 9.7 | 0.00 | 0.00 | 0.00 | 64 | 1013.0 |
| 20260906030334 | 30 | 147 | 4.8 | 9.7 | 0.00 | 0.00 | 0.00 | 64 | 1013.0 |
| 20260906030232 | 30 | 171 | 4.8 | 9.7 | 0.00 | 0.00 | 0.00 | 64 | 1013.1 |
| 20260906030131 | 30 | 161 | 4.8 | 9.7 | 0.00 | 0.00 | 0.00 | 64 | 1013.0 |
| 20260906030031 | 30 | 142 | 3.2 | 9.7 | 0.00 | 0.00 | 0.00 | 64 | 1013.0 |
| 20260906025930 | 30 | 159 | 3.2 | 9.7 | 0.00 | 0.00 | 0.00 | 64 | 1013.1 |
| 20260906025832 | 30 | 142 | 4.8 | 9.7 | 0.00 | 0.00 | 0.00 | 64 | 1013.0 |
| 20260906025733 | 30 | 141 | 3.2 | 9.7 | 0.00 | 0.00 | 0.00 | 64 | 1013.1 |
| 20260906025631 | 30 | 151 | 4.8 | 9.7 | 0.00 | 0.00 | 0.00 | 64 | 1013.1 |
| 20260906025533 | 30 | 152 | 4.8 | 9.7 | 0.00 | 0.00 | 0.00 | 64 | 1013.1 |
| 20260906025432 | 30 | 140 | 4.8 | 9.7 | 0.00 | 0.00 | 0.00 | 63 | 1013.1 |
| 20260906025325 | 30 | 171 | 6.4 | 14.5 | 0.00 | 0.00 | 0.00 | 63 | 1013.1 |
| 20260906025224 | 30 | 172 | 6.4 | 14.5 | 0.00 | 0.00 | 0.00 | 63 | 1013.3 |
| 20260906025123 | 30 | 130 | 4.8 | 14.5 | 0.00 | 0.00 | 0.00 | 63 | 1013.1 |
| 20260906025020 | 30 | 142 | 4.8 | 14.5 | 0.00 | 0.00 | 0.00 | 63 | 1013.0 |
| 20260906024921 | 30 | 125 | 4.8 | 14.5 | 0.00 | 0.00 | 0.00 | 63 | 1013.0 |
| 20260906024818 | 30 | 161 | 6.4 | 14.5 | 0.00 | 0.00 | 0.00 | 63 | 1013.0 |
| 20260906024713 | 30 | 154 | 6.4 | 14.5 | 0.00 | 0.00 | 0.00 | 63 | 1013.0 |
| 20260906024614 | 30 | 140 | 6.4 | 14.5 | 0.00 | 0.00 | 0.00 | 63 | 1013.0 |
| 20260906024513 | 30 | 145 | 6.4 | 14.5 | 0.00 | 0.00 | 0.00 | 63 | 1013.0 |
| 20260906024431 | 30 | 175 | 6.4 | 14.5 | 0.00 | 0.00 | 0.00 | 63 | 1012.9 |
| 20260906024413 | 30 | 161 | 6.4 | 14.5 | 0.00 | 0.00 | 0.00 | 63 | 1012.9 |
| 20260906024313 | 30 | 130 | 4.8 | 9.7 | 0.00 | 0.00 | 0.00 | 63 | 1012.9 |
| 20260906024212 | 30 | 165 | 4.8 | 9.7 | 0.00 | 0.00 | 0.00 | 62 | 1013.0 |
| 20260906024112 | 30 | 155 | 6.4 | 9.7 | 0.00 | 0.00 | 0.00 | 62 | 1012.9 |
| 20260906024014 | 30 | 169 | 6.4 | 11.3 | 0.00 | 0.00 | 0.00 | 62 | 1012.8 |
| 20260906023931 | 30 | 186 | 6.4 | 11.3 | 0.00 | 0.00 | 0.00 | 62 | 1012.8 |
| 20260906023913 | 30 | 147 | 6.4 | 11.3 | 0.00 | 0.00 | 0.00 | 62 | 1012.8 |
| 20260906023813 | 30 | 159 | 4.8 | 11.3 | 0.00 | 0.00 | 0.00 | 62 | 1012.9 |
| 20260906023712 | 30 | 180 | 4.8 | 11.3 | 0.00 | 0.00 | 0.00 | 62 | 1012.8 |
| 20260906023613 | 30 | 183 | 3.2 | 11.3 | 0.00 | 0.00 | 0.00 | 62 | 1012.8 |
| 20260906023513 | 30 | 178 | 3.2 | 11.3 | 0.00 | 0.00 | 0.00 | 62 | 1012.7 |
| 20260906023424 | 30 | 175 | 4.8 | 11.3 | 0.00 | 0.00 | 0.00 | 62 | 1012.8 |
| 20260906023412 | 30 | 173 | 4.8 | 11.3 | 0.00 | 0.00 | 0.00 | 62 | 1012.8 |
| 20260906023313 | 30 | 145 | 6.4 | 11.3 | 0.00 | 0.00 | 0.00 | 62 | 1012.7 |
| 20260906023211 | 31 | 141 | 6.4 | 16.1 | 0.00 | 0.00 | 0.00 | 61 | 1012.6 |
| 20260906023109 | 31 | 169 | 6.4 | 16.1 | 0.00 | 0.00 | 0.00 | 61 | 1012.6 |
| 20260906023006 | 31 | 165 | 6.4 | 20.9 | 0.00 | 0.00 | 0.00 | 61 | 1012.6 |
| 20260906022926 | 31 | 171 | 6.4 | 20.9 | 0.00 | 0.00 | 0.00 | 61 | 1012.6 |
| 20260906022905 | 31 | 148 | 6.4 | 20.9 | 0.00 | 0.00 | 0.00 | 61 | 1012.6 |
| 20260906022829 | 31 | 154 | 9.7 | 20.9 | 0.00 | 0.00 | 0.00 | 61 | 1012.5 |
| 20260906022815 | 31 | 144 | 8.0 | 20.9 | 0.00 | 0.00 | 0.00 | 61 | 1012.6 |
| 20260906022746 | 31 | 165 | 8.0 | 20.9 | 0.00 | 0.00 | 0.00 | 61 | 1012.6 |
| 20260906022717 | 31 | 133 | 8.0 | 20.9 | 0.00 | 0.00 | 0.00 | 61 | 1012.5 |
| 20260906022648 | 31 | 137 | 8.0 | 20.9 | 0.00 | 0.00 | 0.00 | 61 | 1012.5 |
| 20260906022404 | 31 | 138 | 9.7 | 20.9 | 0.00 | 0.00 | 0.00 | 61 | 1012.5 |
| 20260906022320 | 31 | 149 | 4.8 | 16.1 | 0.00 | 0.00 | 0.00 | 61 | 1012.5 |
| 20260906022310 | 31 | 159 | 9.7 | 20.9 | 0.00 | 0.00 | 0.00 | 61 | 1012.5 |
| 20260906022239 | 31 | 183 | 11.3 | 20.9 | 0.00 | 0.00 | 0.00 | 61 | 1012.4 |
| 20260906022213 | 31 | 168 | 8.0 | 20.9 | 0.00 | 0.00 | 0.00 | 61 | 1012.5 |
| 20260906022146 | 31 | 124 | 4.8 | 16.1 | 0.00 | 0.00 | 0.00 | 61 | 1012.5 |
| 20260906021906 | 31 | 161 | 4.8 | 16.1 | 0.00 | 0.00 | 0.00 | 61 | 1012.5 |
| 20260906021806 | 31 | 149 | 6.4 | 16.1 | 0.00 | 0.00 | 0.00 | 61 | 1012.4 |
| 20260906021704 | 31 | 152 | 6.4 | 16.1 | 0.00 | 0.00 | 0.00 | 61 | 1012.4 |
| 20260906021605 | 31 | 171 | 6.4 | 17.7 | 0.00 | 0.00 | 0.00 | 60 | 1012.5 |
| 20260906021505 | 31 | 157 | 8.0 | 17.7 | 0.00 | 0.00 | 0.00 | 60 | 1012.5 |
| 20260906021419 | 31 | 151 | 9.7 | 17.7 | 0.00 | 0.00 | 0.00 | 60 | 1012.5 |
| 20260906021405 | 31 | 175 | 8.0 | 17.7 | 0.00 | 0.00 | 0.00 | 60 | 1012.4 |
| 20260906021325 | 31 | 145 | 8.0 | 17.7 | 0.00 | 0.00 | 0.00 | 60 | 1012.4 |
| 20260906021314 | 31 | 125 | 6.4 | 17.7 | 0.00 | 0.00 | 0.00 | 60 | 1012.4 |
| 20260906021244 | 31 | 135 | 8.0 | 17.7 | 0.00 | 0.00 | 0.00 | 60 | 1012.4 |
| 20260906021215 | 31 | 155 | 8.0 | 17.7 | 0.00 | 0.00 | 0.00 | 60 | 1012.4 |
| 20260906021147 | 31 | 166 | 8.0 | 17.7 | 0.00 | 0.00 | 0.00 | 60 | 1012.4 |
| 20260906020904 | 31 | 171 | 6.4 | 17.7 | 0.00 | 0.00 | 0.00 | 60 | 1012.4 |
| 20260906020806 | 31 | 114 | 8.0 | 17.7 | 0.00 | 0.00 | 0.00 | 59 | 1012.4 |
| 20260906020650 | 31 | 124 | 9.7 | 17.7 | 0.00 | 0.00 | 0.00 | 59 | 1012.4 |
| 20260906020550 | 31 | 140 | 8.0 | 11.3 | 0.00 | 0.00 | 0.00 | 59 | 1012.3 |
| 20260906020446 | 31 | 128 | 8.0 | 11.3 | 0.00 | 0.00 | 0.00 | 59 | 1012.3 |
| 20260906020414 | 31 | 142 | 8.0 | 11.3 | 0.00 | 0.00 | 0.00 | 59 | 1012.3 |
| 20260906020342 | 31 | 173 | 6.4 | 11.3 | 0.00 | 0.00 | 0.00 | 59 | 1012.4 |
| 20260906020241 | 31 | 137 | 4.8 | 11.3 | 0.00 | 0.00 | 0.00 | 59 | 1012.3 |
| 20260906020140 | 31 | 145 | 4.8 | 11.3 | 0.00 | 0.00 | 0.00 | 58 | 1012.3 |
| 20260906020041 | 31 | 141 | 4.8 | 11.3 | 0.00 | 0.00 | 0.00 | 58 | 1012.3 |
| 20260906015939 | 31 | 152 | 6.4 | 11.3 | 0.00 | 0.00 | 0.00 | 58 | 1012.3 |
| 20260906015916 | 31 | 176 | 6.4 | 14.5 | 0.00 | 0.00 | 0.00 | 58 | 1012.3 |
| 20260906015838 | 31 | 142 | 6.4 | 14.5 | 0.00 | 0.00 | 0.00 | 58 | 1012.3 |
| 20260906015739 | 31 | 128 | 6.4 | 14.5 | 0.00 | 0.00 | 0.00 | 58 | 1012.3 |
| 20260906015635 | 32 | 130 | 6.4 | 14.5 | 0.00 | 0.00 | 0.00 | 58 | 1012.4 |
| 20260906015533 | 32 | 121 | 6.4 | 16.1 | 0.00 | 0.00 | 0.00 | 58 | 1012.3 |
| 20260906015433 | 32 | 154 | 6.4 | 16.1 | 0.00 | 0.00 | 0.00 | 57 | 1012.3 |
| 20260906015417 | 32 | 166 | 8.0 | 16.1 | 0.00 | 0.00 | 0.00 | 57 | 1012.3 |
| 20260906015333 | 32 | 149 | 8.0 | 16.1 | 0.00 | 0.00 | 0.00 | 57 | 1012.2 |
| 20260906015232 | 32 | 149 | 8.0 | 16.1 | 0.00 | 0.00 | 0.00 | 57 | 1012.3 |
| 20260906015132 | 32 | 116 | 6.4 | 16.1 | 0.00 | 0.00 | 0.00 | 57 | 1012.2 |
| 20260906015032 | 32 | 130 | 8.0 | 16.1 | 0.00 | 0.00 | 0.00 | 57 | 1012.3 |
| 20260906014934 | 32 | 135 | 6.4 | 16.1 | 0.00 | 0.00 | 0.00 | 57 | 1012.3 |
| 20260906014914 | 32 | 172 | 6.4 | 16.1 | 0.00 | 0.00 | 0.00 | 57 | 1012.3 |
| 20260906014834 | 32 | 145 | 6.4 | 16.1 | 0.00 | 0.00 | 0.00 | 56 | 1012.2 |
| 20260906014732 | 32 | 173 | 8.0 | 17.7 | 0.00 | 0.00 | 0.00 | 56 | 1012.2 |
| 20260906014632 | 32 | 144 | 8.0 | 17.7 | 0.00 | 0.00 | 0.00 | 56 | 1012.2 |
| 20260906014534 | 32 | 140 | 6.4 | 17.7 | 0.00 | 0.00 | 0.00 | 56 | 1012.1 |
| 20260906014432 | 32 | 185 | 8.0 | 17.7 | 0.00 | 0.00 | 0.00 | 56 | 1012.1 |
| 20260906014414 | 32 | 148 | 8.0 | 17.7 | 0.00 | 0.00 | 0.00 | 56 | 1012.1 |
| 20260906014332 | 32 | 125 | 8.0 | 17.7 | 0.00 | 0.00 | 0.00 | 56 | 1012.1 |
| 20260906014235 | 32 | 190 | 6.4 | 22.5 | 0.00 | 0.00 | 0.00 | 56 | 1012.2 |
| 20260906014134 | 32 | 140 | 6.4 | 22.5 | 0.00 | 0.00 | 0.00 | 56 | 1012.1 |
| 20260906014034 | 32 | 162 | 8.0 | 22.5 | 0.00 | 0.00 | 0.00 | 56 | 1012.2 |
| 20260906013934 | 32 | 142 | 9.7 | 22.5 | 0.00 | 0.00 | 0.00 | 55 | 1012.1 |
| 20260906013915 | 32 | 128 | 9.7 | 22.5 | 0.00 | 0.00 | 0.00 | 55 | 1012.1 |
| 20260906013833 | 32 | 182 | 11.3 | 22.5 | 0.00 | 0.00 | 0.00 | 55 | 1012.1 |
| 20260906013733 | 32 | 149 | 9.7 | 22.5 | 0.00 | 0.00 | 0.00 | 55 | 1012.1 |
| 20260906013634 | 32 | 155 | 8.0 | 22.5 | 0.00 | 0.00 | 0.00 | 55 | 1012.1 |
| 20260906013534 | 32 | 151 | 8.0 | 22.5 | 0.00 | 0.00 | 0.00 | 55 | 1012.0 |
| 20260906013501 | 33 | 151 | 14.5 | 24.1 | 0.00 | 0.00 | 0.00 | 52 | 1011.6 |
| 20260906013453 | 33 | 180 | 12.9 | 20.9 | 0.00 | 0.00 | 0.00 | 54 | 1011.9 |
| 20260906013443 | 32 | 175 | 11.3 | 22.5 | 0.00 | 0.00 | 0.00 | 55 | 1012.0 |
| 20260906013430 | 32 | 157 | 11.3 | 22.5 | 0.00 | 0.00 | 0.00 | 54 | 1012.0 |
| 20260906013408 | 32 | 148 | 11.3 | 22.5 | 0.00 | 0.00 | 0.00 | 54 | 1012.0 |
| 20260906013338 | 32 | 133 | 11.3 | 20.9 | 0.00 | 0.00 | 0.00 | 54 | 1012.0 |
| 20260906013308 | 32 | 168 | 11.3 | 20.9 | 0.00 | 0.00 | 0.00 | 54 | 1012.0 |
| 20260906013239 | 32 | 144 | 11.3 | 20.9 | 0.00 | 0.00 | 0.00 | 54 | 1012.0 |
| 20260906013206 | 33 | 131 | 12.9 | 20.9 | 0.00 | 0.00 | 0.00 | 54 | 1012.0 |
| 20260906012926 | 33 | 121 | 9.7 | 17.7 | 0.00 | 0.00 | 0.00 | 54 | 1011.9 |
| 20260906012856 | 33 | 106 | 8.0 | 24.1 | 0.00 | 0.00 | 0.00 | 54 | 1011.9 |
| 20260906012619 | 33 | 141 | 9.7 | 24.1 | 0.00 | 0.00 | 0.00 | 54 | 1011.9 |
| 20260906012609 | 34 | 130 | 3.2 | 6.4 | 0.00 | 0.00 | 0.00 | 47 | 1011.4 |
| 20260906012600 | 35 | 120 | 3.2 | 8.0 | 0.00 | 0.00 | 0.00 | 47 | 1011.3 |
| 20260906012553 | 35 | 125 | 4.8 | 9.7 | 0.00 | 0.00 | 0.00 | 46 | 1011.3 |
| 20260906012534 | 33 | 135 | 8.0 | 24.1 | 0.00 | 0.00 | 0.00 | 54 | 1011.9 |
| 20260906012504 | 33 | 147 | 8.0 | 24.1 | 0.00 | 0.00 | 0.00 | 54 | 1011.8 |
| 20260906012455 | 33 | 159 | 8.0 | 24.1 | 0.00 | 0.00 | 0.00 | 54 | 1011.8 |
| 20260906012427 | 33 | 131 | 6.4 | 24.1 | 0.00 | 0.00 | 0.00 | 53 | 1011.8 |
| 20260906012343 | 33 | 148 | 6.4 | 24.1 | 0.00 | 0.00 | 0.00 | 53 | 1011.8 |
| 20260906012313 | 33 | 154 | 8.0 | 24.1 | 0.00 | 0.00 | 0.00 | 53 | 1011.7 |
| 20260906012243 | 33 | 124 | 11.3 | 24.1 | 0.00 | 0.00 | 0.00 | 52 | 1011.7 |
| 20260906012213 | 33 | 127 | 14.5 | 24.1 | 0.00 | 0.00 | 0.00 | 52 | 1011.6 |
| 20260906011933 | 33 | 133 | 12.9 | 22.5 | 0.00 | 0.00 | 0.00 | 52 | 1011.6 |
| 20260906011901 | 33 | 123 | 12.9 | 22.5 | 0.00 | 0.00 | 0.00 | 51 | 1011.5 |
| 20260906011830 | 33 | 151 | 11.3 | 22.5 | 0.00 | 0.00 | 0.00 | 50 | 1011.6 |
| 20260906011759 | 33 | 140 | 6.4 | 11.3 | 0.00 | 0.00 | 0.00 | 49 | 1011.5 |
| 20260906011726 | 33 | 131 | 4.8 | 6.4 | 0.00 | 0.00 | 0.00 | 49 | 1011.6 |
| 20260906011658 | 33 | 111 | 3.2 | 4.8 | 0.00 | 0.00 | 0.00 | 49 | 1011.5 |
| 20260906011627 | 33 | 110 | 3.2 | 4.8 | 0.00 | 0.00 | 0.00 | 49 | 1011.4 |
| 20260906011556 | 33 | 116 | 1.6 | 3.2 | 0.00 | 0.00 | 0.00 | 49 | 1011.4 |
| 20260906011527 | 33 | 117 | 1.6 | 3.2 | 0.00 | 0.00 | 0.00 | 49 | 1011.4 |
| 20260906011506 | 33 | 116 | 1.6 | 4.8 | 0.00 | 0.00 | 0.00 | 49 | 1011.5 |
| 20260906011455 | 33 | 117 | 1.6 | 4.8 | 0.00 | 0.00 | 0.00 | 49 | 1011.5 |
| 20260906011425 | 33 | 111 | 1.6 | 4.8 | 0.00 | 0.00 | 0.00 | 49 | 1011.4 |
| 20260906011351 | 33 | 111 | 1.6 | 4.8 | 0.00 | 0.00 | 0.00 | 48 | 1011.5 |
| 20260906011320 | 33 | 111 | 1.6 | 4.8 | 0.00 | 0.00 | 0.00 | 48 | 1011.5 |
| 20260906011249 | 34 | 111 | 1.6 | 4.8 | 0.00 | 0.00 | 0.00 | 49 | 1011.5 |
| 20260906011227 | 34 | 111 | 1.6 | 4.8 | 0.00 | 0.00 | 0.00 | 48 | 1011.5 |
| 20260906011215 | 34 | 110 | 1.6 | 4.8 | 0.00 | 0.00 | 0.00 | 48 | 1011.5 |
| 20260906011144 | 34 | 111 | 1.6 | 4.8 | 0.00 | 0.00 | 0.00 | 48 | 1011.4 |
| 20260906011113 | 34 | 114 | 1.6 | 4.8 | 0.00 | 0.00 | 0.00 | 48 | 1011.5 |
| 20260906011044 | 34 | 114 | 1.6 | 8.0 | 0.00 | 0.00 | 0.00 | 48 | 1011.3 |
| 20260906011013 | 34 | 114 | 1.6 | 8.0 | 0.00 | 0.00 | 0.00 | 49 | 1011.4 |
| 20260906010957 | 34 | 123 | 1.6 | 8.0 | 0.00 | 0.00 | 0.00 | 48 | 1011.4 |
| 20260906010943 | 34 | 123 | 1.6 | 8.0 | 0.00 | 0.00 | 0.00 | 48 | 1011.4 |
| 20260906010913 | 34 | 123 | 3.2 | 8.0 | 0.00 | 0.00 | 0.00 | 48 | 1011.4 |
| 20260906010843 | 34 | 123 | 3.2 | 8.0 | 0.00 | 0.00 | 0.00 | 48 | 1011.4 |
| 20260906010815 | 34 | 125 | 3.2 | 8.0 | 0.00 | 0.00 | 0.00 | 48 | 1011.3 |
| 20260906010745 | 34 | 123 | 3.2 | 8.0 | 0.00 | 0.00 | 0.00 | 47 | 1011.3 |
| 20260906010727 | 34 | 123 | 3.2 | 8.0 | 0.00 | 0.00 | 0.00 | 47 | 1011.4 |
| 20260906010710 | 34 | 123 | 3.2 | 8.0 | 0.00 | 0.00 | 0.00 | 47 | 1011.4 |
| 20260906010640 | 34 | 134 | 4.8 | 8.0 | 0.00 | 0.00 | 0.00 | 47 | 1011.4 |
| 20260906010610 | 34 | 124 | 3.2 | 8.0 | 0.00 | 0.00 | 0.00 | 47 | 1011.3 |
| 20260906010539 | 34 | 158 | 3.2 | 6.4 | 0.00 | 0.00 | 0.00 | 47 | 1011.3 |
| 20260906010506 | 34 | 130 | 3.2 | 6.4 | 0.00 | 0.00 | 0.00 | 47 | 1011.3 |
| 20260906010227 | 34 | 131 | 3.2 | 6.4 | 0.00 | 0.00 | 0.00 | 47 | 1011.4 |
| 20260906010157 | 34 | 149 | 4.8 | 8.0 | 0.00 | 0.00 | 0.00 | 47 | 1011.3 |
| 20260906010128 | 34 | 124 | 3.2 | 8.0 | 0.00 | 0.00 | 0.00 | 47 | 1011.3 |
| 20260906010100 | 34 | 130 | 3.2 | 8.0 | 0.00 | 0.00 | 0.00 | 47 | 1011.3 |
| 20260906010030 | 35 | 133 | 3.2 | 8.0 | 0.00 | 0.00 | 0.00 | 47 | 1011.2 |
| 20260906010015 | 35 | 131 | 3.2 | 8.0 | 0.00 | 0.00 | 0.00 | 47 | 1011.3 |
| 20260906005955 | 35 | 131 | 3.2 | 8.0 | 0.00 | 0.00 | 0.00 | 47 | 1011.3 |
| 20260906004252 | 35 | 120 | 3.2 | 8.0 | 0.00 | 0.00 | 0.00 | 47 | 1011.3 |
| 20260906004220 | 35 | 117 | 3.2 | 9.7 | 0.00 | 0.00 | 0.00 | 47 | 1011.2 |
| 20260906004149 | 35 | 117 | 4.8 | 9.7 | 0.00 | 0.00 | 0.00 | 47 | 1011.3 |
| 20260906004118 | 35 | 121 | 4.8 | 9.7 | 0.00 | 0.00 | 0.00 | 46 | 1011.3 |
| 20260906003822 | 35 | 127 | 4.8 | 9.7 | 0.00 | 0.00 | 0.00 | 46 | 1011.3 |
| 20260906003718 | 35 | 128 | 4.8 | 9.7 | 0.00 | 0.00 | 0.00 | 46 | 1011.3 |
| 20260906003615 | 35 | 145 | 6.4 | 9.7 | 0.00 | 0.00 | 0.00 | 46 | 1011.3 |
| 20260906003514 | 35 | 127 | 4.8 | 9.7 | 0.00 | 0.00 | 0.00 | 46 | 1011.3 |
| 20260906003402 | 35 | 144 | 6.4 | 9.7 | 0.00 | 0.00 | 0.00 | 46 | 1011.3 |
| 20260906003321 | 35 | 138 | 3.2 | 9.7 | 0.00 | 0.00 | 0.00 | 46 | 1011.3 |
| 20260906003313 | 35 | 131 | 6.4 | 9.7 | 0.00 | 0.00 | 0.00 | 46 | 1011.3 |
| 20260906003245 | 35 | 66 | 6.4 | 9.7 | 0.00 | 0.00 | 0.00 | 46 | 1011.3 |
| 20260906003215 | 35 | 111 | 6.4 | 9.7 | 0.00 | 0.00 | 0.00 | 46 | 1011.3 |
| 20260906003148 | 35 | 109 | 4.8 | 9.7 | 0.00 | 0.00 | 0.00 | 46 | 1011.3 |
| 20260906003116 | 35 | 128 | 3.2 | 9.7 | 0.00 | 0.00 | 0.00 | 46 | 1011.3 |
| 20260906002812 | 35 | 138 | 4.8 | 9.7 | 0.00 | 0.00 | 0.00 | 46 | 1011.3 |
| 20260906002709 | 35 | 120 | 4.8 | 9.7 | 0.00 | 0.00 | 0.00 | 46 | 1011.3 |
| 20260906002611 | 35 | 144 | 4.8 | 9.7 | 0.00 | 0.00 | 0.00 | 45 | 1011.3 |
| 20260906002511 | 35 | 100 | 6.4 | 9.7 | 0.00 | 0.00 | 0.00 | 45 | 1011.4 |
| 20260906002410 | 35 | 125 | 4.8 | 9.7 | 0.00 | 0.00 | 0.00 | 45 | 1011.3 |
| 20260906002403 | 35 | 121 | 4.8 | 9.7 | 0.00 | 0.00 | 0.00 | 45 | 1011.4 |
| 20260906002311 | 35 | 121 | 6.4 | 9.7 | 0.00 | 0.00 | 0.00 | 45 | 1011.4 |
| 20260906002210 | 35 | 158 | 6.4 | 9.7 | 0.00 | 0.00 | 0.00 | 46 | 1011.3 |
| 20260906002110 | 35 | 133 | 6.4 | 11.3 | 0.00 | 0.00 | 0.00 | 45 | 1011.4 |
| 20260906002009 | 35 | 135 | 6.4 | 11.3 | 0.00 | 0.00 | 0.00 | 45 | 1011.3 |
| 20260906001912 | 35 | 145 | 4.8 | 11.3 | 0.00 | 0.00 | 0.00 | 45 | 1011.4 |
| 20260906001905 | 35 | 127 | 4.8 | 11.3 | 0.00 | 0.00 | 0.00 | 45 | 1011.3 |
| 20260906001810 | 35 | 155 | 4.8 | 11.3 | 0.00 | 0.00 | 0.00 | 45 | 1011.3 |
| 20260906001709 | 35 | 130 | 6.4 | 11.3 | 0.00 | 0.00 | 0.00 | 45 | 1011.4 |
| 20260906001610 | 35 | 142 | 6.4 | 14.5 | 0.00 | 0.00 | 0.00 | 45 | 1011.3 |
| 20260906001509 | 35 | 154 | 4.8 | 14.5 | 0.00 | 0.00 | 0.00 | 45 | 1011.3 |
| 20260906001412 | 35 | 168 | 4.8 | 14.5 | 0.00 | 0.00 | 0.00 | 45 | 1011.3 |
| 20260906001404 | 35 | 178 | 4.8 | 14.5 | 0.00 | 0.00 | 0.00 | 45 | 1011.4 |
| 20260906001310 | 35 | 134 | 6.4 | 14.5 | 0.00 | 0.00 | 0.00 | 44 | 1011.4 |
| 20260906001211 | 35 | 138 | 6.4 | 14.5 | 0.00 | 0.00 | 0.00 | 45 | 1011.3 |
| 20260906001109 | 35 | 127 | 6.4 | 14.5 | 0.00 | 0.00 | 0.00 | 46 | 1011.4 |
| 20260906001011 | 35 | 107 | 6.4 | 14.5 | 0.00 | 0.00 | 0.00 | 45 | 1011.3 |
| 20260906000911 | 35 | 133 | 6.4 | 14.5 | 0.00 | 0.00 | 0.00 | 45 | 1011.3 |
| 20260906000905 | 35 | 142 | 4.8 | 14.5 | 0.00 | 0.00 | 0.00 | 45 | 1011.3 |
| 20260906000809 | 35 | 135 | 8.0 | 14.5 | 0.00 | 0.00 | 0.00 | 44 | 1011.3 |
| 20260906000710 | 35 | 148 | 8.0 | 14.5 | 0.00 | 0.00 | 0.00 | 44 | 1011.3 |
| 20260906000609 | 35 | 144 | 6.4 | 11.3 | 0.00 | 0.00 | 0.00 | 44 | 1011.3 |
| 20260906000510 | 35 | 149 | 6.4 | 11.3 | 0.00 | 0.00 | 0.00 | 44 | 1011.2 |
| 20260906000412 | 35 | 168 | 4.8 | 11.3 | 0.00 | 0.00 | 0.00 | 44 | 1011.2 |
| 20260906000405 | 35 | 158 | 4.8 | 11.3 | 0.00 | 0.00 | 0.00 | 44 | 1011.2 |
| 20260906000306 | 35 | 134 | 6.4 | 11.3 | 0.00 | 0.00 | 0.00 | 45 | 1011.3 |
| 20260906000208 | 35 | 169 | 8.0 | 11.3 | 0.00 | 0.00 | 0.00 | 44 | 1011.3 |
| 20260906000107 | 35 | 128 | 8.0 | 11.3 | 0.00 | 0.00 | 0.00 | 44 | 1011.2 |
| 20260906000006 | 35 | 147 | 8.0 | 11.3 | 0.00 | 0.00 | 0.00 | 44 | 1011.2 |
| 20260905235905 | 35 | 123 | 8.0 | 11.3 | 0.00 | 0.00 | 0.00 | 45 | 1011.2 |
| 20260905235817 | 36 | 134 | 6.4 | 11.3 | 0.00 | 0.00 | 0.00 | 44 | 1011.1 |
| 20260905235808 | 36 | 111 | 6.4 | 11.3 | 0.00 | 0.00 | 0.00 | 44 | 1011.2 |
| 20260905235740 | 36 | 173 | 6.4 | 11.3 | 0.00 | 0.00 | 0.00 | 44 | 1011.2 |
| 20260905235711 | 36 | 147 | 6.4 | 11.3 | 0.00 | 0.00 | 0.00 | 44 | 1011.2 |
| 20260905235642 | 36 | 123 | 6.4 | 11.3 | 0.00 | 0.00 | 0.00 | 44 | 1011.1 |
| 20260905235614 | 36 | 134 | 6.4 | 11.3 | 0.00 | 0.00 | 0.00 | 44 | 1011.1 |
| 20260905235253 | 36 | 141 | 6.4 | 11.3 | 0.00 | 0.00 | 0.00 | 44 | 1011.1 |
| 20260905235153 | 36 | 124 | 6.4 | 14.5 | 0.00 | 0.00 | 0.00 | 43 | 1011.2 |
| 20260905235043 | 36 | 155 | 6.4 | 14.5 | 0.00 | 0.00 | 0.00 | 43 | 1011.1 |
| 20260905234941 | 36 | 128 | 6.4 | 14.5 | 0.00 | 0.00 | 0.00 | 43 | 1011.1 |
| 20260905234850 | 36 | 116 | 6.4 | 14.5 | 0.00 | 0.00 | 0.00 | 43 | 1011.1 |
| 20260905234839 | 36 | 175 | 6.4 | 14.5 | 0.00 | 0.00 | 0.00 | 43 | 1011.1 |
| 20260905234752 | 36 | 154 | 8.0 | 14.5 | 0.00 | 0.00 | 0.00 | 43 | 1011.0 |
| 20260905234744 | 36 | 166 | 6.4 | 14.5 | 0.00 | 0.00 | 0.00 | 43 | 1011.1 |
| 20260905234713 | 36 | 169 | 6.4 | 14.5 | 0.00 | 0.00 | 0.00 | 43 | 1011.0 |
| 20260905234646 | 36 | 173 | 8.0 | 14.5 | 0.00 | 0.00 | 0.00 | 43 | 1011.1 |
| 20260905234618 | 36 | 145 | 8.0 | 14.5 | 0.00 | 0.00 | 0.00 | 43 | 1011.1 |
| 20260905234332 | 36 | 110 | 8.0 | 14.5 | 0.00 | 0.00 | 0.00 | 43 | 1011.0 |
| 20260905234232 | 36 | 123 | 8.0 | 14.5 | 0.00 | 0.00 | 0.00 | 44 | 1011.0 |
| 20260905234133 | 36 | 155 | 6.4 | 14.5 | 0.00 | 0.00 | 0.00 | 44 | 1011.0 |
| 20260905234032 | 36 | 125 | 8.0 | 11.3 | 0.00 | 0.00 | 0.00 | 43 | 1011.0 |
| 20260905233931 | 36 | 140 | 8.0 | 11.3 | 0.00 | 0.00 | 0.00 | 43 | 1011.0 |
| 20260905233852 | 36 | 180 | 8.0 | 11.3 | 0.00 | 0.00 | 0.00 | 43 | 1011.1 |
| 20260905233831 | 36 | 202 | 8.0 | 11.3 | 0.00 | 0.00 | 0.00 | 43 | 1011.1 |
| 20260905233731 | 36 | 158 | 4.8 | 9.7 | 0.00 | 0.00 | 0.00 | 43 | 1011.0 |
| 20260905233633 | 36 | 148 | 6.4 | 8.0 | 0.00 | 0.00 | 0.00 | 43 | 1011.0 |
| 20260905233531 | 36 | 124 | 6.4 | 16.1 | 0.00 | 0.00 | 0.00 | 43 | 1011.1 |
| 20260905233430 | 36 | 130 | 4.8 | 17.7 | 0.00 | 0.00 | 0.00 | 43 | 1011.1 |
| 20260905233351 | 36 | 180 | 4.8 | 17.7 | 0.00 | 0.00 | 0.00 | 43 | 1011.0 |
| 20260905233332 | 36 | 168 | 4.8 | 17.7 | 0.00 | 0.00 | 0.00 | 43 | 1011.0 |
| 20260905233231 | 36 | 89 | 6.4 | 17.7 | 0.00 | 0.00 | 0.00 | 43 | 1011.0 |
| 20260905233132 | 36 | 151 | 6.4 | 17.7 | 0.00 | 0.00 | 0.00 | 44 | 1011.0 |
| 20260905233031 | 36 | 140 | 6.4 | 17.7 | 0.00 | 0.00 | 0.00 | 43 | 1011.0 |
| 20260905232932 | 36 | 124 | 6.4 | 17.7 | 0.00 | 0.00 | 0.00 | 43 | 1011.0 |
| 20260905232846 | 36 | 127 | 4.8 | 17.7 | 0.00 | 0.00 | 0.00 | 43 | 1010.9 |
| 20260905232832 | 36 | 164 | 4.8 | 17.7 | 0.00 | 0.00 | 0.00 | 44 | 1010.9 |
| 20260905232733 | 36 | 148 | 6.4 | 17.7 | 0.00 | 0.00 | 0.00 | 43 | 1011.0 |
| 20260905232632 | 36 | 141 | 9.7 | 17.7 | 0.00 | 0.00 | 0.00 | 43 | 1011.0 |
| 20260905232531 | 36 | 121 | 9.7 | 17.7 | 0.00 | 0.00 | 0.00 | 43 | 1010.9 |
| 20260905232431 | 36 | 137 | 8.0 | 16.1 | 0.00 | 0.00 | 0.00 | 43 | 1011.0 |
| 20260905232346 | 36 | 158 | 8.0 | 16.1 | 0.00 | 0.00 | 0.00 | 43 | 1011.0 |
| 20260905232331 | 36 | 123 | 8.0 | 16.1 | 0.00 | 0.00 | 0.00 | 43 | 1011.0 |
| 20260905232255 | 36 | 176 | 9.7 | 16.1 | 0.00 | 0.00 | 0.00 | 43 | 1011.1 |
| 20260905232242 | 36 | 137 | 6.4 | 16.1 | 0.00 | 0.00 | 0.00 | 44 | 1011.0 |
| 20260905232212 | 36 | 144 | 4.8 | 16.1 | 0.00 | 0.00 | 0.00 | 43 | 1011.1 |
| 20260905232141 | 36 | 173 | 4.8 | 16.1 | 0.00 | 0.00 | 0.00 | 43 | 1011.0 |
| 20260905232111 | 36 | 138 | 6.4 | 16.1 | 0.00 | 0.00 | 0.00 | 43 | 1011.1 |
| 20260905231822 | 36 | 140 | 8.0 | 16.1 | 0.00 | 0.00 | 0.00 | 43 | 1011.1 |
| 20260905231721 | 36 | 128 | 8.0 | 16.1 | 0.00 | 0.00 | 0.00 | 43 | 1011.1 |
| 20260905231621 | 36 | 117 | 6.4 | 16.1 | 0.00 | 0.00 | 0.00 | 43 | 1011.1 |
| 20260905231519 | 36 | 144 | 8.0 | 16.1 | 0.00 | 0.00 | 0.00 | 43 | 1011.1 |
| 20260905231416 | 36 | 179 | 9.7 | 16.1 | 0.00 | 0.00 | 0.00 | 42 | 1011.1 |
| 20260905231341 | 36 | 128 | 9.7 | 16.1 | 0.00 | 0.00 | 0.00 | 42 | 1011.1 |
| 20260905231316 | 36 | 155 | 9.7 | 16.1 | 0.00 | 0.00 | 0.00 | 42 | 1011.1 |
| 20260905231213 | 36 | 188 | 8.0 | 16.1 | 0.00 | 0.00 | 0.00 | 43 | 1011.1 |
| 20260905231112 | 36 | 97 | 8.0 | 16.1 | 0.00 | 0.00 | 0.00 | 43 | 1011.1 |
| 20260905231011 | 36 | 154 | 9.7 | 16.1 | 0.00 | 0.00 | 0.00 | 42 | 1011.1 |
| 20260905230907 | 36 | 131 | 8.0 | 16.1 | 0.00 | 0.00 | 0.00 | 42 | 1011.1 |
| 20260905230839 | 36 | 138 | 6.4 | 14.5 | 0.00 | 0.00 | 0.00 | 43 | 1011.1 |
| 20260905230809 | 36 | 140 | 6.4 | 16.1 | 0.00 | 0.00 | 0.00 | 43 | 1011.1 |
| 20260905230708 | 36 | 148 | 9.7 | 16.1 | 0.00 | 0.00 | 0.00 | 43 | 1011.2 |
| 20260905230609 | 36 | 128 | 8.0 | 16.1 | 0.00 | 0.00 | 0.00 | 42 | 1011.1 |
| 20260905230509 | 36 | 133 | 4.8 | 16.1 | 0.00 | 0.00 | 0.00 | 42 | 1011.1 |
| 20260905230408 | 36 | 131 | 4.8 | 16.1 | 0.00 | 0.00 | 0.00 | 42 | 1011.1 |
| 20260905230341 | 36 | 192 | 4.8 | 16.1 | 0.00 | 0.00 | 0.00 | 42 | 1011.1 |
| 20260905230309 | 36 | 204 | 6.4 | 16.1 | 0.00 | 0.00 | 0.00 | 42 | 1011.1 |
| 20260905230208 | 36 | 171 | 6.4 | 16.1 | 0.00 | 0.00 | 0.00 | 42 | 1011.1 |
| 20260905230107 | 36 | 148 | 4.8 | 16.1 | 0.00 | 0.00 | 0.00 | 44 | 1011.2 |
| 20260905230008 | 36 | 135 | 6.4 | 16.1 | 0.00 | 0.00 | 0.00 | 42 | 1011.1 |
| 20260905225907 | 36 | 157 | 4.8 | 16.1 | 0.00 | 0.00 | 0.00 | 41 | 1011.2 |
| 20260905225839 | 36 | 175 | 3.2 | 16.1 | 0.00 | 0.00 | 0.00 | 43 | 1011.1 |
| 20260905225808 | 36 | 178 | 3.2 | 16.1 | 0.00 | 0.00 | 0.00 | 43 | 1011.1 |
| 20260905225708 | 36 | 196 | 3.2 | 16.1 | 0.00 | 0.00 | 0.00 | 41 | 1011.1 |
| 20260905225608 | 37 | 192 | 4.8 | 16.1 | 0.00 | 0.00 | 0.00 | 42 | 1011.0 |
| 20260905225508 | 37 | 172 | 4.8 | 16.1 | 0.00 | 0.00 | 0.00 | 42 | 1011.1 |
| 20260905225408 | 37 | 141 | 8.0 | 16.1 | 0.00 | 0.00 | 0.00 | 42 | 1011.1 |
| 20260905225337 | 37 | 151 | 8.0 | 16.1 | 0.00 | 0.00 | 0.00 | 41 | 1011.1 |
| 20260905225308 | 37 | 140 | 9.7 | 16.1 | 0.00 | 0.00 | 0.00 | 41 | 1011.1 |
| 20260905225207 | 37 | 158 | 6.4 | 16.1 | 0.00 | 0.00 | 0.00 | 41 | 1011.0 |
| 20260905225107 | 37 | 124 | 4.8 | 16.1 | 0.00 | 0.00 | 0.00 | 41 | 1011.0 |
| 20260905225007 | 37 | 96 | 4.8 | 9.7 | 0.00 | 0.00 | 0.00 | 40 | 1011.0 |
| 20260905224909 | 37 | 123 | 3.2 | 9.7 | 0.00 | 0.00 | 0.00 | 41 | 1011.0 |
| 20260905224837 | 37 | 116 | 3.2 | 9.7 | 0.00 | 0.00 | 0.00 | 41 | 1011.0 |
| 20260905224807 | 37 | 151 | 3.2 | 9.7 | 0.00 | 0.00 | 0.00 | 40 | 1011.0 |
| 20260905224709 | 37 | 75 | 3.2 | 14.5 | 0.00 | 0.00 | 0.00 | 40 | 1011.0 |